﻿<?xml version="1.0" encoding="utf-8"?><gpx creator="Garmin Desktop App" version="1.1" xsi:schemaLocation="http://www.topografix.com/GPX/1/1 http://www.topografix.com/GPX/1/1/gpx.xsd http://www.garmin.com/xmlschemas/WaypointExtension/v1 http://www8.garmin.com/xmlschemas/WaypointExtensionv1.xsd http://www.garmin.com/xmlschemas/TrackPointExtension/v1 http://www.garmin.com/xmlschemas/TrackPointExtensionv1.xsd http://www.garmin.com/xmlschemas/GpxExtensions/v3 http://www8.garmin.com/xmlschemas/GpxExtensionsv3.xsd http://www.garmin.com/xmlschemas/ActivityExtension/v1 http://www8.garmin.com/xmlschemas/ActivityExtensionv1.xsd http://www.garmin.com/xmlschemas/AdventuresExtensions/v1 http://www8.garmin.com/xmlschemas/AdventuresExtensionv1.xsd http://www.garmin.com/xmlschemas/PressureExtension/v1 http://www.garmin.com/xmlschemas/PressureExtensionv1.xsd http://www.garmin.com/xmlschemas/TripExtensions/v1 http://www.garmin.com/xmlschemas/TripExtensionsv1.xsd http://www.garmin.com/xmlschemas/TripMetaDataExtensions/v1 http://www.garmin.com/xmlschemas/TripMetaDataExtensionsv1.xsd http://www.garmin.com/xmlschemas/ViaPointTransportationModeExtensions/v1 http://www.garmin.com/xmlschemas/ViaPointTransportationModeExtensionsv1.xsd http://www.garmin.com/xmlschemas/CreationTimeExtension/v1 http://www.garmin.com/xmlschemas/CreationTimeExtensionsv1.xsd http://www.garmin.com/xmlschemas/AccelerationExtension/v1 http://www.garmin.com/xmlschemas/AccelerationExtensionv1.xsd http://www.garmin.com/xmlschemas/PowerExtension/v1 http://www.garmin.com/xmlschemas/PowerExtensionv1.xsd http://www.garmin.com/xmlschemas/VideoExtension/v1 http://www.garmin.com/xmlschemas/VideoExtensionv1.xsd" xmlns="http://www.topografix.com/GPX/1/1" xmlns:xsi="http://www.w3.org/2001/XMLSchema-instance" xmlns:wptx1="http://www.garmin.com/xmlschemas/WaypointExtension/v1" xmlns:gpxtrx="http://www.garmin.com/xmlschemas/GpxExtensions/v3" xmlns:gpxtpx="http://www.garmin.com/xmlschemas/TrackPointExtension/v1" xmlns:gpxx="http://www.garmin.com/xmlschemas/GpxExtensions/v3" xmlns:trp="http://www.garmin.com/xmlschemas/TripExtensions/v1" xmlns:adv="http://www.garmin.com/xmlschemas/AdventuresExtensions/v1" xmlns:prs="http://www.garmin.com/xmlschemas/PressureExtension/v1" xmlns:tmd="http://www.garmin.com/xmlschemas/TripMetaDataExtensions/v1" xmlns:vptm="http://www.garmin.com/xmlschemas/ViaPointTransportationModeExtensions/v1" xmlns:ctx="http://www.garmin.com/xmlschemas/CreationTimeExtension/v1" xmlns:gpxacc="http://www.garmin.com/xmlschemas/AccelerationExtension/v1" xmlns:gpxpx="http://www.garmin.com/xmlschemas/PowerExtension/v1" xmlns:vidx1="http://www.garmin.com/xmlschemas/VideoExtension/v1">

  <metadata>
    <link href="http://www.garmin.com">
      <text>Garmin International</text>
    </link>
    <time>2015-05-25T06:32:30Z</time>
    <bounds maxlat="46.076780185103416" maxlon="9.316312121227384" minlat="46.011128425598145" minlon="9.284130726009607" />
  </metadata>

  <trk>
    <name>varenna dervio2015-05-24</name>
    <extensions>
      <gpxx:TrackExtension>
        <gpxx:DisplayColor>Yellow</gpxx:DisplayColor>
      </gpxx:TrackExtension>
      <gpxtrkx:TrackStatsExtension xmlns:gpxtrkx="http://www.garmin.com/xmlschemas/TrackStatsExtension/v1">
        <gpxtrkx:Distance>15631</gpxtrkx:Distance>
        <gpxtrkx:TotalElapsedTime>22242</gpxtrkx:TotalElapsedTime>
        <gpxtrkx:MovingTime>15572</gpxtrkx:MovingTime>
        <gpxtrkx:StoppedTime>6660</gpxtrkx:StoppedTime>
        <gpxtrkx:MovingSpeed>1</gpxtrkx:MovingSpeed>
        <gpxtrkx:MaxSpeed>2</gpxtrkx:MaxSpeed>
        <gpxtrkx:MaxElevation>431</gpxtrkx:MaxElevation>
        <gpxtrkx:MinElevation>215</gpxtrkx:MinElevation>
        <gpxtrkx:Ascent>703</gpxtrkx:Ascent>
        <gpxtrkx:Descent>704</gpxtrkx:Descent>
        <gpxtrkx:AvgAscentRate>0</gpxtrkx:AvgAscentRate>
        <gpxtrkx:MaxAscentRate>0</gpxtrkx:MaxAscentRate>
        <gpxtrkx:AvgDescentRate>0</gpxtrkx:AvgDescentRate>
        <gpxtrkx:MaxDescentRate>-1</gpxtrkx:MaxDescentRate>
      </gpxtrkx:TrackStatsExtension>
    </extensions>
    <trkseg>
      <trkpt lat="46.014910591766238" lon="9.284395426511765">
        <ele>227.49000000000001</ele>
        <time>2015-05-24T07:11:40Z</time>
      </trkpt>
      <trkpt lat="46.014906652271748" lon="9.284399198368192">
        <ele>218.84</ele>
        <time>2015-05-24T07:11:45Z</time>
      </trkpt>
      <trkpt lat="46.014904053881764" lon="9.284397521987557">
        <ele>218.84</ele>
        <time>2015-05-24T07:11:46Z</time>
      </trkpt>
      <trkpt lat="46.014918303117156" lon="9.284365084022284">
        <ele>218.84</ele>
        <time>2015-05-24T07:11:58Z</time>
      </trkpt>
      <trkpt lat="46.014896761626005" lon="9.284371454268694">
        <ele>218.84</ele>
        <time>2015-05-24T07:12:08Z</time>
      </trkpt>
      <trkpt lat="46.014875136315823" lon="9.284371035173535">
        <ele>218.84</ele>
        <time>2015-05-24T07:12:21Z</time>
      </trkpt>
      <trkpt lat="46.014879243448377" lon="9.284408167004585">
        <ele>218.36000000000001</ele>
        <time>2015-05-24T07:12:34Z</time>
      </trkpt>
      <trkpt lat="46.014873962849379" lon="9.284434905275703">
        <ele>218.84</ele>
        <time>2015-05-24T07:12:47Z</time>
      </trkpt>
      <trkpt lat="46.014815708622336" lon="9.284439934417605">
        <ele>219.31999999999999</ele>
        <time>2015-05-24T07:12:56Z</time>
      </trkpt>
      <trkpt lat="46.014742283150554" lon="9.284411184489727">
        <ele>219.31999999999999</ele>
        <time>2015-05-24T07:13:07Z</time>
      </trkpt>
      <trkpt lat="46.014714622870088" lon="9.284426607191563">
        <ele>219.31999999999999</ele>
        <time>2015-05-24T07:13:12Z</time>
      </trkpt>
      <trkpt lat="46.014633569866419" lon="9.28445384837687">
        <ele>219.31999999999999</ele>
        <time>2015-05-24T07:13:20Z</time>
      </trkpt>
      <trkpt lat="46.014596857130527" lon="9.284422332420945">
        <ele>219.80000000000001</ele>
        <time>2015-05-24T07:13:24Z</time>
      </trkpt>
      <trkpt lat="46.01447825320065" lon="9.284373633563519">
        <ele>220.28</ele>
        <time>2015-05-24T07:13:35Z</time>
      </trkpt>
      <trkpt lat="46.014361660927534" lon="9.284294424578548">
        <ele>220.75999999999999</ele>
        <time>2015-05-24T07:13:49Z</time>
      </trkpt>
      <trkpt lat="46.014293935149908" lon="9.284244887530804">
        <ele>220.75999999999999</ele>
        <time>2015-05-24T07:13:59Z</time>
      </trkpt>
      <trkpt lat="46.014241632074118" lon="9.284230638295412">
        <ele>221.72</ele>
        <time>2015-05-24T07:14:06Z</time>
      </trkpt>
      <trkpt lat="46.014130236580968" lon="9.284174647182226">
        <ele>222.68000000000001</ele>
        <time>2015-05-24T07:14:16Z</time>
      </trkpt>
      <trkpt lat="46.01401356048882" lon="9.284150172024965">
        <ele>222.19999999999999</ele>
        <time>2015-05-24T07:14:26Z</time>
      </trkpt>
      <trkpt lat="46.013936279341578" lon="9.284130726009607">
        <ele>222.68000000000001</ele>
        <time>2015-05-24T07:14:35Z</time>
      </trkpt>
      <trkpt lat="46.013901829719543" lon="9.28421244956553">
        <ele>225.09</ele>
        <time>2015-05-24T07:14:47Z</time>
      </trkpt>
      <trkpt lat="46.01392513141036" lon="9.284386206418276">
        <ele>227.00999999999999</ele>
        <time>2015-05-24T07:14:59Z</time>
      </trkpt>
      <trkpt lat="46.013889089226723" lon="9.284466421231628">
        <ele>228.93000000000001</ele>
        <time>2015-05-24T07:15:10Z</time>
      </trkpt>
      <trkpt lat="46.013888418674469" lon="9.284478072077036">
        <ele>228.93000000000001</ele>
        <time>2015-05-24T07:15:12Z</time>
      </trkpt>
      <trkpt lat="46.013873498886824" lon="9.284449825063348">
        <ele>228.93000000000001</ele>
        <time>2015-05-24T07:15:15Z</time>
      </trkpt>
      <trkpt lat="46.013801833614707" lon="9.284367514774203">
        <ele>229.88999999999999</ele>
        <time>2015-05-24T07:15:24Z</time>
      </trkpt>
      <trkpt lat="46.013721534982324" lon="9.284314624965191">
        <ele>231.81</ele>
        <time>2015-05-24T07:15:35Z</time>
      </trkpt>
      <trkpt lat="46.013651210814714" lon="9.284278750419617">
        <ele>232.78</ele>
        <time>2015-05-24T07:15:45Z</time>
      </trkpt>
      <trkpt lat="46.013613659888506" lon="9.284300040453672">
        <ele>234.69999999999999</ele>
        <time>2015-05-24T07:16:00Z</time>
      </trkpt>
      <trkpt lat="46.013653138652444" lon="9.284375393763185">
        <ele>236.62</ele>
        <time>2015-05-24T07:16:13Z</time>
      </trkpt>
      <trkpt lat="46.013644924387336" lon="9.284468600526452">
        <ele>238.53999999999999</ele>
        <time>2015-05-24T07:16:24Z</time>
      </trkpt>
      <trkpt lat="46.013633357360959" lon="9.284572619944811">
        <ele>240.94999999999999</ele>
        <time>2015-05-24T07:16:35Z</time>
      </trkpt>
      <trkpt lat="46.013631848618388" lon="9.284578654915094">
        <ele>240.94999999999999</ele>
        <time>2015-05-24T07:16:36Z</time>
      </trkpt>
      <trkpt lat="46.013619191944599" lon="9.284652667120099">
        <ele>242.87</ele>
        <time>2015-05-24T07:16:47Z</time>
      </trkpt>
      <trkpt lat="46.013648612424731" lon="9.284750064834952">
        <ele>244.78999999999999</ele>
        <time>2015-05-24T07:16:57Z</time>
      </trkpt>
      <trkpt lat="46.013672417029738" lon="9.284857353195548">
        <ele>246.22999999999999</ele>
        <time>2015-05-24T07:17:08Z</time>
      </trkpt>
      <trkpt lat="46.013659760355949" lon="9.284960702061653">
        <ele>247.68000000000001</ele>
        <time>2015-05-24T07:17:19Z</time>
      </trkpt>
      <trkpt lat="46.013648863881826" lon="9.285024823620915">
        <ele>249.12</ele>
        <time>2015-05-24T07:17:28Z</time>
      </trkpt>
      <trkpt lat="46.01362707093358" lon="9.285132950171828">
        <ele>251.03999999999999</ele>
        <time>2015-05-24T07:17:41Z</time>
      </trkpt>
      <trkpt lat="46.013577366247773" lon="9.285250883549452">
        <ele>253.44</ele>
        <time>2015-05-24T07:17:55Z</time>
      </trkpt>
      <trkpt lat="46.013554986566305" lon="9.285355070605874">
        <ele>255.37</ele>
        <time>2015-05-24T07:18:07Z</time>
      </trkpt>
      <trkpt lat="46.013524308800697" lon="9.285476440563798">
        <ele>257.76999999999998</ele>
        <time>2015-05-24T07:18:22Z</time>
      </trkpt>
      <trkpt lat="46.01354107260704" lon="9.285572748631239">
        <ele>259.69</ele>
        <time>2015-05-24T07:18:33Z</time>
      </trkpt>
      <trkpt lat="46.013557584956288" lon="9.285644581541419">
        <ele>261.62</ele>
        <time>2015-05-24T07:18:44Z</time>
      </trkpt>
      <trkpt lat="46.01356646977365" lon="9.285697219893336">
        <ele>262.57999999999998</ele>
        <time>2015-05-24T07:18:52Z</time>
      </trkpt>
      <trkpt lat="46.013560267165303" lon="9.285800568759441">
        <ele>264.98000000000002</ele>
        <time>2015-05-24T07:19:05Z</time>
      </trkpt>
      <trkpt lat="46.013568649068475" lon="9.285869132727385">
        <ele>266.42000000000002</ele>
        <time>2015-05-24T07:19:14Z</time>
      </trkpt>
      <trkpt lat="46.013568649068475" lon="9.285938031971455">
        <ele>267.86000000000001</ele>
        <time>2015-05-24T07:19:25Z</time>
      </trkpt>
      <trkpt lat="46.013571582734585" lon="9.285960663110018">
        <ele>268.35000000000002</ele>
        <time>2015-05-24T07:19:27Z</time>
      </trkpt>
      <trkpt lat="46.013586083427072" lon="9.286046829074621">
        <ele>270.26999999999998</ele>
        <time>2015-05-24T07:19:37Z</time>
      </trkpt>
      <trkpt lat="46.013584658503532" lon="9.28611564449966">
        <ele>271.23000000000002</ele>
        <time>2015-05-24T07:19:47Z</time>
      </trkpt>
      <trkpt lat="46.013584490865469" lon="9.286224860697985">
        <ele>273.14999999999998</ele>
        <time>2015-05-24T07:20:00Z</time>
      </trkpt>
      <trkpt lat="46.013555321842432" lon="9.286348493769765">
        <ele>275.06999999999999</ele>
        <time>2015-05-24T07:20:12Z</time>
      </trkpt>
      <trkpt lat="46.013523135334253" lon="9.286441532894969">
        <ele>277.48000000000002</ele>
        <time>2015-05-24T07:20:26Z</time>
      </trkpt>
      <trkpt lat="46.01348826661706" lon="9.286542870104313">
        <ele>279.39999999999998</ele>
        <time>2015-05-24T07:20:40Z</time>
      </trkpt>
      <trkpt lat="46.013484830036759" lon="9.286664240062237">
        <ele>281.80000000000001</ele>
        <time>2015-05-24T07:20:54Z</time>
      </trkpt>
      <trkpt lat="46.013457337394357" lon="9.286781921982765">
        <ele>282.76999999999998</ele>
        <time>2015-05-24T07:21:05Z</time>
      </trkpt>
      <trkpt lat="46.013371171429753" lon="9.286889461800456">
        <ele>284.20999999999998</ele>
        <time>2015-05-24T07:21:14Z</time>
      </trkpt>
      <trkpt lat="46.013353988528252" lon="9.286999851465225">
        <ele>285.64999999999998</ele>
        <time>2015-05-24T07:21:24Z</time>
      </trkpt>
      <trkpt lat="46.013329848647118" lon="9.287103619426489">
        <ele>286.13</ele>
        <time>2015-05-24T07:21:33Z</time>
      </trkpt>
      <trkpt lat="46.013295063748956" lon="9.287157347425818">
        <ele>286.61000000000001</ele>
        <time>2015-05-24T07:21:38Z</time>
      </trkpt>
      <trkpt lat="46.013227757066488" lon="9.287275951355696">
        <ele>287.56999999999999</ele>
        <time>2015-05-24T07:21:50Z</time>
      </trkpt>
      <trkpt lat="46.013196157291532" lon="9.287357507273555">
        <ele>289.00999999999999</ele>
        <time>2015-05-24T07:21:58Z</time>
      </trkpt>
      <trkpt lat="46.013156594708562" lon="9.287484241649509">
        <ele>290.45999999999998</ele>
        <time>2015-05-24T07:22:09Z</time>
      </trkpt>
      <trkpt lat="46.013096161186695" lon="9.28758691996336">
        <ele>291.89999999999998</ele>
        <time>2015-05-24T07:22:20Z</time>
      </trkpt>
      <trkpt lat="46.013016700744629" lon="9.28766218945384">
        <ele>293.33999999999997</ele>
        <time>2015-05-24T07:22:32Z</time>
      </trkpt>
      <trkpt lat="46.0129473824054" lon="9.287744080647826">
        <ele>295.25999999999999</ele>
        <time>2015-05-24T07:22:44Z</time>
      </trkpt>
      <trkpt lat="46.012891978025436" lon="9.287816332653165">
        <ele>297.18000000000001</ele>
        <time>2015-05-24T07:22:57Z</time>
      </trkpt>
      <trkpt lat="46.012837495654821" lon="9.287913562729955">
        <ele>299.58999999999997</ele>
        <time>2015-05-24T07:23:11Z</time>
      </trkpt>
      <trkpt lat="46.012782845646143" lon="9.287980450317264">
        <ele>301.02999999999997</ele>
        <time>2015-05-24T07:23:22Z</time>
      </trkpt>
      <trkpt lat="46.012756023555994" lon="9.288038285449147">
        <ele>302.94999999999999</ele>
        <time>2015-05-24T07:23:33Z</time>
      </trkpt>
      <trkpt lat="46.012718137353659" lon="9.288146579638124">
        <ele>304.38999999999999</ele>
        <time>2015-05-24T07:23:45Z</time>
      </trkpt>
      <trkpt lat="46.012683687731624" lon="9.288230398669839">
        <ele>306.80000000000001</ele>
        <time>2015-05-24T07:23:56Z</time>
      </trkpt>
      <trkpt lat="46.012628031894565" lon="9.288317821919918">
        <ele>308.24000000000001</ele>
        <time>2015-05-24T07:24:08Z</time>
      </trkpt>
      <trkpt lat="46.012576902285218" lon="9.288372220471501">
        <ele>311.12</ele>
        <time>2015-05-24T07:24:20Z</time>
      </trkpt>
      <trkpt lat="46.01252568885684" lon="9.288417147472501">
        <ele>313.52999999999997</ele>
        <time>2015-05-24T07:24:33Z</time>
      </trkpt>
      <trkpt lat="46.012490065768361" lon="9.288439275696874">
        <ele>314.49000000000001</ele>
        <time>2015-05-24T07:24:45Z</time>
      </trkpt>
      <trkpt lat="46.012449329718947" lon="9.288493674248457">
        <ele>316.41000000000003</ele>
        <time>2015-05-24T07:24:55Z</time>
      </trkpt>
      <trkpt lat="46.012409264221787" lon="9.288582606241107">
        <ele>319.30000000000001</ele>
        <time>2015-05-24T07:25:08Z</time>
      </trkpt>
      <trkpt lat="46.012356458231807" lon="9.288676399737597">
        <ele>320.74000000000001</ele>
        <time>2015-05-24T07:25:19Z</time>
      </trkpt>
      <trkpt lat="46.012291917577386" lon="9.288723506033421">
        <ele>323.13999999999999</ele>
        <time>2015-05-24T07:25:32Z</time>
      </trkpt>
      <trkpt lat="46.012263251468539" lon="9.288811851292849">
        <ele>324.57999999999998</ele>
        <time>2015-05-24T07:25:45Z</time>
      </trkpt>
      <trkpt lat="46.012231567874551" lon="9.288893742486835">
        <ele>326.5</ele>
        <time>2015-05-24T07:25:56Z</time>
      </trkpt>
      <trkpt lat="46.012120507657528" lon="9.28896582685411">
        <ele>328.43000000000001</ele>
        <time>2015-05-24T07:26:08Z</time>
      </trkpt>
      <trkpt lat="46.012052865698934" lon="9.288982590660453">
        <ele>330.35000000000002</ele>
        <time>2015-05-24T07:26:17Z</time>
      </trkpt>
      <trkpt lat="46.011997545138001" lon="9.289020309224725">
        <ele>331.31</ele>
        <time>2015-05-24T07:26:26Z</time>
      </trkpt>
      <trkpt lat="46.011907272040844" lon="9.289033301174641">
        <ele>333.70999999999998</ele>
        <time>2015-05-24T07:26:40Z</time>
      </trkpt>
      <trkpt lat="46.01180786266923" lon="9.288992146030068">
        <ele>336.60000000000002</ele>
        <time>2015-05-24T07:26:54Z</time>
      </trkpt>
      <trkpt lat="46.011747429147363" lon="9.288980914279819">
        <ele>338.04000000000002</ele>
        <time>2015-05-24T07:27:03Z</time>
      </trkpt>
      <trkpt lat="46.011670315638185" lon="9.288930706679821">
        <ele>339.95999999999998</ele>
        <time>2015-05-24T07:27:16Z</time>
      </trkpt>
      <trkpt lat="46.011580377817154" lon="9.288918720558286">
        <ele>341.88999999999999</ele>
        <time>2015-05-24T07:27:28Z</time>
      </trkpt>
      <trkpt lat="46.011530505493283" lon="9.288930455222726">
        <ele>343.32999999999998</ele>
        <time>2015-05-24T07:27:39Z</time>
      </trkpt>
      <trkpt lat="46.011463366448879" lon="9.288936574012041">
        <ele>345.73000000000002</ele>
        <time>2015-05-24T07:27:53Z</time>
      </trkpt>
      <trkpt lat="46.011396395042539" lon="9.288969850167632">
        <ele>348.13</ele>
        <time>2015-05-24T07:28:04Z</time>
      </trkpt>
      <trkpt lat="46.011297488585114" lon="9.288976304233074">
        <ele>350.54000000000002</ele>
        <time>2015-05-24T07:28:17Z</time>
      </trkpt>
      <trkpt lat="46.011247364804149" lon="9.289056602865458">
        <ele>352.45999999999998</ele>
        <time>2015-05-24T07:28:29Z</time>
      </trkpt>
      <trkpt lat="46.011221716180444" lon="9.289128771051765">
        <ele>353.89999999999998</ele>
        <time>2015-05-24T07:28:39Z</time>
      </trkpt>
      <trkpt lat="46.011216519400477" lon="9.289166070520878">
        <ele>354.38</ele>
        <time>2015-05-24T07:28:50Z</time>
      </trkpt>
      <trkpt lat="46.011233534663916" lon="9.289258271455765">
        <ele>353.42000000000002</ele>
        <time>2015-05-24T07:29:02Z</time>
      </trkpt>
      <trkpt lat="46.011235546320677" lon="9.289415264502168">
        <ele>351.01999999999998</ele>
        <time>2015-05-24T07:29:15Z</time>
      </trkpt>
      <trkpt lat="46.011208640411496" lon="9.289520876482129">
        <ele>348.62</ele>
        <time>2015-05-24T07:29:26Z</time>
      </trkpt>
      <trkpt lat="46.0111980792135" lon="9.289649622514844">
        <ele>345.73000000000002</ele>
        <time>2015-05-24T07:29:38Z</time>
      </trkpt>
      <trkpt lat="46.01117167621851" lon="9.289790438488126">
        <ele>342.85000000000002</ele>
        <time>2015-05-24T07:29:51Z</time>
      </trkpt>
      <trkpt lat="46.01115751080215" lon="9.289921950548887">
        <ele>339.95999999999998</ele>
        <time>2015-05-24T07:30:03Z</time>
      </trkpt>
      <trkpt lat="46.011161785572767" lon="9.289982970803976">
        <ele>339</ele>
        <time>2015-05-24T07:30:08Z</time>
      </trkpt>
      <trkpt lat="46.011174274608493" lon="9.290100568905473">
        <ele>335.63999999999999</ele>
        <time>2015-05-24T07:30:19Z</time>
      </trkpt>
      <trkpt lat="46.011169664561749" lon="9.290129654109478">
        <ele>335.16000000000003</ele>
        <time>2015-05-24T07:30:22Z</time>
      </trkpt>
      <trkpt lat="46.011128425598145" lon="9.290273319929838">
        <ele>332.26999999999998</ele>
        <time>2015-05-24T07:30:33Z</time>
      </trkpt>
      <trkpt lat="46.011131023988128" lon="9.290307350456715">
        <ele>332.26999999999998</ele>
        <time>2015-05-24T07:30:35Z</time>
      </trkpt>
      <trkpt lat="46.01115214638412" lon="9.290398294106126">
        <ele>331.79000000000002</ele>
        <time>2015-05-24T07:30:44Z</time>
      </trkpt>
      <trkpt lat="46.011196570470929" lon="9.290502229705453">
        <ele>330.35000000000002</ele>
        <time>2015-05-24T07:30:54Z</time>
      </trkpt>
      <trkpt lat="46.011216603219509" lon="9.290587138384581">
        <ele>327.47000000000003</ele>
        <time>2015-05-24T07:31:01Z</time>
      </trkpt>
      <trkpt lat="46.011263038963079" lon="9.290701383724809">
        <ele>326.5</ele>
        <time>2015-05-24T07:31:12Z</time>
      </trkpt>
      <trkpt lat="46.011310145258904" lon="9.290775144472718">
        <ele>325.54000000000002</ele>
        <time>2015-05-24T07:31:19Z</time>
      </trkpt>
      <trkpt lat="46.011322718113661" lon="9.29079869762063">
        <ele>325.06</ele>
        <time>2015-05-24T07:31:21Z</time>
      </trkpt>
      <trkpt lat="46.011379966512322" lon="9.290912607684732">
        <ele>321.22000000000003</ele>
        <time>2015-05-24T07:31:32Z</time>
      </trkpt>
      <trkpt lat="46.01140377111733" lon="9.291031714528799">
        <ele>317.85000000000002</ele>
        <time>2015-05-24T07:31:41Z</time>
      </trkpt>
      <trkpt lat="46.011442076414824" lon="9.291180158033967">
        <ele>314.97000000000003</ele>
        <time>2015-05-24T07:31:51Z</time>
      </trkpt>
      <trkpt lat="46.011451883241534" lon="9.291291972622275">
        <ele>314.00999999999999</ele>
        <time>2015-05-24T07:31:58Z</time>
      </trkpt>
      <trkpt lat="46.011455068364739" lon="9.291358692571521">
        <ele>313.52999999999997</ele>
        <time>2015-05-24T07:32:02Z</time>
      </trkpt>
      <trkpt lat="46.011465713381767" lon="9.291397919878364">
        <ele>313.05000000000001</ele>
        <time>2015-05-24T07:32:04Z</time>
      </trkpt>
      <trkpt lat="46.011492451652884" lon="9.291449468582869">
        <ele>310.63999999999999</ele>
        <time>2015-05-24T07:32:14Z</time>
      </trkpt>
      <trkpt lat="46.01151910610497" lon="9.291468830779195">
        <ele>309.68000000000001</ele>
        <time>2015-05-24T07:32:21Z</time>
      </trkpt>
      <trkpt lat="46.01148541085422" lon="9.291509315371513">
        <ele>309.68000000000001</ele>
        <time>2015-05-24T07:32:44Z</time>
      </trkpt>
      <trkpt lat="46.011451380327344" lon="9.291494563221932">
        <ele>311.12</ele>
        <time>2015-05-24T07:33:03Z</time>
      </trkpt>
      <trkpt lat="46.011481303721666" lon="9.291613502427936">
        <ele>309.68000000000001</ele>
        <time>2015-05-24T07:33:13Z</time>
      </trkpt>
      <trkpt lat="46.011500163003802" lon="9.291716264560819">
        <ele>307.27999999999997</ele>
        <time>2015-05-24T07:33:21Z</time>
      </trkpt>
      <trkpt lat="46.011572750285268" lon="9.291804190725088">
        <ele>304.88</ele>
        <time>2015-05-24T07:33:32Z</time>
      </trkpt>
      <trkpt lat="46.011611390858889" lon="9.291863953694701">
        <ele>302.94999999999999</ele>
        <time>2015-05-24T07:33:38Z</time>
      </trkpt>
      <trkpt lat="46.011630417779088" lon="9.291919693350792">
        <ele>301.99000000000001</ele>
        <time>2015-05-24T07:33:42Z</time>
      </trkpt>
      <trkpt lat="46.011706106364727" lon="9.292113734409213">
        <ele>299.11000000000001</ele>
        <time>2015-05-24T07:33:57Z</time>
      </trkpt>
      <trkpt lat="46.011733515188098" lon="9.29232420399785">
        <ele>296.69999999999999</ele>
        <time>2015-05-24T07:34:10Z</time>
      </trkpt>
      <trkpt lat="46.011738628149033" lon="9.292406933382154">
        <ele>295.74000000000001</ele>
        <time>2015-05-24T07:34:15Z</time>
      </trkpt>
      <trkpt lat="46.01170627400279" lon="9.292546240612865">
        <ele>295.25999999999999</ele>
        <time>2015-05-24T07:34:25Z</time>
      </trkpt>
      <trkpt lat="46.011682720854878" lon="9.292586976662278">
        <ele>294.77999999999997</ele>
        <time>2015-05-24T07:34:30Z</time>
      </trkpt>
      <trkpt lat="46.011671237647533" lon="9.292676998302341">
        <ele>293.81999999999999</ele>
        <time>2015-05-24T07:34:40Z</time>
      </trkpt>
      <trkpt lat="46.011649025604129" lon="9.292686050757766">
        <ele>293.81999999999999</ele>
        <time>2015-05-24T07:34:50Z</time>
      </trkpt>
      <trkpt lat="46.011676266789436" lon="9.292715303599834">
        <ele>292.86000000000001</ele>
        <time>2015-05-24T07:34:57Z</time>
      </trkpt>
      <trkpt lat="46.011726725846529" lon="9.292703149840236">
        <ele>292.38</ele>
        <time>2015-05-24T07:35:06Z</time>
      </trkpt>
      <trkpt lat="46.011766204610467" lon="9.292671214789152">
        <ele>292.38</ele>
        <time>2015-05-24T07:35:12Z</time>
      </trkpt>
      <trkpt lat="46.01178053766489" lon="9.292677082121372">
        <ele>293.33999999999997</ele>
        <time>2015-05-24T07:35:21Z</time>
      </trkpt>
      <trkpt lat="46.011807192116976" lon="9.292668700218201">
        <ele>292.86000000000001</ele>
        <time>2015-05-24T07:35:37Z</time>
      </trkpt>
      <trkpt lat="46.011782214045525" lon="9.292661072686315">
        <ele>293.33999999999997</ele>
        <time>2015-05-24T07:35:51Z</time>
      </trkpt>
      <trkpt lat="46.011732006445527" lon="9.292641207575798">
        <ele>293.33999999999997</ele>
        <time>2015-05-24T07:36:05Z</time>
      </trkpt>
      <trkpt lat="46.011732090264559" lon="9.292649757117033">
        <ele>293.33999999999997</ele>
        <time>2015-05-24T07:36:17Z</time>
      </trkpt>
      <trkpt lat="46.01169353350997" lon="9.292655708268285">
        <ele>293.81999999999999</ele>
        <time>2015-05-24T07:36:36Z</time>
      </trkpt>
      <trkpt lat="46.011686911806464" lon="9.292635340243578">
        <ele>293.33999999999997</ele>
        <time>2015-05-24T07:36:54Z</time>
      </trkpt>
      <trkpt lat="46.011685822159052" lon="9.292631987482309">
        <ele>293.81999999999999</ele>
        <time>2015-05-24T07:37:07Z</time>
      </trkpt>
      <trkpt lat="46.011696802452207" lon="9.292664006352425">
        <ele>293.81999999999999</ele>
        <time>2015-05-24T07:37:26Z</time>
      </trkpt>
      <trkpt lat="46.011724462732673" lon="9.292660402134061">
        <ele>294.30000000000001</ele>
        <time>2015-05-24T07:37:44Z</time>
      </trkpt>
      <trkpt lat="46.011717589572072" lon="9.292654367163777">
        <ele>294.30000000000001</ele>
        <time>2015-05-24T07:37:58Z</time>
      </trkpt>
      <trkpt lat="46.011733766645193" lon="9.292643386870623">
        <ele>294.30000000000001</ele>
        <time>2015-05-24T07:38:14Z</time>
      </trkpt>
      <trkpt lat="46.011768048629165" lon="9.292640285566449">
        <ele>294.77999999999997</ele>
        <time>2015-05-24T07:38:29Z</time>
      </trkpt>
      <trkpt lat="46.011812472715974" lon="9.292625617235899">
        <ele>294.77999999999997</ele>
        <time>2015-05-24T07:38:39Z</time>
      </trkpt>
      <trkpt lat="46.011847760528326" lon="9.292562920600176">
        <ele>295.74000000000001</ele>
        <time>2015-05-24T07:38:52Z</time>
      </trkpt>
      <trkpt lat="46.011915067210793" lon="9.292480023577809">
        <ele>297.18000000000001</ele>
        <time>2015-05-24T07:39:02Z</time>
      </trkpt>
      <trkpt lat="46.011976841837168" lon="9.292420595884323">
        <ele>299.58999999999997</ele>
        <time>2015-05-24T07:39:13Z</time>
      </trkpt>
      <trkpt lat="46.012037275359035" lon="9.292390756309032">
        <ele>301.99000000000001</ele>
        <time>2015-05-24T07:39:24Z</time>
      </trkpt>
      <trkpt lat="46.012084633111954" lon="9.292333340272307">
        <ele>304.38999999999999</ele>
        <time>2015-05-24T07:39:37Z</time>
      </trkpt>
      <trkpt lat="46.012135846540332" lon="9.292267793789506">
        <ele>307.27999999999997</ele>
        <time>2015-05-24T07:39:49Z</time>
      </trkpt>
      <trkpt lat="46.012162417173386" lon="9.292252957820892">
        <ele>309.68000000000001</ele>
        <time>2015-05-24T07:39:59Z</time>
      </trkpt>
      <trkpt lat="46.012170296162367" lon="9.2921834718436">
        <ele>311.60000000000002</ele>
        <time>2015-05-24T07:40:08Z</time>
      </trkpt>
      <trkpt lat="46.012194938957691" lon="9.292119601741433">
        <ele>314.00999999999999</ele>
        <time>2015-05-24T07:40:19Z</time>
      </trkpt>
      <trkpt lat="46.012237016111612" lon="9.292152710258961">
        <ele>314.49000000000001</ele>
        <time>2015-05-24T07:40:28Z</time>
      </trkpt>
      <trkpt lat="46.012260904535651" lon="9.292208533734083">
        <ele>314.49000000000001</ele>
        <time>2015-05-24T07:40:33Z</time>
      </trkpt>
      <trkpt lat="46.012327540665865" lon="9.292339207604528">
        <ele>314.97000000000003</ele>
        <time>2015-05-24T07:40:44Z</time>
      </trkpt>
      <trkpt lat="46.012335000559688" lon="9.292340381070972">
        <ele>314.49000000000001</ele>
        <time>2015-05-24T07:40:45Z</time>
      </trkpt>
      <trkpt lat="46.012377832084894" lon="9.292308781296015">
        <ele>314.49000000000001</ele>
        <time>2015-05-24T07:40:49Z</time>
      </trkpt>
      <trkpt lat="46.0124655906111" lon="9.292171485722065">
        <ele>314.97000000000003</ele>
        <time>2015-05-24T07:41:00Z</time>
      </trkpt>
      <trkpt lat="46.012484868988395" lon="9.292120859026909">
        <ele>315.44999999999999</ele>
        <time>2015-05-24T07:41:09Z</time>
      </trkpt>
      <trkpt lat="46.012546056881547" lon="9.292033184319735">
        <ele>314.97000000000003</ele>
        <time>2015-05-24T07:41:19Z</time>
      </trkpt>
      <trkpt lat="46.012616800144315" lon="9.292010134086013">
        <ele>317.37</ele>
        <time>2015-05-24T07:41:31Z</time>
      </trkpt>
      <trkpt lat="46.012672204524279" lon="9.292000411078334">
        <ele>319.30000000000001</ele>
        <time>2015-05-24T07:41:41Z</time>
      </trkpt>
      <trkpt lat="46.012742696329951" lon="9.29197384044528">
        <ele>322.18000000000001</ele>
        <time>2015-05-24T07:41:54Z</time>
      </trkpt>
      <trkpt lat="46.012790221720934" lon="9.291917178779841">
        <ele>324.10000000000002</ele>
        <time>2015-05-24T07:42:06Z</time>
      </trkpt>
      <trkpt lat="46.01283011958003" lon="9.291843418031931">
        <ele>326.01999999999998</ele>
        <time>2015-05-24T07:42:17Z</time>
      </trkpt>
      <trkpt lat="46.012859540060163" lon="9.291797569021583">
        <ele>327.47000000000003</ele>
        <time>2015-05-24T07:42:26Z</time>
      </trkpt>
      <trkpt lat="46.012896001338959" lon="9.291762197390199">
        <ele>329.38999999999999</ele>
        <time>2015-05-24T07:42:35Z</time>
      </trkpt>
      <trkpt lat="46.01292927749455" lon="9.291740907356143">
        <ele>330.35000000000002</ele>
        <time>2015-05-24T07:42:43Z</time>
      </trkpt>
      <trkpt lat="46.012967247515917" lon="9.291705451905727">
        <ele>332.26999999999998</ele>
        <time>2015-05-24T07:42:52Z</time>
      </trkpt>
      <trkpt lat="46.013004295527935" lon="9.291686173528433">
        <ele>333.70999999999998</ele>
        <time>2015-05-24T07:43:01Z</time>
      </trkpt>
      <trkpt lat="46.01304511539638" lon="9.291660105809569">
        <ele>335.63999999999999</ele>
        <time>2015-05-24T07:43:10Z</time>
      </trkpt>
      <trkpt lat="46.01305928081274" lon="9.291668990626931">
        <ele>337.07999999999998</ele>
        <time>2015-05-24T07:43:21Z</time>
      </trkpt>
      <trkpt lat="46.013077050447464" lon="9.291705368086696">
        <ele>337.07999999999998</ele>
        <time>2015-05-24T07:43:40Z</time>
      </trkpt>
      <trkpt lat="46.013107392936945" lon="9.291704865172505">
        <ele>337.07999999999998</ele>
        <time>2015-05-24T07:43:54Z</time>
      </trkpt>
      <trkpt lat="46.013143351301551" lon="9.291697908192873">
        <ele>337.07999999999998</ele>
        <time>2015-05-24T07:44:15Z</time>
      </trkpt>
      <trkpt lat="46.0131701733917" lon="9.291695225983858">
        <ele>338.04000000000002</ele>
        <time>2015-05-24T07:44:36Z</time>
      </trkpt>
      <trkpt lat="46.013210993260145" lon="9.29172464646399">
        <ele>339</ele>
        <time>2015-05-24T07:44:42Z</time>
      </trkpt>
      <trkpt lat="46.013315683230758" lon="9.291788348928094">
        <ele>340.92000000000002</ele>
        <time>2015-05-24T07:44:54Z</time>
      </trkpt>
      <trkpt lat="46.013318281620741" lon="9.291794216260314">
        <ele>340.92000000000002</ele>
        <time>2015-05-24T07:44:55Z</time>
      </trkpt>
      <trkpt lat="46.013400172814727" lon="9.291865965351462">
        <ele>340.92000000000002</ele>
        <time>2015-05-24T07:45:06Z</time>
      </trkpt>
      <trkpt lat="46.013477118685842" lon="9.291920196264982">
        <ele>340.92000000000002</ele>
        <time>2015-05-24T07:45:15Z</time>
      </trkpt>
      <trkpt lat="46.013594632968307" lon="9.292027233168483">
        <ele>340.44</ele>
        <time>2015-05-24T07:45:29Z</time>
      </trkpt>
      <trkpt lat="46.013676691800356" lon="9.292155811563134">
        <ele>340.44</ele>
        <time>2015-05-24T07:45:42Z</time>
      </trkpt>
      <trkpt lat="46.01372673176229" lon="9.292261507362127">
        <ele>339.95999999999998</ele>
        <time>2015-05-24T07:45:53Z</time>
      </trkpt>
      <trkpt lat="46.013750368729234" lon="9.292289167642593">
        <ele>339.95999999999998</ele>
        <time>2015-05-24T07:45:57Z</time>
      </trkpt>
      <trkpt lat="46.013817256316543" lon="9.292384805157781">
        <ele>338.51999999999998</ele>
        <time>2015-05-24T07:46:10Z</time>
      </trkpt>
      <trkpt lat="46.013918844982982" lon="9.292435180395842">
        <ele>337.07999999999998</ele>
        <time>2015-05-24T07:46:22Z</time>
      </trkpt>
      <trkpt lat="46.013948265463114" lon="9.29234666749835">
        <ele>337.07999999999998</ele>
        <time>2015-05-24T07:46:31Z</time>
      </trkpt>
      <trkpt lat="46.013971231877804" lon="9.292216496542096">
        <ele>338.04000000000002</ele>
        <time>2015-05-24T07:46:44Z</time>
      </trkpt>
      <trkpt lat="46.013980535790324" lon="9.29217416793108">
        <ele>337.56</ele>
        <time>2015-05-24T07:46:47Z</time>
      </trkpt>
      <trkpt lat="46.01400182582438" lon="9.292019437998533">
        <ele>337.56</ele>
        <time>2015-05-24T07:46:59Z</time>
      </trkpt>
      <trkpt lat="46.014015153050423" lon="9.291846016421914">
        <ele>336.60000000000002</ele>
        <time>2015-05-24T07:47:11Z</time>
      </trkpt>
      <trkpt lat="46.014032503589988" lon="9.291703775525093">
        <ele>336.60000000000002</ele>
        <time>2015-05-24T07:47:22Z</time>
      </trkpt>
      <trkpt lat="46.014040969312191" lon="9.291584501042962">
        <ele>337.07999999999998</ele>
        <time>2015-05-24T07:47:31Z</time>
      </trkpt>
      <trkpt lat="46.014041136950254" lon="9.291479475796223">
        <ele>337.07999999999998</ele>
        <time>2015-05-24T07:47:39Z</time>
      </trkpt>
      <trkpt lat="46.014058571308851" lon="9.291327176615596">
        <ele>337.56</ele>
        <time>2015-05-24T07:47:50Z</time>
      </trkpt>
      <trkpt lat="46.014087488874793" lon="9.291208991780877">
        <ele>339</ele>
        <time>2015-05-24T07:48:01Z</time>
      </trkpt>
      <trkpt lat="46.014114813879132" lon="9.291100027039647">
        <ele>340.44</ele>
        <time>2015-05-24T07:48:12Z</time>
      </trkpt>
      <trkpt lat="46.014137947931886" lon="9.291032804176211">
        <ele>340.92000000000002</ele>
        <time>2015-05-24T07:48:22Z</time>
      </trkpt>
      <trkpt lat="46.014157393947244" lon="9.291008580476046">
        <ele>340.92000000000002</ele>
        <time>2015-05-24T07:48:25Z</time>
      </trkpt>
      <trkpt lat="46.014176337048411" lon="9.29096968844533">
        <ele>341.41000000000003</ele>
        <time>2015-05-24T07:48:28Z</time>
      </trkpt>
      <trkpt lat="46.014221347868443" lon="9.290882516652346">
        <ele>341.88999999999999</ele>
        <time>2015-05-24T07:48:36Z</time>
      </trkpt>
      <trkpt lat="46.014283206313848" lon="9.290774306282401">
        <ele>342.37</ele>
        <time>2015-05-24T07:48:47Z</time>
      </trkpt>
      <trkpt lat="46.014322265982628" lon="9.290706748142839">
        <ele>342.37</ele>
        <time>2015-05-24T07:48:54Z</time>
      </trkpt>
      <trkpt lat="46.014416143298149" lon="9.290624186396599">
        <ele>343.81</ele>
        <time>2015-05-24T07:49:07Z</time>
      </trkpt>
      <trkpt lat="46.014461489394307" lon="9.290580516681075">
        <ele>344.29000000000002</ele>
        <time>2015-05-24T07:49:14Z</time>
      </trkpt>
      <trkpt lat="46.01446844637394" lon="9.290573978796601">
        <ele>344.29000000000002</ele>
        <time>2015-05-24T07:49:15Z</time>
      </trkpt>
      <trkpt lat="46.014568526297808" lon="9.290523855015636">
        <ele>345.25</ele>
        <time>2015-05-24T07:49:27Z</time>
      </trkpt>
      <trkpt lat="46.014655698090792" lon="9.29050600156188">
        <ele>345.25</ele>
        <time>2015-05-24T07:49:35Z</time>
      </trkpt>
      <trkpt lat="46.014700122177601" lon="9.290459314361215">
        <ele>345.73000000000002</ele>
        <time>2015-05-24T07:49:41Z</time>
      </trkpt>
      <trkpt lat="46.01474697701633" lon="9.290314391255379">
        <ele>346.69</ele>
        <time>2015-05-24T07:49:53Z</time>
      </trkpt>
      <trkpt lat="46.014828952029347" lon="9.290238618850708">
        <ele>347.64999999999998</ele>
        <time>2015-05-24T07:50:04Z</time>
      </trkpt>
      <trkpt lat="46.014893744140863" lon="9.290221268311143">
        <ele>348.62</ele>
        <time>2015-05-24T07:50:11Z</time>
      </trkpt>
      <trkpt lat="46.014945795759559" lon="9.290191680192947">
        <ele>348.62</ele>
        <time>2015-05-24T07:50:17Z</time>
      </trkpt>
      <trkpt lat="46.015057945623994" lon="9.290152033790946">
        <ele>349.57999999999998</ele>
        <time>2015-05-24T07:50:28Z</time>
      </trkpt>
      <trkpt lat="46.015067920088768" lon="9.290151279419661">
        <ele>349.57999999999998</ele>
        <time>2015-05-24T07:50:29Z</time>
      </trkpt>
      <trkpt lat="46.015180824324489" lon="9.290118254721165">
        <ele>349.57999999999998</ele>
        <time>2015-05-24T07:50:40Z</time>
      </trkpt>
      <trkpt lat="46.015245029702783" lon="9.290155386552215">
        <ele>349.57999999999998</ele>
        <time>2015-05-24T07:50:47Z</time>
      </trkpt>
      <trkpt lat="46.01529817096889" lon="9.290319001302123">
        <ele>349.10000000000002</ele>
        <time>2015-05-24T07:50:58Z</time>
      </trkpt>
      <trkpt lat="46.015314431861043" lon="9.290440957993269">
        <ele>349.57999999999998</ele>
        <time>2015-05-24T07:51:09Z</time>
      </trkpt>
      <trkpt lat="46.015324322506785" lon="9.290516478940845">
        <ele>350.54000000000002</ele>
        <time>2015-05-24T07:51:17Z</time>
      </trkpt>
      <trkpt lat="46.015368159860373" lon="9.290655618533492">
        <ele>351.98000000000002</ele>
        <time>2015-05-24T07:51:28Z</time>
      </trkpt>
      <trkpt lat="46.015349384397268" lon="9.29078352637589">
        <ele>353.42000000000002</ele>
        <time>2015-05-24T07:51:39Z</time>
      </trkpt>
      <trkpt lat="46.015388108789921" lon="9.290879331529141">
        <ele>353.89999999999998</ele>
        <time>2015-05-24T07:51:46Z</time>
      </trkpt>
      <trkpt lat="46.015466982498765" lon="9.290925683453679">
        <ele>354.38</ele>
        <time>2015-05-24T07:51:58Z</time>
      </trkpt>
      <trkpt lat="46.015528589487076" lon="9.290947141125798">
        <ele>354.86000000000001</ele>
        <time>2015-05-24T07:52:09Z</time>
      </trkpt>
      <trkpt lat="46.015640068799257" lon="9.290997348725796">
        <ele>355.33999999999997</ele>
        <time>2015-05-24T07:52:23Z</time>
      </trkpt>
      <trkpt lat="46.015749704092741" lon="9.290977735072374">
        <ele>356.31</ele>
        <time>2015-05-24T07:52:38Z</time>
      </trkpt>
      <trkpt lat="46.015809886157513" lon="9.290952924638987">
        <ele>357.75</ele>
        <time>2015-05-24T07:52:45Z</time>
      </trkpt>
      <trkpt lat="46.015893034636974" lon="9.290941441431642">
        <ele>358.23000000000002</ele>
        <time>2015-05-24T07:52:53Z</time>
      </trkpt>
      <trkpt lat="46.016006441786885" lon="9.290831219404936">
        <ele>360.14999999999998</ele>
        <time>2015-05-24T07:53:08Z</time>
      </trkpt>
      <trkpt lat="46.01610048674047" lon="9.290721332654357">
        <ele>361.11000000000001</ele>
        <time>2015-05-24T07:53:21Z</time>
      </trkpt>
      <trkpt lat="46.016107276082039" lon="9.290716722607613">
        <ele>361.11000000000001</ele>
        <time>2015-05-24T07:53:22Z</time>
      </trkpt>
      <trkpt lat="46.016178438439965" lon="9.290644386783242">
        <ele>361.11000000000001</ele>
        <time>2015-05-24T07:53:31Z</time>
      </trkpt>
      <trkpt lat="46.016235016286373" lon="9.290600633248687">
        <ele>361.58999999999997</ele>
        <time>2015-05-24T07:53:38Z</time>
      </trkpt>
      <trkpt lat="46.016310956329107" lon="9.290631730109453">
        <ele>362.06999999999999</ele>
        <time>2015-05-24T07:53:45Z</time>
      </trkpt>
      <trkpt lat="46.016374658793211" lon="9.290576493367553">
        <ele>363.04000000000002</ele>
        <time>2015-05-24T07:53:53Z</time>
      </trkpt>
      <trkpt lat="46.016450431197882" lon="9.29051480256021">
        <ele>363.51999999999998</ele>
        <time>2015-05-24T07:54:03Z</time>
      </trkpt>
      <trkpt lat="46.016505165025592" lon="9.290456045418978">
        <ele>365.92000000000002</ele>
        <time>2015-05-24T07:54:12Z</time>
      </trkpt>
      <trkpt lat="46.016577165573835" lon="9.290387313812971">
        <ele>365.44</ele>
        <time>2015-05-24T07:54:21Z</time>
      </trkpt>
      <trkpt lat="46.016642292961478" lon="9.290315983816981">
        <ele>366.39999999999998</ele>
        <time>2015-05-24T07:54:30Z</time>
      </trkpt>
      <trkpt lat="46.016720663756132" lon="9.290311876684427">
        <ele>368.80000000000001</ele>
        <time>2015-05-24T07:54:41Z</time>
      </trkpt>
      <trkpt lat="46.016762908548117" lon="9.290277594700456">
        <ele>368.80000000000001</ele>
        <time>2015-05-24T07:54:48Z</time>
      </trkpt>
      <trkpt lat="46.016844632104039" lon="9.290221016854048">
        <ele>370.24000000000001</ele>
        <time>2015-05-24T07:54:59Z</time>
      </trkpt>
      <trkpt lat="46.016867849975824" lon="9.290210790932179">
        <ele>370.73000000000002</ele>
        <time>2015-05-24T07:55:02Z</time>
      </trkpt>
      <trkpt lat="46.016953513026237" lon="9.290177179500461">
        <ele>372.64999999999998</ele>
        <time>2015-05-24T07:55:13Z</time>
      </trkpt>
      <trkpt lat="46.017042780295014" lon="9.290185980498791">
        <ele>374.08999999999997</ele>
        <time>2015-05-24T07:55:24Z</time>
      </trkpt>
      <trkpt lat="46.01713347248733" lon="9.29016251116991">
        <ele>375.52999999999997</ele>
        <time>2015-05-24T07:55:35Z</time>
      </trkpt>
      <trkpt lat="46.017205640673637" lon="9.290138371288776">
        <ele>376.97000000000003</ele>
        <time>2015-05-24T07:55:45Z</time>
      </trkpt>
      <trkpt lat="46.017266577109694" lon="9.290155386552215">
        <ele>378.42000000000002</ele>
        <time>2015-05-24T07:55:56Z</time>
      </trkpt>
      <trkpt lat="46.017336901277304" lon="9.290247587487102">
        <ele>380.81999999999999</ele>
        <time>2015-05-24T07:56:09Z</time>
      </trkpt>
      <trkpt lat="46.01738216355443" lon="9.290290670469403">
        <ele>382.25999999999999</ele>
        <time>2015-05-24T07:56:17Z</time>
      </trkpt>
      <trkpt lat="46.01740512996912" lon="9.290297543630004">
        <ele>382.25999999999999</ele>
        <time>2015-05-24T07:56:20Z</time>
      </trkpt>
      <trkpt lat="46.017503282055259" lon="9.290297459810972">
        <ele>382.74000000000001</ele>
        <time>2015-05-24T07:56:31Z</time>
      </trkpt>
      <trkpt lat="46.017602020874619" lon="9.290307853370905">
        <ele>383.22000000000003</ele>
        <time>2015-05-24T07:56:42Z</time>
      </trkpt>
      <trkpt lat="46.017683492973447" lon="9.290325455367565">
        <ele>383.69999999999999</ele>
        <time>2015-05-24T07:56:53Z</time>
      </trkpt>
      <trkpt lat="46.017767312005162" lon="9.290294107049704">
        <ele>384.66000000000003</ele>
        <time>2015-05-24T07:57:03Z</time>
      </trkpt>
      <trkpt lat="46.017808550968766" lon="9.290296621620655">
        <ele>385.14999999999998</ele>
        <time>2015-05-24T07:57:08Z</time>
      </trkpt>
      <trkpt lat="46.017915420234203" lon="9.290337190032005">
        <ele>387.06999999999999</ele>
        <time>2015-05-24T07:57:23Z</time>
      </trkpt>
      <trkpt lat="46.018014159053564" lon="9.290346661582589">
        <ele>388.50999999999999</ele>
        <time>2015-05-24T07:57:35Z</time>
      </trkpt>
      <trkpt lat="46.018102671951056" lon="9.290332831442356">
        <ele>387.06999999999999</ele>
        <time>2015-05-24T07:57:46Z</time>
      </trkpt>
      <trkpt lat="46.018204092979431" lon="9.290332077071071">
        <ele>386.58999999999997</ele>
        <time>2015-05-24T07:57:57Z</time>
      </trkpt>
      <trkpt lat="46.018299143761396" lon="9.290343308821321">
        <ele>386.11000000000001</ele>
        <time>2015-05-24T07:58:07Z</time>
      </trkpt>
      <trkpt lat="46.018409784883261" lon="9.290376333519816">
        <ele>384.66000000000003</ele>
        <time>2015-05-24T07:58:19Z</time>
      </trkpt>
      <trkpt lat="46.018455801531672" lon="9.290358647704125">
        <ele>384.66000000000003</ele>
        <time>2015-05-24T07:58:25Z</time>
      </trkpt>
      <trkpt lat="46.018544398248196" lon="9.290295280516148">
        <ele>383.22000000000003</ele>
        <time>2015-05-24T07:58:36Z</time>
      </trkpt>
      <trkpt lat="46.018602317199111" lon="9.290234344080091">
        <ele>382.74000000000001</ele>
        <time>2015-05-24T07:58:45Z</time>
      </trkpt>
      <trkpt lat="46.018680520355701" lon="9.290150525048375">
        <ele>381.77999999999997</ele>
        <time>2015-05-24T07:58:55Z</time>
      </trkpt>
      <trkpt lat="46.018765093758702" lon="9.290078775957227">
        <ele>381.30000000000001</ele>
        <time>2015-05-24T07:59:06Z</time>
      </trkpt>
      <trkpt lat="46.01882410235703" lon="9.289983389899135">
        <ele>380.81999999999999</ele>
        <time>2015-05-24T07:59:17Z</time>
      </trkpt>
      <trkpt lat="46.01889937184751" lon="9.289874006062746">
        <ele>380.33999999999997</ele>
        <time>2015-05-24T07:59:29Z</time>
      </trkpt>
      <trkpt lat="46.018975982442498" lon="9.28978038020432">
        <ele>379.38</ele>
        <time>2015-05-24T07:59:39Z</time>
      </trkpt>
      <trkpt lat="46.019022250548005" lon="9.289748528972268">
        <ele>379.86000000000001</ele>
        <time>2015-05-24T07:59:44Z</time>
      </trkpt>
      <trkpt lat="46.019043456763029" lon="9.289725394919515">
        <ele>379.86000000000001</ele>
        <time>2015-05-24T07:59:46Z</time>
      </trkpt>
      <trkpt lat="46.019141860306263" lon="9.289673510938883">
        <ele>380.81999999999999</ele>
        <time>2015-05-24T07:59:57Z</time>
      </trkpt>
      <trkpt lat="46.019217213615775" lon="9.28961475379765">
        <ele>381.77999999999997</ele>
        <time>2015-05-24T08:00:07Z</time>
      </trkpt>
      <trkpt lat="46.019298434257507" lon="9.28958005271852">
        <ele>382.74000000000001</ele>
        <time>2015-05-24T08:00:18Z</time>
      </trkpt>
      <trkpt lat="46.019406309351325" lon="9.289549961686134">
        <ele>381.77999999999997</ele>
        <time>2015-05-24T08:00:29Z</time>
      </trkpt>
      <trkpt lat="46.019446961581707" lon="9.289532778784633">
        <ele>383.22000000000003</ele>
        <time>2015-05-24T08:00:33Z</time>
      </trkpt>
      <trkpt lat="46.019493397325277" lon="9.289546106010675">
        <ele>384.18000000000001</ele>
        <time>2015-05-24T08:00:42Z</time>
      </trkpt>
      <trkpt lat="46.019551148638129" lon="9.289498664438725">
        <ele>384.66000000000003</ele>
        <time>2015-05-24T08:00:53Z</time>
      </trkpt>
      <trkpt lat="46.019610073417425" lon="9.289449127390981">
        <ele>385.63</ele>
        <time>2015-05-24T08:01:03Z</time>
      </trkpt>
      <trkpt lat="46.019654497504234" lon="9.28940755315125">
        <ele>386.58999999999997</ele>
        <time>2015-05-24T08:01:11Z</time>
      </trkpt>
      <trkpt lat="46.01971828378737" lon="9.289360279217362">
        <ele>387.06999999999999</ele>
        <time>2015-05-24T08:01:20Z</time>
      </trkpt>
      <trkpt lat="46.019809730350971" lon="9.289329936727881">
        <ele>388.50999999999999</ele>
        <time>2015-05-24T08:01:31Z</time>
      </trkpt>
      <trkpt lat="46.019817609339952" lon="9.289331613108516">
        <ele>388.50999999999999</ele>
        <time>2015-05-24T08:01:32Z</time>
      </trkpt>
      <trkpt lat="46.019882149994373" lon="9.289469411596656">
        <ele>389.94999999999999</ele>
        <time>2015-05-24T08:01:45Z</time>
      </trkpt>
      <trkpt lat="46.019880641251802" lon="9.289568904787302">
        <ele>390.43000000000001</ele>
        <time>2015-05-24T08:01:49Z</time>
      </trkpt>
      <trkpt lat="46.019841246306896" lon="9.289711816236377">
        <ele>391.38999999999999</ele>
        <time>2015-05-24T08:02:00Z</time>
      </trkpt>
      <trkpt lat="46.019843174144626" lon="9.289799239486456">
        <ele>392.36000000000001</ele>
        <time>2015-05-24T08:02:09Z</time>
      </trkpt>
      <trkpt lat="46.019926071166992" lon="9.289822624996305">
        <ele>392.83999999999997</ele>
        <time>2015-05-24T08:02:20Z</time>
      </trkpt>
      <trkpt lat="46.019992036744952" lon="9.289758503437042">
        <ele>393.80000000000001</ele>
        <time>2015-05-24T08:02:31Z</time>
      </trkpt>
      <trkpt lat="46.020001592114568" lon="9.289734531193972">
        <ele>394.27999999999997</ele>
        <time>2015-05-24T08:02:33Z</time>
      </trkpt>
      <trkpt lat="46.020056074485183" lon="9.289618358016014">
        <ele>394.75999999999999</ele>
        <time>2015-05-24T08:02:43Z</time>
      </trkpt>
      <trkpt lat="46.020082728937268" lon="9.289545770734549">
        <ele>395.72000000000003</ele>
        <time>2015-05-24T08:02:50Z</time>
      </trkpt>
      <trkpt lat="46.020118519663811" lon="9.289390202611685">
        <ele>396.68000000000001</ele>
        <time>2015-05-24T08:03:00Z</time>
      </trkpt>
      <trkpt lat="46.020159004256129" lon="9.289259361103177">
        <ele>397.63999999999999</ele>
        <time>2015-05-24T08:03:10Z</time>
      </trkpt>
      <trkpt lat="46.020215330645442" lon="9.289148384705186">
        <ele>398.60000000000002</ele>
        <time>2015-05-24T08:03:19Z</time>
      </trkpt>
      <trkpt lat="46.020231004804373" lon="9.28913488984108">
        <ele>399.56999999999999</ele>
        <time>2015-05-24T08:03:22Z</time>
      </trkpt>
      <trkpt lat="46.020303340628743" lon="9.289042437449098">
        <ele>400.52999999999997</ele>
        <time>2015-05-24T08:03:32Z</time>
      </trkpt>
      <trkpt lat="46.020314823836088" lon="9.289036653935909">
        <ele>400.52999999999997</ele>
        <time>2015-05-24T08:03:33Z</time>
      </trkpt>
      <trkpt lat="46.02032957598567" lon="9.289016118273139">
        <ele>401.00999999999999</ele>
        <time>2015-05-24T08:03:35Z</time>
      </trkpt>
      <trkpt lat="46.020462680608034" lon="9.289042688906193">
        <ele>401.00999999999999</ele>
        <time>2015-05-24T08:03:46Z</time>
      </trkpt>
      <trkpt lat="46.02051087655127" lon="9.289084346964955">
        <ele>401.49000000000001</ele>
        <time>2015-05-24T08:03:53Z</time>
      </trkpt>
      <trkpt lat="46.020701564848423" lon="9.289102451875806">
        <ele>401.97000000000003</ele>
        <time>2015-05-24T08:04:10Z</time>
      </trkpt>
      <trkpt lat="46.020770967006683" lon="9.289121311157942">
        <ele>401.97000000000003</ele>
        <time>2015-05-24T08:04:17Z</time>
      </trkpt>
      <trkpt lat="46.020790161564946" lon="9.289126843214035">
        <ele>401.97000000000003</ele>
        <time>2015-05-24T08:04:19Z</time>
      </trkpt>
      <trkpt lat="46.02091496810317" lon="9.289130447432399">
        <ele>402.93000000000001</ele>
        <time>2015-05-24T08:04:32Z</time>
      </trkpt>
      <trkpt lat="46.021013706922531" lon="9.289155090227723">
        <ele>403.41000000000003</ele>
        <time>2015-05-24T08:04:42Z</time>
      </trkpt>
      <trkpt lat="46.021138681098819" lon="9.289178475737572">
        <ele>403.88999999999999</ele>
        <time>2015-05-24T08:04:54Z</time>
      </trkpt>
      <trkpt lat="46.021242197602987" lon="9.289203202351928">
        <ele>404.37</ele>
        <time>2015-05-24T08:05:05Z</time>
      </trkpt>
      <trkpt lat="46.021374799311161" lon="9.2892150208354">
        <ele>405.32999999999998</ele>
        <time>2015-05-24T08:05:19Z</time>
      </trkpt>
      <trkpt lat="46.021493738517165" lon="9.289221558719873">
        <ele>405.81</ele>
        <time>2015-05-24T08:05:32Z</time>
      </trkpt>
      <trkpt lat="46.021619969978929" lon="9.289234131574631">
        <ele>407.25999999999999</ele>
        <time>2015-05-24T08:05:46Z</time>
      </trkpt>
      <trkpt lat="46.021739160642028" lon="9.289274867624044">
        <ele>408.69999999999999</ele>
        <time>2015-05-24T08:05:59Z</time>
      </trkpt>
      <trkpt lat="46.021870840340853" lon="9.289281740784645">
        <ele>410.13999999999999</ele>
        <time>2015-05-24T08:06:13Z</time>
      </trkpt>
      <trkpt lat="46.021986175328493" lon="9.289307137951255">
        <ele>411.10000000000002</ele>
        <time>2015-05-24T08:06:26Z</time>
      </trkpt>
      <trkpt lat="46.022119615226984" lon="9.289333624765277">
        <ele>412.06</ele>
        <time>2015-05-24T08:06:40Z</time>
      </trkpt>
      <trkpt lat="46.022232687100768" lon="9.289374276995659">
        <ele>413.98000000000002</ele>
        <time>2015-05-24T08:06:54Z</time>
      </trkpt>
      <trkpt lat="46.022353721782565" lon="9.289414426311851">
        <ele>414.47000000000003</ele>
        <time>2015-05-24T08:07:07Z</time>
      </trkpt>
      <trkpt lat="46.022380795329809" lon="9.289423897862434">
        <ele>414.94999999999999</ele>
        <time>2015-05-24T08:07:10Z</time>
      </trkpt>
      <trkpt lat="46.02245463989675" lon="9.289429765194655">
        <ele>415.43000000000001</ele>
        <time>2015-05-24T08:07:18Z</time>
      </trkpt>
      <trkpt lat="46.022550277411938" lon="9.28947301581502">
        <ele>415.91000000000003</ele>
        <time>2015-05-24T08:07:28Z</time>
      </trkpt>
      <trkpt lat="46.022666953504086" lon="9.289510734379292">
        <ele>416.38999999999999</ele>
        <time>2015-05-24T08:07:39Z</time>
      </trkpt>
      <trkpt lat="46.022759489715099" lon="9.289545435458422">
        <ele>417.35000000000002</ele>
        <time>2015-05-24T08:07:49Z</time>
      </trkpt>
      <trkpt lat="46.022829059511423" lon="9.28954241797328">
        <ele>418.31</ele>
        <time>2015-05-24T08:07:57Z</time>
      </trkpt>
      <trkpt lat="46.022853283211589" lon="9.289537975564599">
        <ele>418.31</ele>
        <time>2015-05-24T08:08:00Z</time>
      </trkpt>
      <trkpt lat="46.022977419197559" lon="9.289526995271444">
        <ele>419.75</ele>
        <time>2015-05-24T08:08:13Z</time>
      </trkpt>
      <trkpt lat="46.02307322435081" lon="9.289533030241728">
        <ele>420.23000000000002</ele>
        <time>2015-05-24T08:08:24Z</time>
      </trkpt>
      <trkpt lat="46.023087222129107" lon="9.289541747421026">
        <ele>420.70999999999998</ele>
        <time>2015-05-24T08:08:26Z</time>
      </trkpt>
      <trkpt lat="46.023183027282357" lon="9.289606958627701">
        <ele>420.23000000000002</ele>
        <time>2015-05-24T08:08:35Z</time>
      </trkpt>
      <trkpt lat="46.023312611505389" lon="9.28967728279531">
        <ele>419.75</ele>
        <time>2015-05-24T08:08:47Z</time>
      </trkpt>
      <trkpt lat="46.023450074717402" lon="9.289697399362922">
        <ele>419.75</ele>
        <time>2015-05-24T08:09:00Z</time>
      </trkpt>
      <trkpt lat="46.023586699739099" lon="9.289709301665425">
        <ele>418.79000000000002</ele>
        <time>2015-05-24T08:09:13Z</time>
      </trkpt>
      <trkpt lat="46.0237006098032" lon="9.289760263636708">
        <ele>418.31</ele>
        <time>2015-05-24T08:09:24Z</time>
      </trkpt>
      <trkpt lat="46.02371184155345" lon="9.289750624448061">
        <ele>417.82999999999998</ele>
        <time>2015-05-24T08:09:33Z</time>
      </trkpt>
      <trkpt lat="46.023718798533082" lon="9.289751881733537">
        <ele>417.82999999999998</ele>
        <time>2015-05-24T08:09:53Z</time>
      </trkpt>
      <trkpt lat="46.023784596472979" lon="9.289790187031031">
        <ele>417.82999999999998</ele>
        <time>2015-05-24T08:09:59Z</time>
      </trkpt>
      <trkpt lat="46.023852489888668" lon="9.289823127910495">
        <ele>417.82999999999998</ele>
        <time>2015-05-24T08:10:11Z</time>
      </trkpt>
      <trkpt lat="46.023792391642928" lon="9.289808040484786">
        <ele>417.35000000000002</ele>
        <time>2015-05-24T08:10:18Z</time>
      </trkpt>
      <trkpt lat="46.023806724697351" lon="9.289796138182282">
        <ele>417.35000000000002</ele>
        <time>2015-05-24T08:10:30Z</time>
      </trkpt>
      <trkpt lat="46.023815022781491" lon="9.289807202294469">
        <ele>417.35000000000002</ele>
        <time>2015-05-24T08:10:40Z</time>
      </trkpt>
      <trkpt lat="46.023816950619221" lon="9.289824888110161">
        <ele>417.35000000000002</ele>
        <time>2015-05-24T08:11:02Z</time>
      </trkpt>
      <trkpt lat="46.023815777152777" lon="9.289836203679442">
        <ele>417.35000000000002</ele>
        <time>2015-05-24T08:11:19Z</time>
      </trkpt>
      <trkpt lat="46.023818459361792" lon="9.289813153445721">
        <ele>417.35000000000002</ele>
        <time>2015-05-24T08:11:33Z</time>
      </trkpt>
      <trkpt lat="46.023822315037251" lon="9.289819188416004">
        <ele>417.35000000000002</ele>
        <time>2015-05-24T08:11:48Z</time>
      </trkpt>
      <trkpt lat="46.023828182369471" lon="9.289828995242715">
        <ele>417.82999999999998</ele>
        <time>2015-05-24T08:12:03Z</time>
      </trkpt>
      <trkpt lat="46.023820890113711" lon="9.289821116253734">
        <ele>417.35000000000002</ele>
        <time>2015-05-24T08:12:13Z</time>
      </trkpt>
      <trkpt lat="46.023809323087335" lon="9.289798149839044">
        <ele>417.82999999999998</ele>
        <time>2015-05-24T08:12:29Z</time>
      </trkpt>
      <trkpt lat="46.023806137964129" lon="9.28979798220098">
        <ele>417.82999999999998</ele>
        <time>2015-05-24T08:12:42Z</time>
      </trkpt>
      <trkpt lat="46.023819884285331" lon="9.289796641096473">
        <ele>417.82999999999998</ele>
        <time>2015-05-24T08:12:57Z</time>
      </trkpt>
      <trkpt lat="46.023823823779821" lon="9.289793455973268">
        <ele>417.82999999999998</ele>
        <time>2015-05-24T08:13:08Z</time>
      </trkpt>
      <trkpt lat="46.023841761052608" lon="9.289780464023352">
        <ele>417.35000000000002</ele>
        <time>2015-05-24T08:13:21Z</time>
      </trkpt>
      <trkpt lat="46.023896997794509" lon="9.28975984454155">
        <ele>415.43000000000001</ele>
        <time>2015-05-24T08:13:28Z</time>
      </trkpt>
      <trkpt lat="46.024021804332733" lon="9.289777530357242">
        <ele>413.98000000000002</ele>
        <time>2015-05-24T08:13:40Z</time>
      </trkpt>
      <trkpt lat="46.02403094060719" lon="9.289775602519512">
        <ele>413.98000000000002</ele>
        <time>2015-05-24T08:13:41Z</time>
      </trkpt>
      <trkpt lat="46.024155579507351" lon="9.289644593372941">
        <ele>412.54000000000002</ele>
        <time>2015-05-24T08:13:55Z</time>
      </trkpt>
      <trkpt lat="46.024189693853259" lon="9.289462957531214">
        <ele>409.66000000000003</ele>
        <time>2015-05-24T08:14:07Z</time>
      </trkpt>
      <trkpt lat="46.024222886189818" lon="9.289333540946245">
        <ele>406.76999999999998</ele>
        <time>2015-05-24T08:14:20Z</time>
      </trkpt>
      <trkpt lat="46.024274937808514" lon="9.289258103817701">
        <ele>403.88999999999999</ele>
        <time>2015-05-24T08:14:30Z</time>
      </trkpt>
      <trkpt lat="46.024318439885974" lon="9.289175122976303">
        <ele>401.49000000000001</ele>
        <time>2015-05-24T08:14:41Z</time>
      </trkpt>
      <trkpt lat="46.024412401020527" lon="9.289265144616365">
        <ele>398.60000000000002</ele>
        <time>2015-05-24T08:14:53Z</time>
      </trkpt>
      <trkpt lat="46.02449756115675" lon="9.289372768253088">
        <ele>395.24000000000001</ele>
        <time>2015-05-24T08:15:06Z</time>
      </trkpt>
      <trkpt lat="46.024523628875613" lon="9.289475278928876">
        <ele>392.83999999999997</ele>
        <time>2015-05-24T08:15:19Z</time>
      </trkpt>
      <trkpt lat="46.024562101811171" lon="9.28959178738296">
        <ele>390.43000000000001</ele>
        <time>2015-05-24T08:15:30Z</time>
      </trkpt>
      <trkpt lat="46.02463049814105" lon="9.289650041610003">
        <ele>388.50999999999999</ele>
        <time>2015-05-24T08:15:41Z</time>
      </trkpt>
      <trkpt lat="46.024631084874272" lon="9.289699327200651">
        <ele>386.11000000000001</ele>
        <time>2015-05-24T08:15:51Z</time>
      </trkpt>
      <trkpt lat="46.024731667712331" lon="9.289629422128201">
        <ele>384.18000000000001</ele>
        <time>2015-05-24T08:16:04Z</time>
      </trkpt>
      <trkpt lat="46.024784222245216" lon="9.289546608924866">
        <ele>383.22000000000003</ele>
        <time>2015-05-24T08:16:13Z</time>
      </trkpt>
      <trkpt lat="46.024798387661576" lon="9.289363464340568">
        <ele>380.33999999999997</ele>
        <time>2015-05-24T08:16:26Z</time>
      </trkpt>
      <trkpt lat="46.02476678788662" lon="9.28926975466311">
        <ele>377.94</ele>
        <time>2015-05-24T08:16:36Z</time>
      </trkpt>
      <trkpt lat="46.024807021021843" lon="9.289276711642742">
        <ele>376.49000000000001</ele>
        <time>2015-05-24T08:16:49Z</time>
      </trkpt>
      <trkpt lat="46.024883463978767" lon="9.289277801290155">
        <ele>373.61000000000001</ele>
        <time>2015-05-24T08:17:00Z</time>
      </trkpt>
      <trkpt lat="46.024941047653556" lon="9.289269838482142">
        <ele>371.20999999999998</ele>
        <time>2015-05-24T08:17:08Z</time>
      </trkpt>
      <trkpt lat="46.025064429268241" lon="9.289309401065111">
        <ele>367.83999999999997</ele>
        <time>2015-05-24T08:17:23Z</time>
      </trkpt>
      <trkpt lat="46.025120252743363" lon="9.289287691935897">
        <ele>366.39999999999998</ele>
        <time>2015-05-24T08:17:36Z</time>
      </trkpt>
      <trkpt lat="46.025141626596451" lon="9.289379809051752">
        <ele>365.44</ele>
        <time>2015-05-24T08:17:46Z</time>
      </trkpt>
      <trkpt lat="46.025144308805466" lon="9.289396572858095">
        <ele>365.44</ele>
        <time>2015-05-24T08:17:47Z</time>
      </trkpt>
      <trkpt lat="46.025151601061225" lon="9.289432447403669">
        <ele>365.92000000000002</ele>
        <time>2015-05-24T08:17:49Z</time>
      </trkpt>
      <trkpt lat="46.025145314633846" lon="9.289529761299491">
        <ele>365.44</ele>
        <time>2015-05-24T08:18:01Z</time>
      </trkpt>
      <trkpt lat="46.025171801447868" lon="9.289572844281793">
        <ele>365.92000000000002</ele>
        <time>2015-05-24T08:18:05Z</time>
      </trkpt>
      <trkpt lat="46.025168700143695" lon="9.289599666371942">
        <ele>365.92000000000002</ele>
        <time>2015-05-24T08:18:15Z</time>
      </trkpt>
      <trkpt lat="46.025164425373077" lon="9.2896000854671">
        <ele>365.92000000000002</ele>
        <time>2015-05-24T08:18:20Z</time>
      </trkpt>
      <trkpt lat="46.025267271324992" lon="9.289575945585966">
        <ele>365.44</ele>
        <time>2015-05-24T08:18:32Z</time>
      </trkpt>
      <trkpt lat="46.025267103686929" lon="9.289574101567268">
        <ele>365.44</ele>
        <time>2015-05-24T08:18:36Z</time>
      </trkpt>
      <trkpt lat="46.025298284366727" lon="9.28941585123539">
        <ele>364</ele>
        <time>2015-05-24T08:18:48Z</time>
      </trkpt>
      <trkpt lat="46.025291159749031" lon="9.28940168581903">
        <ele>364</ele>
        <time>2015-05-24T08:18:49Z</time>
      </trkpt>
      <trkpt lat="46.025266349315643" lon="9.28932792507112">
        <ele>364.48000000000002</ele>
        <time>2015-05-24T08:18:59Z</time>
      </trkpt>
      <trkpt lat="46.025261487811804" lon="9.289379557594657">
        <ele>364</ele>
        <time>2015-05-24T08:19:16Z</time>
      </trkpt>
      <trkpt lat="46.025268277153373" lon="9.289390034973621">
        <ele>364.48000000000002</ele>
        <time>2015-05-24T08:19:17Z</time>
      </trkpt>
      <trkpt lat="46.025294680148363" lon="9.289510231465101">
        <ele>364.48000000000002</ele>
        <time>2015-05-24T08:19:28Z</time>
      </trkpt>
      <trkpt lat="46.025289231911302" lon="9.289549039676786">
        <ele>364.48000000000002</ele>
        <time>2015-05-24T08:19:31Z</time>
      </trkpt>
      <trkpt lat="46.025236425921321" lon="9.289633193984628">
        <ele>365.44</ele>
        <time>2015-05-24T08:19:42Z</time>
      </trkpt>
      <trkpt lat="46.025231145322323" lon="9.289648700505495">
        <ele>365.44</ele>
        <time>2015-05-24T08:19:49Z</time>
      </trkpt>
      <trkpt lat="46.025214213877916" lon="9.289692034944892">
        <ele>365.44</ele>
        <time>2015-05-24T08:19:54Z</time>
      </trkpt>
      <trkpt lat="46.025180770084262" lon="9.289665380492806">
        <ele>365.44</ele>
        <time>2015-05-24T08:20:05Z</time>
      </trkpt>
      <trkpt lat="46.0252236854285" lon="9.289732854813337">
        <ele>365.44</ele>
        <time>2015-05-24T08:20:17Z</time>
      </trkpt>
      <trkpt lat="46.025265343487263" lon="9.289806950837374">
        <ele>364.95999999999998</ele>
        <time>2015-05-24T08:20:26Z</time>
      </trkpt>
      <trkpt lat="46.025261823087931" lon="9.289821367710829">
        <ele>364.95999999999998</ele>
        <time>2015-05-24T08:20:36Z</time>
      </trkpt>
      <trkpt lat="46.025296105071902" lon="9.28982388228178">
        <ele>364.95999999999998</ele>
        <time>2015-05-24T08:20:51Z</time>
      </trkpt>
      <trkpt lat="46.025267019867897" lon="9.289716929197311">
        <ele>364.95999999999998</ele>
        <time>2015-05-24T08:21:01Z</time>
      </trkpt>
      <trkpt lat="46.025270875543356" lon="9.289736291393638">
        <ele>364.95999999999998</ele>
        <time>2015-05-24T08:21:19Z</time>
      </trkpt>
      <trkpt lat="46.025289567187428" lon="9.289790941402316">
        <ele>364.95999999999998</ele>
        <time>2015-05-24T08:21:29Z</time>
      </trkpt>
      <trkpt lat="46.025281017646194" lon="9.28980577737093">
        <ele>364.95999999999998</ele>
        <time>2015-05-24T08:21:32Z</time>
      </trkpt>
      <trkpt lat="46.025244472548366" lon="9.289827821776271">
        <ele>364.95999999999998</ele>
        <time>2015-05-24T08:21:41Z</time>
      </trkpt>
      <trkpt lat="46.025265092030168" lon="9.289838466793299">
        <ele>364.95999999999998</ele>
        <time>2015-05-24T08:21:50Z</time>
      </trkpt>
      <trkpt lat="46.025246735662222" lon="9.289875850081444">
        <ele>364.95999999999998</ele>
        <time>2015-05-24T08:22:02Z</time>
      </trkpt>
      <trkpt lat="46.025236845016479" lon="9.289899906143546">
        <ele>364.95999999999998</ele>
        <time>2015-05-24T08:22:04Z</time>
      </trkpt>
      <trkpt lat="46.025204909965396" lon="9.290026221424341">
        <ele>364.95999999999998</ele>
        <time>2015-05-24T08:22:16Z</time>
      </trkpt>
      <trkpt lat="46.025195103138685" lon="9.290048768743873">
        <ele>364.95999999999998</ele>
        <time>2015-05-24T08:22:25Z</time>
      </trkpt>
      <trkpt lat="46.025151098147035" lon="9.290017252787948">
        <ele>365.44</ele>
        <time>2015-05-24T08:22:36Z</time>
      </trkpt>
      <trkpt lat="46.025196108967066" lon="9.290065616369247">
        <ele>364.95999999999998</ele>
        <time>2015-05-24T08:22:46Z</time>
      </trkpt>
      <trkpt lat="46.025186134502292" lon="9.2901043407619">
        <ele>364.95999999999998</ele>
        <time>2015-05-24T08:22:54Z</time>
      </trkpt>
      <trkpt lat="46.025157133117318" lon="9.290048852562904">
        <ele>364.95999999999998</ele>
        <time>2015-05-24T08:22:59Z</time>
      </trkpt>
      <trkpt lat="46.025113044306636" lon="9.290048098191619">
        <ele>365.44</ele>
        <time>2015-05-24T08:23:08Z</time>
      </trkpt>
      <trkpt lat="46.025144727900624" lon="9.290044661611319">
        <ele>364.95999999999998</ele>
        <time>2015-05-24T08:23:20Z</time>
      </trkpt>
      <trkpt lat="46.025152020156384" lon="9.290016749873757">
        <ele>364.95999999999998</ele>
        <time>2015-05-24T08:23:35Z</time>
      </trkpt>
      <trkpt lat="46.025196108967066" lon="9.289998728781939">
        <ele>364.95999999999998</ele>
        <time>2015-05-24T08:23:45Z</time>
      </trkpt>
      <trkpt lat="46.025198539718986" lon="9.289989676326513">
        <ele>364.95999999999998</ele>
        <time>2015-05-24T08:23:59Z</time>
      </trkpt>
      <trkpt lat="46.025189068168402" lon="9.289984311908484">
        <ele>364.95999999999998</ele>
        <time>2015-05-24T08:24:11Z</time>
      </trkpt>
      <trkpt lat="46.025204826146364" lon="9.289912981912494">
        <ele>365.44</ele>
        <time>2015-05-24T08:24:26Z</time>
      </trkpt>
      <trkpt lat="46.025215890258551" lon="9.289894960820675">
        <ele>364.95999999999998</ele>
        <time>2015-05-24T08:24:28Z</time>
      </trkpt>
      <trkpt lat="46.025276575237513" lon="9.289928153157234">
        <ele>364.95999999999998</ele>
        <time>2015-05-24T08:24:36Z</time>
      </trkpt>
      <trkpt lat="46.02526031434536" lon="9.289926141500473">
        <ele>365.44</ele>
        <time>2015-05-24T08:24:45Z</time>
      </trkpt>
      <trkpt lat="46.025252267718315" lon="9.289918933063746">
        <ele>365.44</ele>
        <time>2015-05-24T08:24:57Z</time>
      </trkpt>
      <trkpt lat="46.025266516953707" lon="9.289908623322845">
        <ele>364.95999999999998</ele>
        <time>2015-05-24T08:25:11Z</time>
      </trkpt>
      <trkpt lat="46.025294763967395" lon="9.289798652753234">
        <ele>364.95999999999998</ele>
        <time>2015-05-24T08:25:23Z</time>
      </trkpt>
      <trkpt lat="46.025308426469564" lon="9.289784152060747">
        <ele>365.44</ele>
        <time>2015-05-24T08:25:33Z</time>
      </trkpt>
      <trkpt lat="46.025303062051535" lon="9.289882304146886">
        <ele>364.95999999999998</ele>
        <time>2015-05-24T08:25:44Z</time>
      </trkpt>
      <trkpt lat="46.025286382064223" lon="9.28993234410882">
        <ele>364.95999999999998</ele>
        <time>2015-05-24T08:25:55Z</time>
      </trkpt>
      <trkpt lat="46.025243634358048" lon="9.289922118186951">
        <ele>365.44</ele>
        <time>2015-05-24T08:26:07Z</time>
      </trkpt>
      <trkpt lat="46.025245310738683" lon="9.289897559210658">
        <ele>364.95999999999998</ele>
        <time>2015-05-24T08:26:28Z</time>
      </trkpt>
      <trkpt lat="46.025232151150703" lon="9.28988297469914">
        <ele>365.44</ele>
        <time>2015-05-24T08:26:48Z</time>
      </trkpt>
      <trkpt lat="46.025261990725994" lon="9.289910718798637">
        <ele>364.95999999999998</ele>
        <time>2015-05-24T08:27:03Z</time>
      </trkpt>
      <trkpt lat="46.025252351537347" lon="9.289950197562575">
        <ele>364</ele>
        <time>2015-05-24T08:27:14Z</time>
      </trkpt>
      <trkpt lat="46.025253860279918" lon="9.289935110136867">
        <ele>364.48000000000002</ele>
        <time>2015-05-24T08:27:32Z</time>
      </trkpt>
      <trkpt lat="46.025312701240182" lon="9.29002077318728">
        <ele>364</ele>
        <time>2015-05-24T08:27:47Z</time>
      </trkpt>
      <trkpt lat="46.025301720947027" lon="9.290087157860398">
        <ele>362.55000000000001</ele>
        <time>2015-05-24T08:27:54Z</time>
      </trkpt>
      <trkpt lat="46.025288980454206" lon="9.290222777053714">
        <ele>360.14999999999998</ele>
        <time>2015-05-24T08:28:04Z</time>
      </trkpt>
      <trkpt lat="46.025289902463555" lon="9.290238115936518">
        <ele>360.14999999999998</ele>
        <time>2015-05-24T08:28:05Z</time>
      </trkpt>
      <trkpt lat="46.025291075929999" lon="9.290264938026667">
        <ele>360.14999999999998</ele>
        <time>2015-05-24T08:28:07Z</time>
      </trkpt>
      <trkpt lat="46.025212956592441" lon="9.290313301607966">
        <ele>360.63</ele>
        <time>2015-05-24T08:28:15Z</time>
      </trkpt>
      <trkpt lat="46.025189822539687" lon="9.290332328528166">
        <ele>361.11000000000001</ele>
        <time>2015-05-24T08:28:20Z</time>
      </trkpt>
      <trkpt lat="46.025091838091612" lon="9.290497619658709">
        <ele>362.06999999999999</ele>
        <time>2015-05-24T08:28:34Z</time>
      </trkpt>
      <trkpt lat="46.025062333792448" lon="9.290559310466051">
        <ele>362.55000000000001</ele>
        <time>2015-05-24T08:28:43Z</time>
      </trkpt>
      <trkpt lat="46.025010282173753" lon="9.29065209813416">
        <ele>363.04000000000002</ele>
        <time>2015-05-24T08:28:51Z</time>
      </trkpt>
      <trkpt lat="46.024922356009483" lon="9.29078059270978">
        <ele>363.51999999999998</ele>
        <time>2015-05-24T08:29:03Z</time>
      </trkpt>
      <trkpt lat="46.024861168116331" lon="9.290871117264032">
        <ele>364.48000000000002</ele>
        <time>2015-05-24T08:29:13Z</time>
      </trkpt>
      <trkpt lat="46.024822946637869" lon="9.290908584371209">
        <ele>364.48000000000002</ele>
        <time>2015-05-24T08:29:17Z</time>
      </trkpt>
      <trkpt lat="46.024722279980779" lon="9.290978573262692">
        <ele>365.92000000000002</ele>
        <time>2015-05-24T08:29:29Z</time>
      </trkpt>
      <trkpt lat="46.024633683264256" lon="9.291069684550166">
        <ele>367.36000000000001</ele>
        <time>2015-05-24T08:29:40Z</time>
      </trkpt>
      <trkpt lat="46.024585235863924" lon="9.291163813322783">
        <ele>369.27999999999997</ele>
        <time>2015-05-24T08:29:51Z</time>
      </trkpt>
      <trkpt lat="46.02455330081284" lon="9.291240507736802">
        <ele>370.73000000000002</ele>
        <time>2015-05-24T08:30:03Z</time>
      </trkpt>
      <trkpt lat="46.024496890604496" lon="9.291343269869685">
        <ele>373.61000000000001</ele>
        <time>2015-05-24T08:30:16Z</time>
      </trkpt>
      <trkpt lat="46.024441150948405" lon="9.291430106386542">
        <ele>375.05000000000001</ele>
        <time>2015-05-24T08:30:26Z</time>
      </trkpt>
      <trkpt lat="46.024391278624535" lon="9.291554829105735">
        <ele>376.49000000000001</ele>
        <time>2015-05-24T08:30:38Z</time>
      </trkpt>
      <trkpt lat="46.024309806525707" lon="9.29166991263628">
        <ele>377.94</ele>
        <time>2015-05-24T08:30:51Z</time>
      </trkpt>
      <trkpt lat="46.024287343025208" lon="9.291767897084355">
        <ele>379.86000000000001</ele>
        <time>2015-05-24T08:31:02Z</time>
      </trkpt>
      <trkpt lat="46.024311147630215" lon="9.291925057768822">
        <ele>382.25999999999999</ele>
        <time>2015-05-24T08:31:17Z</time>
      </trkpt>
      <trkpt lat="46.024331348016858" lon="9.292043410241604">
        <ele>383.69999999999999</ele>
        <time>2015-05-24T08:31:28Z</time>
      </trkpt>
      <trkpt lat="46.024331180378795" lon="9.292127480730414">
        <ele>385.63</ele>
        <time>2015-05-24T08:31:37Z</time>
      </trkpt>
      <trkpt lat="46.024357080459595" lon="9.292239211499691">
        <ele>387.06999999999999</ele>
        <time>2015-05-24T08:31:48Z</time>
      </trkpt>
      <trkpt lat="46.024360097944736" lon="9.29224843159318">
        <ele>387.06999999999999</ele>
        <time>2015-05-24T08:31:49Z</time>
      </trkpt>
      <trkpt lat="46.024374095723033" lon="9.292381871491671">
        <ele>388.50999999999999</ele>
        <time>2015-05-24T08:32:02Z</time>
      </trkpt>
      <trkpt lat="46.024428326636553" lon="9.292508438229561">
        <ele>389.94999999999999</ele>
        <time>2015-05-24T08:32:14Z</time>
      </trkpt>
      <trkpt lat="46.024481300264597" lon="9.29264179430902">
        <ele>390.91000000000003</ele>
        <time>2015-05-24T08:32:26Z</time>
      </trkpt>
      <trkpt lat="46.024539889767766" lon="9.292797027155757">
        <ele>391.87</ele>
        <time>2015-05-24T08:32:38Z</time>
      </trkpt>
      <trkpt lat="46.024536620825529" lon="9.292924767360091">
        <ele>393.31999999999999</ele>
        <time>2015-05-24T08:32:49Z</time>
      </trkpt>
      <trkpt lat="46.024586409330368" lon="9.293033313006163">
        <ele>394.27999999999997</ele>
        <time>2015-05-24T08:33:01Z</time>
      </trkpt>
      <trkpt lat="46.024590600281954" lon="9.293126352131367">
        <ele>395.72000000000003</ele>
        <time>2015-05-24T08:33:12Z</time>
      </trkpt>
      <trkpt lat="46.024608872830868" lon="9.293206231668592">
        <ele>397.63999999999999</ele>
        <time>2015-05-24T08:33:25Z</time>
      </trkpt>
      <trkpt lat="46.024663187563419" lon="9.293256690725684">
        <ele>398.60000000000002</ele>
        <time>2015-05-24T08:33:33Z</time>
      </trkpt>
      <trkpt lat="46.024703923612833" lon="9.293305389583111">
        <ele>399.07999999999998</ele>
        <time>2015-05-24T08:33:40Z</time>
      </trkpt>
      <trkpt lat="46.024784976616502" lon="9.293354842811823">
        <ele>399.56999999999999</ele>
        <time>2015-05-24T08:33:50Z</time>
      </trkpt>
      <trkpt lat="46.02482839487493" lon="9.293387280777097">
        <ele>399.56999999999999</ele>
        <time>2015-05-24T08:33:54Z</time>
      </trkpt>
      <trkpt lat="46.024901149794459" lon="9.293470764532685">
        <ele>399.56999999999999</ele>
        <time>2015-05-24T08:34:06Z</time>
      </trkpt>
      <trkpt lat="46.024893019348383" lon="9.293451318517327">
        <ele>399.56999999999999</ele>
        <time>2015-05-24T08:34:22Z</time>
      </trkpt>
      <trkpt lat="46.02488849312067" lon="9.293455928564072">
        <ele>399.56999999999999</ele>
        <time>2015-05-24T08:34:42Z</time>
      </trkpt>
      <trkpt lat="46.024871561676264" lon="9.293405637145042">
        <ele>399.56999999999999</ele>
        <time>2015-05-24T08:35:00Z</time>
      </trkpt>
      <trkpt lat="46.024880781769753" lon="9.293402703478932">
        <ele>399.56999999999999</ele>
        <time>2015-05-24T08:35:13Z</time>
      </trkpt>
      <trkpt lat="46.024897713214159" lon="9.293458024039865">
        <ele>399.07999999999998</ele>
        <time>2015-05-24T08:35:24Z</time>
      </trkpt>
      <trkpt lat="46.024896623566747" lon="9.293456180021167">
        <ele>399.56999999999999</ele>
        <time>2015-05-24T08:35:36Z</time>
      </trkpt>
      <trkpt lat="46.024908944964409" lon="9.293443439528346">
        <ele>401.00999999999999</ele>
        <time>2015-05-24T08:35:45Z</time>
      </trkpt>
      <trkpt lat="46.024937024340034" lon="9.293479984626174">
        <ele>399.07999999999998</ele>
        <time>2015-05-24T08:35:59Z</time>
      </trkpt>
      <trkpt lat="46.024937946349382" lon="9.293477386236191">
        <ele>399.07999999999998</ele>
        <time>2015-05-24T08:36:15Z</time>
      </trkpt>
      <trkpt lat="46.02495395578444" lon="9.293452743440867">
        <ele>399.56999999999999</ele>
        <time>2015-05-24T08:36:30Z</time>
      </trkpt>
      <trkpt lat="46.024938533082604" lon="9.293420724570751">
        <ele>399.56999999999999</ele>
        <time>2015-05-24T08:36:58Z</time>
      </trkpt>
      <trkpt lat="46.024921601638198" lon="9.293435392901301">
        <ele>399.56999999999999</ele>
        <time>2015-05-24T08:37:16Z</time>
      </trkpt>
      <trkpt lat="46.024913471192122" lon="9.293434051796794">
        <ele>399.56999999999999</ele>
        <time>2015-05-24T08:37:42Z</time>
      </trkpt>
      <trkpt lat="46.025007516145706" lon="9.293526168912649">
        <ele>397.63999999999999</ele>
        <time>2015-05-24T08:37:55Z</time>
      </trkpt>
      <trkpt lat="46.02507758885622" lon="9.293602611869574">
        <ele>396.68000000000001</ele>
        <time>2015-05-24T08:38:06Z</time>
      </trkpt>
      <trkpt lat="46.025174735113978" lon="9.29365617223084">
        <ele>394.27999999999997</ele>
        <time>2015-05-24T08:38:18Z</time>
      </trkpt>
      <trkpt lat="46.025261403992772" lon="9.293700344860554">
        <ele>393.31999999999999</ele>
        <time>2015-05-24T08:38:28Z</time>
      </trkpt>
      <trkpt lat="46.025354946032166" lon="9.293754575774074">
        <ele>392.36000000000001</ele>
        <time>2015-05-24T08:38:39Z</time>
      </trkpt>
      <trkpt lat="46.025437591597438" lon="9.293808806687594">
        <ele>391.87</ele>
        <time>2015-05-24T08:38:49Z</time>
      </trkpt>
      <trkpt lat="46.025531971827149" lon="9.293887512758374">
        <ele>391.87</ele>
        <time>2015-05-24T08:39:01Z</time>
      </trkpt>
      <trkpt lat="46.025613276287913" lon="9.29393813945353">
        <ele>392.36000000000001</ele>
        <time>2015-05-24T08:39:12Z</time>
      </trkpt>
      <trkpt lat="46.025696843862534" lon="9.294031262397766">
        <ele>391.38999999999999</ele>
        <time>2015-05-24T08:39:22Z</time>
      </trkpt>
      <trkpt lat="46.025835312902927" lon="9.294106112793088">
        <ele>390.43000000000001</ele>
        <time>2015-05-24T08:39:35Z</time>
      </trkpt>
      <trkpt lat="46.025926172733307" lon="9.294174090027809">
        <ele>388.99000000000001</ele>
        <time>2015-05-24T08:39:49Z</time>
      </trkpt>
      <trkpt lat="46.025933884084225" lon="9.294181717559695">
        <ele>388.99000000000001</ele>
        <time>2015-05-24T08:39:50Z</time>
      </trkpt>
      <trkpt lat="46.025978391990066" lon="9.294248940423131">
        <ele>387.55000000000001</ele>
        <time>2015-05-24T08:40:00Z</time>
      </trkpt>
      <trkpt lat="46.026085345074534" lon="9.294371316209436">
        <ele>385.63</ele>
        <time>2015-05-24T08:40:13Z</time>
      </trkpt>
      <trkpt lat="46.026173522695899" lon="9.294456643983722">
        <ele>382.74000000000001</ele>
        <time>2015-05-24T08:40:26Z</time>
      </trkpt>
      <trkpt lat="46.026251977309585" lon="9.294607434421778">
        <ele>382.74000000000001</ele>
        <time>2015-05-24T08:40:40Z</time>
      </trkpt>
      <trkpt lat="46.026332359761" lon="9.29458312690258">
        <ele>383.22000000000003</ele>
        <time>2015-05-24T08:40:52Z</time>
      </trkpt>
      <trkpt lat="46.026399247348309" lon="9.294477682560682">
        <ele>383.22000000000003</ele>
        <time>2015-05-24T08:41:03Z</time>
      </trkpt>
      <trkpt lat="46.026510391384363" lon="9.294428313151002">
        <ele>383.69999999999999</ele>
        <time>2015-05-24T08:41:15Z</time>
      </trkpt>
      <trkpt lat="46.026566550135612" lon="9.294429738074541">
        <ele>384.18000000000001</ele>
        <time>2015-05-24T08:41:21Z</time>
      </trkpt>
      <trkpt lat="46.026680711656809" lon="9.294420015066862">
        <ele>385.63</ele>
        <time>2015-05-24T08:41:34Z</time>
      </trkpt>
      <trkpt lat="46.026772493496537" lon="9.294400820508599">
        <ele>386.58999999999997</ele>
        <time>2015-05-24T08:41:46Z</time>
      </trkpt>
      <trkpt lat="46.026821779087186" lon="9.294361006468535">
        <ele>386.58999999999997</ele>
        <time>2015-05-24T08:41:53Z</time>
      </trkpt>
      <trkpt lat="46.02688598446548" lon="9.294288754463196">
        <ele>385.14999999999998</ele>
        <time>2015-05-24T08:42:00Z</time>
      </trkpt>
      <trkpt lat="46.026892187073827" lon="9.294281797483563">
        <ele>385.14999999999998</ele>
        <time>2015-05-24T08:42:01Z</time>
      </trkpt>
      <trkpt lat="46.026970390230417" lon="9.294119440019131">
        <ele>384.66000000000003</ele>
        <time>2015-05-24T08:42:14Z</time>
      </trkpt>
      <trkpt lat="46.027018334716558" lon="9.294017432257533">
        <ele>384.66000000000003</ele>
        <time>2015-05-24T08:42:22Z</time>
      </trkpt>
      <trkpt lat="46.027108691632748" lon="9.293907629325986">
        <ele>385.63</ele>
        <time>2015-05-24T08:42:33Z</time>
      </trkpt>
      <trkpt lat="46.027168286964297" lon="9.293821044266224">
        <ele>387.06999999999999</ele>
        <time>2015-05-24T08:42:42Z</time>
      </trkpt>
      <trkpt lat="46.027234001085162" lon="9.293743930757046">
        <ele>388.50999999999999</ele>
        <time>2015-05-24T08:42:51Z</time>
      </trkpt>
      <trkpt lat="46.027236096560955" lon="9.293705793097615">
        <ele>388.50999999999999</ele>
        <time>2015-05-24T08:43:02Z</time>
      </trkpt>
      <trkpt lat="46.027260906994343" lon="9.293663213029504">
        <ele>388.50999999999999</ele>
        <time>2015-05-24T08:43:07Z</time>
      </trkpt>
      <trkpt lat="46.027314299717546" lon="9.29357604123652">
        <ele>389.47000000000003</ele>
        <time>2015-05-24T08:43:16Z</time>
      </trkpt>
      <trkpt lat="46.027392586693168" lon="9.293394656851888">
        <ele>389.47000000000003</ele>
        <time>2015-05-24T08:43:30Z</time>
      </trkpt>
      <trkpt lat="46.027425862848759" lon="9.293327601626515">
        <ele>389.94999999999999</ele>
        <time>2015-05-24T08:43:37Z</time>
      </trkpt>
      <trkpt lat="46.027444554492831" lon="9.29327848367393">
        <ele>389.94999999999999</ele>
        <time>2015-05-24T08:43:42Z</time>
      </trkpt>
      <trkpt lat="46.027514962479472" lon="9.293299186974764">
        <ele>389.94999999999999</ele>
        <time>2015-05-24T08:43:50Z</time>
      </trkpt>
      <trkpt lat="46.027667010203004" lon="9.293448301032186">
        <ele>387.06999999999999</ele>
        <time>2015-05-24T08:44:03Z</time>
      </trkpt>
      <trkpt lat="46.027768766507506" lon="9.293464310467243">
        <ele>385.14999999999998</ele>
        <time>2015-05-24T08:44:12Z</time>
      </trkpt>
      <trkpt lat="46.02779139764607" lon="9.29346171207726">
        <ele>384.66000000000003</ele>
        <time>2015-05-24T08:44:14Z</time>
      </trkpt>
      <trkpt lat="46.027899440377951" lon="9.293542765080929">
        <ele>382.74000000000001</ele>
        <time>2015-05-24T08:44:25Z</time>
      </trkpt>
      <trkpt lat="46.027980325743556" lon="9.29352960549295">
        <ele>381.30000000000001</ele>
        <time>2015-05-24T08:44:36Z</time>
      </trkpt>
      <trkpt lat="46.0280850995332" lon="9.293546872213483">
        <ele>379.38</ele>
        <time>2015-05-24T08:44:49Z</time>
      </trkpt>
      <trkpt lat="46.028186939656734" lon="9.293507225811482">
        <ele>377.44999999999999</ele>
        <time>2015-05-24T08:45:01Z</time>
      </trkpt>
      <trkpt lat="46.028222646564245" lon="9.293509069830179">
        <ele>376.97000000000003</ele>
        <time>2015-05-24T08:45:05Z</time>
      </trkpt>
      <trkpt lat="46.028264723718166" lon="9.293523151427507">
        <ele>376.00999999999999</ele>
        <time>2015-05-24T08:45:14Z</time>
      </trkpt>
      <trkpt lat="46.028344100341201" lon="9.293491635471582">
        <ele>374.56999999999999</ele>
        <time>2015-05-24T08:45:24Z</time>
      </trkpt>
      <trkpt lat="46.02841735817492" lon="9.293487193062902">
        <ele>373.13</ele>
        <time>2015-05-24T08:45:33Z</time>
      </trkpt>
      <trkpt lat="46.028506122529507" lon="9.293464561924338">
        <ele>371.69</ele>
        <time>2015-05-24T08:45:44Z</time>
      </trkpt>
      <trkpt lat="46.0285927914083" lon="9.293480236083269">
        <ele>369.27999999999997</ele>
        <time>2015-05-24T08:45:56Z</time>
      </trkpt>
      <trkpt lat="46.028734110295773" lon="9.29355701431632">
        <ele>367.36000000000001</ele>
        <time>2015-05-24T08:46:10Z</time>
      </trkpt>
      <trkpt lat="46.028810637071729" lon="9.293603533878923">
        <ele>366.39999999999998</ele>
        <time>2015-05-24T08:46:20Z</time>
      </trkpt>
      <trkpt lat="46.028912728652358" lon="9.293706715106964">
        <ele>364.95999999999998</ele>
        <time>2015-05-24T08:46:32Z</time>
      </trkpt>
      <trkpt lat="46.028998894616961" lon="9.293808052316308">
        <ele>363.51999999999998</ele>
        <time>2015-05-24T08:46:43Z</time>
      </trkpt>
      <trkpt lat="46.029035272076726" lon="9.293843088671565">
        <ele>363.51999999999998</ele>
        <time>2015-05-24T08:46:47Z</time>
      </trkpt>
      <trkpt lat="46.029101489111781" lon="9.293935457244515">
        <ele>363.04000000000002</ele>
        <time>2015-05-24T08:46:57Z</time>
      </trkpt>
      <trkpt lat="46.029189499095082" lon="9.294035956263542">
        <ele>363.04000000000002</ele>
        <time>2015-05-24T08:47:09Z</time>
      </trkpt>
      <trkpt lat="46.029305504634976" lon="9.294081972911954">
        <ele>362.55000000000001</ele>
        <time>2015-05-24T08:47:21Z</time>
      </trkpt>
      <trkpt lat="46.029406925663352" lon="9.294122038409114">
        <ele>362.06999999999999</ele>
        <time>2015-05-24T08:47:32Z</time>
      </trkpt>
      <trkpt lat="46.029439363628626" lon="9.294164953753352">
        <ele>361.58999999999997</ele>
        <time>2015-05-24T08:47:42Z</time>
      </trkpt>
      <trkpt lat="46.029443806037307" lon="9.294297220185399">
        <ele>360.14999999999998</ele>
        <time>2015-05-24T08:47:53Z</time>
      </trkpt>
      <trkpt lat="46.029440117999911" lon="9.29436469450593">
        <ele>359.67000000000002</ele>
        <time>2015-05-24T08:47:58Z</time>
      </trkpt>
      <trkpt lat="46.02944397367537" lon="9.294488495215774">
        <ele>358.70999999999998</ele>
        <time>2015-05-24T08:48:08Z</time>
      </trkpt>
      <trkpt lat="46.029454534873366" lon="9.294517077505589">
        <ele>359.19</ele>
        <time>2015-05-24T08:48:11Z</time>
      </trkpt>
      <trkpt lat="46.029549250379205" lon="9.294568290933967">
        <ele>358.23000000000002</ele>
        <time>2015-05-24T08:48:23Z</time>
      </trkpt>
      <trkpt lat="46.029629213735461" lon="9.294633334502578">
        <ele>357.26999999999998</ele>
        <time>2015-05-24T08:48:34Z</time>
      </trkpt>
      <trkpt lat="46.029691491276026" lon="9.294686643406749">
        <ele>356.79000000000002</ele>
        <time>2015-05-24T08:48:43Z</time>
      </trkpt>
      <trkpt lat="46.029781764373183" lon="9.294817233458161">
        <ele>356.31</ele>
        <time>2015-05-24T08:48:54Z</time>
      </trkpt>
      <trkpt lat="46.02981923148036" lon="9.294928293675184">
        <ele>355.33999999999997</ele>
        <time>2015-05-24T08:49:04Z</time>
      </trkpt>
      <trkpt lat="46.029892740771174" lon="9.295047149062157">
        <ele>353.42000000000002</ele>
        <time>2015-05-24T08:49:14Z</time>
      </trkpt>
      <trkpt lat="46.029953844845295" lon="9.295130716636777">
        <ele>351.01999999999998</ele>
        <time>2015-05-24T08:49:27Z</time>
      </trkpt>
      <trkpt lat="46.030041016638279" lon="9.295229203999043">
        <ele>350.06</ele>
        <time>2015-05-24T08:49:39Z</time>
      </trkpt>
      <trkpt lat="46.030110418796539" lon="9.295321740210056">
        <ele>349.57999999999998</ele>
        <time>2015-05-24T08:49:48Z</time>
      </trkpt>
      <trkpt lat="46.030191807076335" lon="9.29543187841773">
        <ele>349.10000000000002</ele>
        <time>2015-05-24T08:49:59Z</time>
      </trkpt>
      <trkpt lat="46.030282750725746" lon="9.295458197593689">
        <ele>348.62</ele>
        <time>2015-05-24T08:50:07Z</time>
      </trkpt>
      <trkpt lat="46.030378555878997" lon="9.295509746298194">
        <ele>348.13</ele>
        <time>2015-05-24T08:50:19Z</time>
      </trkpt>
      <trkpt lat="46.030411664396524" lon="9.295530281960964">
        <ele>348.13</ele>
        <time>2015-05-24T08:50:23Z</time>
      </trkpt>
      <trkpt lat="46.030503613874316" lon="9.295656932517886">
        <ele>348.62</ele>
        <time>2015-05-24T08:50:35Z</time>
      </trkpt>
      <trkpt lat="46.030558934435248" lon="9.295763969421387">
        <ele>348.62</ele>
        <time>2015-05-24T08:50:45Z</time>
      </trkpt>
      <trkpt lat="46.030607717111707" lon="9.295840244740248">
        <ele>347.64999999999998</ele>
        <time>2015-05-24T08:50:56Z</time>
      </trkpt>
      <trkpt lat="46.030684243887663" lon="9.295839406549931">
        <ele>345.25</ele>
        <time>2015-05-24T08:51:07Z</time>
      </trkpt>
      <trkpt lat="46.030775103718042" lon="9.295822307467461">
        <ele>343.81</ele>
        <time>2015-05-24T08:51:18Z</time>
      </trkpt>
      <trkpt lat="46.030855234712362" lon="9.295873269438744">
        <ele>342.85000000000002</ele>
        <time>2015-05-24T08:51:30Z</time>
      </trkpt>
      <trkpt lat="46.030910219997168" lon="9.295919453725219">
        <ele>341.88999999999999</ele>
        <time>2015-05-24T08:51:45Z</time>
      </trkpt>
      <trkpt lat="46.030929330736399" lon="9.295935044065118">
        <ele>341.41000000000003</ele>
        <time>2015-05-24T08:51:47Z</time>
      </trkpt>
      <trkpt lat="46.030965037643909" lon="9.295968236401677">
        <ele>341.88999999999999</ele>
        <time>2015-05-24T08:51:51Z</time>
      </trkpt>
      <trkpt lat="46.031050281599164" lon="9.296055240556598">
        <ele>340.92000000000002</ele>
        <time>2015-05-24T08:52:01Z</time>
      </trkpt>
      <trkpt lat="46.03112873621285" lon="9.296024478971958">
        <ele>339.48000000000002</ele>
        <time>2015-05-24T08:52:12Z</time>
      </trkpt>
      <trkpt lat="46.031208196654916" lon="9.296001344919205">
        <ele>339</ele>
        <time>2015-05-24T08:52:20Z</time>
      </trkpt>
      <trkpt lat="46.031321436166763" lon="9.296045685186982">
        <ele>339</ele>
        <time>2015-05-24T08:52:31Z</time>
      </trkpt>
      <trkpt lat="46.031450182199478" lon="9.296137718483806">
        <ele>338.51999999999998</ele>
        <time>2015-05-24T08:52:44Z</time>
      </trkpt>
      <trkpt lat="46.031485302373767" lon="9.2961569968611">
        <ele>338.51999999999998</ele>
        <time>2015-05-24T08:52:47Z</time>
      </trkpt>
      <trkpt lat="46.031589154154062" lon="9.2962605971843">
        <ele>338.51999999999998</ele>
        <time>2015-05-24T08:52:59Z</time>
      </trkpt>
      <trkpt lat="46.031685210764408" lon="9.296356737613678">
        <ele>339</ele>
        <time>2015-05-24T08:53:10Z</time>
      </trkpt>
      <trkpt lat="46.031694011762738" lon="9.296384230256081">
        <ele>339</ele>
        <time>2015-05-24T08:53:12Z</time>
      </trkpt>
      <trkpt lat="46.03176835924387" lon="9.296496547758579">
        <ele>340.92000000000002</ele>
        <time>2015-05-24T08:53:24Z</time>
      </trkpt>
      <trkpt lat="46.031838096678257" lon="9.296574415639043">
        <ele>342.37</ele>
        <time>2015-05-24T08:53:35Z</time>
      </trkpt>
      <trkpt lat="46.031909175217152" lon="9.296660916879773">
        <ele>344.29000000000002</ele>
        <time>2015-05-24T08:53:45Z</time>
      </trkpt>
      <trkpt lat="46.031995173543692" lon="9.296755297109485">
        <ele>344.76999999999998</ele>
        <time>2015-05-24T08:53:56Z</time>
      </trkpt>
      <trkpt lat="46.032052505761385" lon="9.296875996515155">
        <ele>345.73000000000002</ele>
        <time>2015-05-24T08:54:07Z</time>
      </trkpt>
      <trkpt lat="46.032102629542351" lon="9.29698278196156">
        <ele>346.69</ele>
        <time>2015-05-24T08:54:17Z</time>
      </trkpt>
      <trkpt lat="46.032182173803449" lon="9.297131728380919">
        <ele>347.17000000000002</ele>
        <time>2015-05-24T08:54:29Z</time>
      </trkpt>
      <trkpt lat="46.032276386395097" lon="9.297325266525149">
        <ele>347.64999999999998</ele>
        <time>2015-05-24T08:54:45Z</time>
      </trkpt>
      <trkpt lat="46.03232785128057" lon="9.297448983415961">
        <ele>346.69</ele>
        <time>2015-05-24T08:54:54Z</time>
      </trkpt>
      <trkpt lat="46.032348973676562" lon="9.297535652294755">
        <ele>346.69</ele>
        <time>2015-05-24T08:55:00Z</time>
      </trkpt>
      <trkpt lat="46.032372359186411" lon="9.297601953148842">
        <ele>346.20999999999998</ele>
        <time>2015-05-24T08:55:06Z</time>
      </trkpt>
      <trkpt lat="46.032409239560366" lon="9.297704044729471">
        <ele>346.20999999999998</ele>
        <time>2015-05-24T08:55:14Z</time>
      </trkpt>
      <trkpt lat="46.032415609806776" lon="9.297723406925798">
        <ele>346.20999999999998</ele>
        <time>2015-05-24T08:55:16Z</time>
      </trkpt>
      <trkpt lat="46.032440671697259" lon="9.297790881246328">
        <ele>346.20999999999998</ele>
        <time>2015-05-24T08:55:21Z</time>
      </trkpt>
      <trkpt lat="46.032519126310945" lon="9.297894313931465">
        <ele>345.73000000000002</ele>
        <time>2015-05-24T08:55:31Z</time>
      </trkpt>
      <trkpt lat="46.032563718035817" lon="9.298008810728788">
        <ele>345.25</ele>
        <time>2015-05-24T08:55:41Z</time>
      </trkpt>
      <trkpt lat="46.032588109374046" lon="9.298042422160506">
        <ele>345.73000000000002</ele>
        <time>2015-05-24T08:55:44Z</time>
      </trkpt>
      <trkpt lat="46.032624486833811" lon="9.298194050788879">
        <ele>345.73000000000002</ele>
        <time>2015-05-24T08:55:58Z</time>
      </trkpt>
      <trkpt lat="46.032671760767698" lon="9.298266805708408">
        <ele>345.73000000000002</ele>
        <time>2015-05-24T08:56:03Z</time>
      </trkpt>
      <trkpt lat="46.032765554264188" lon="9.29835632443428">
        <ele>346.20999999999998</ele>
        <time>2015-05-24T08:56:15Z</time>
      </trkpt>
      <trkpt lat="46.032834034413099" lon="9.298355402424932">
        <ele>345.73000000000002</ele>
        <time>2015-05-24T08:56:26Z</time>
      </trkpt>
      <trkpt lat="46.032839566469193" lon="9.298357497900724">
        <ele>345.25</ele>
        <time>2015-05-24T08:56:36Z</time>
      </trkpt>
      <trkpt lat="46.032843673601747" lon="9.2983518820256">
        <ele>345.25</ele>
        <time>2015-05-24T08:56:50Z</time>
      </trkpt>
      <trkpt lat="46.0328633710742" lon="9.298360180109739">
        <ele>345.25</ele>
        <time>2015-05-24T08:57:01Z</time>
      </trkpt>
      <trkpt lat="46.03287803940475" lon="9.298386666923761">
        <ele>344.76999999999998</ele>
        <time>2015-05-24T08:57:16Z</time>
      </trkpt>
      <trkpt lat="46.032845936715603" lon="9.298388008028269">
        <ele>344.76999999999998</ele>
        <time>2015-05-24T08:57:38Z</time>
      </trkpt>
      <trkpt lat="46.032817354425788" lon="9.298376441001892">
        <ele>345.73000000000002</ele>
        <time>2015-05-24T08:57:47Z</time>
      </trkpt>
      <trkpt lat="46.032806038856506" lon="9.298390857875347">
        <ele>345.25</ele>
        <time>2015-05-24T08:58:07Z</time>
      </trkpt>
      <trkpt lat="46.03281307965517" lon="9.298371579498053">
        <ele>345.25</ele>
        <time>2015-05-24T08:58:20Z</time>
      </trkpt>
      <trkpt lat="46.032805200666189" lon="9.298346601426601">
        <ele>345.73000000000002</ele>
        <time>2015-05-24T08:58:44Z</time>
      </trkpt>
      <trkpt lat="46.032836632803082" lon="9.298328580334783">
        <ele>345.25</ele>
        <time>2015-05-24T08:58:55Z</time>
      </trkpt>
      <trkpt lat="46.032883068546653" lon="9.298351295292378">
        <ele>344.76999999999998</ele>
        <time>2015-05-24T08:59:05Z</time>
      </trkpt>
      <trkpt lat="46.03291223756969" lon="9.298387002199888">
        <ele>344.76999999999998</ele>
        <time>2015-05-24T08:59:17Z</time>
      </trkpt>
      <trkpt lat="46.032908298075199" lon="9.298363197594881">
        <ele>344.76999999999998</ele>
        <time>2015-05-24T08:59:32Z</time>
      </trkpt>
      <trkpt lat="46.032905280590057" lon="9.298386750742793">
        <ele>344.76999999999998</ele>
        <time>2015-05-24T08:59:45Z</time>
      </trkpt>
      <trkpt lat="46.032919781282544" lon="9.298406448215246">
        <ele>345.25</ele>
        <time>2015-05-24T09:00:00Z</time>
      </trkpt>
      <trkpt lat="46.032892959192395" lon="9.298430420458317">
        <ele>344.76999999999998</ele>
        <time>2015-05-24T09:00:15Z</time>
      </trkpt>
      <trkpt lat="46.032839650288224" lon="9.298456236720085">
        <ele>345.25</ele>
        <time>2015-05-24T09:00:29Z</time>
      </trkpt>
      <trkpt lat="46.032829843461514" lon="9.298443496227264">
        <ele>345.25</ele>
        <time>2015-05-24T09:00:46Z</time>
      </trkpt>
      <trkpt lat="46.03283897973597" lon="9.298442658036947">
        <ele>345.25</ele>
        <time>2015-05-24T09:01:04Z</time>
      </trkpt>
      <trkpt lat="46.032893881201744" lon="9.298415752127767">
        <ele>345.25</ele>
        <time>2015-05-24T09:01:16Z</time>
      </trkpt>
      <trkpt lat="46.032883822917938" lon="9.298399658873677">
        <ele>345.25</ele>
        <time>2015-05-24T09:01:30Z</time>
      </trkpt>
      <trkpt lat="46.032873513177037" lon="9.29839245043695">
        <ele>345.25</ele>
        <time>2015-05-24T09:01:46Z</time>
      </trkpt>
      <trkpt lat="46.032869573682547" lon="9.29841835051775">
        <ele>345.25</ele>
        <time>2015-05-24T09:02:03Z</time>
      </trkpt>
      <trkpt lat="46.032900335267186" lon="9.298390774056315">
        <ele>345.25</ele>
        <time>2015-05-24T09:02:28Z</time>
      </trkpt>
      <trkpt lat="46.032860185950994" lon="9.298408376052976">
        <ele>345.73000000000002</ele>
        <time>2015-05-24T09:02:49Z</time>
      </trkpt>
      <trkpt lat="46.032870830968022" lon="9.298397731035948">
        <ele>345.73000000000002</ele>
        <time>2015-05-24T09:03:02Z</time>
      </trkpt>
      <trkpt lat="46.032897736877203" lon="9.298433605581522">
        <ele>345.73000000000002</ele>
        <time>2015-05-24T09:03:15Z</time>
      </trkpt>
      <trkpt lat="46.032883236184716" lon="9.298398988321424">
        <ele>346.20999999999998</ele>
        <time>2015-05-24T09:03:25Z</time>
      </trkpt>
      <trkpt lat="46.032927241176367" lon="9.2984071187675">
        <ele>345.73000000000002</ele>
        <time>2015-05-24T09:03:35Z</time>
      </trkpt>
      <trkpt lat="46.032943921163678" lon="9.298419943079352">
        <ele>345.25</ele>
        <time>2015-05-24T09:03:47Z</time>
      </trkpt>
      <trkpt lat="46.032955572009087" lon="9.298386499285698">
        <ele>345.25</ele>
        <time>2015-05-24T09:04:08Z</time>
      </trkpt>
      <trkpt lat="46.032976359128952" lon="9.298389852046967">
        <ele>344.76999999999998</ele>
        <time>2015-05-24T09:04:20Z</time>
      </trkpt>
      <trkpt lat="46.033049197867513" lon="9.298431426286697">
        <ele>343.81</ele>
        <time>2015-05-24T09:04:32Z</time>
      </trkpt>
      <trkpt lat="46.03308130055666" lon="9.298441484570503">
        <ele>343.81</ele>
        <time>2015-05-24T09:04:44Z</time>
      </trkpt>
      <trkpt lat="46.033018101006746" lon="9.29841491393745">
        <ele>344.29000000000002</ele>
        <time>2015-05-24T09:05:01Z</time>
      </trkpt>
      <trkpt lat="46.03294987231493" lon="9.298400916159153">
        <ele>345.25</ele>
        <time>2015-05-24T09:05:13Z</time>
      </trkpt>
      <trkpt lat="46.032925648614764" lon="9.298416087403894">
        <ele>345.73000000000002</ele>
        <time>2015-05-24T09:05:23Z</time>
      </trkpt>
      <trkpt lat="46.032911315560341" lon="9.298416003584862">
        <ele>346.20999999999998</ele>
        <time>2015-05-24T09:05:43Z</time>
      </trkpt>
      <trkpt lat="46.032907292246819" lon="9.29839001968503">
        <ele>346.20999999999998</ele>
        <time>2015-05-24T09:05:59Z</time>
      </trkpt>
      <trkpt lat="46.032937467098236" lon="9.298383397981525">
        <ele>346.20999999999998</ele>
        <time>2015-05-24T09:06:14Z</time>
      </trkpt>
      <trkpt lat="46.032896647229791" lon="9.298386499285698">
        <ele>346.69</ele>
        <time>2015-05-24T09:06:31Z</time>
      </trkpt>
      <trkpt lat="46.032887678593397" lon="9.298388930037618">
        <ele>346.69</ele>
        <time>2015-05-24T09:06:44Z</time>
      </trkpt>
      <trkpt lat="46.032868819311261" lon="9.298371160402894">
        <ele>346.69</ele>
        <time>2015-05-24T09:07:03Z</time>
      </trkpt>
      <trkpt lat="46.0328633710742" lon="9.298348361626267">
        <ele>346.69</ele>
        <time>2015-05-24T09:07:26Z</time>
      </trkpt>
      <trkpt lat="46.032852223142982" lon="9.298341488465667">
        <ele>347.17000000000002</ele>
        <time>2015-05-24T09:07:53Z</time>
      </trkpt>
      <trkpt lat="46.032848954200745" lon="9.298330089077354">
        <ele>347.17000000000002</ele>
        <time>2015-05-24T09:08:07Z</time>
      </trkpt>
      <trkpt lat="46.032840823754668" lon="9.298353893682361">
        <ele>347.17000000000002</ele>
        <time>2015-05-24T09:08:29Z</time>
      </trkpt>
      <trkpt lat="46.032848702743649" lon="9.298312235623598">
        <ele>347.64999999999998</ele>
        <time>2015-05-24T09:08:57Z</time>
      </trkpt>
      <trkpt lat="46.032853648066521" lon="9.298319192603231">
        <ele>347.64999999999998</ele>
        <time>2015-05-24T09:09:25Z</time>
      </trkpt>
      <trkpt lat="46.032835207879543" lon="9.298319779336453">
        <ele>347.64999999999998</ele>
        <time>2015-05-24T09:09:45Z</time>
      </trkpt>
      <trkpt lat="46.032834872603416" lon="9.298344003036618">
        <ele>348.13</ele>
        <time>2015-05-24T09:10:13Z</time>
      </trkpt>
      <trkpt lat="46.032843254506588" lon="9.298380464315414">
        <ele>348.13</ele>
        <time>2015-05-24T09:10:40Z</time>
      </trkpt>
      <trkpt lat="46.032890696078539" lon="9.298405945301056">
        <ele>348.13</ele>
        <time>2015-05-24T09:10:55Z</time>
      </trkpt>
      <trkpt lat="46.033037547022104" lon="9.298428744077683">
        <ele>346.20999999999998</ele>
        <time>2015-05-24T09:11:09Z</time>
      </trkpt>
      <trkpt lat="46.033087000250816" lon="9.298512898385525">
        <ele>345.25</ele>
        <time>2015-05-24T09:11:17Z</time>
      </trkpt>
      <trkpt lat="46.033094376325607" lon="9.298677518963814">
        <ele>344.76999999999998</ele>
        <time>2015-05-24T09:11:29Z</time>
      </trkpt>
      <trkpt lat="46.033092113211751" lon="9.298814730718732">
        <ele>342.85000000000002</ele>
        <time>2015-05-24T09:11:40Z</time>
      </trkpt>
      <trkpt lat="46.033095382153988" lon="9.298827052116394">
        <ele>342.85000000000002</ele>
        <time>2015-05-24T09:11:41Z</time>
      </trkpt>
      <trkpt lat="46.033131927251816" lon="9.299001228064299">
        <ele>339.48000000000002</ele>
        <time>2015-05-24T09:11:54Z</time>
      </trkpt>
      <trkpt lat="46.033200491219759" lon="9.299114970490336">
        <ele>339.48000000000002</ele>
        <time>2015-05-24T09:12:04Z</time>
      </trkpt>
      <trkpt lat="46.033264361321926" lon="9.299181690439582">
        <ele>338.04000000000002</ele>
        <time>2015-05-24T09:12:15Z</time>
      </trkpt>
      <trkpt lat="46.033345330506563" lon="9.299277747049928">
        <ele>335.63999999999999</ele>
        <time>2015-05-24T09:12:28Z</time>
      </trkpt>
      <trkpt lat="46.033406350761652" lon="9.299431052058935">
        <ele>335.63999999999999</ele>
        <time>2015-05-24T09:12:40Z</time>
      </trkpt>
      <trkpt lat="46.033473741263151" lon="9.299540184438229">
        <ele>332.75</ele>
        <time>2015-05-24T09:12:52Z</time>
      </trkpt>
      <trkpt lat="46.033486565575004" lon="9.299549404531717">
        <ele>332.75</ele>
        <time>2015-05-24T09:12:53Z</time>
      </trkpt>
      <trkpt lat="46.033608689904213" lon="9.299638001248241">
        <ele>332.75</ele>
        <time>2015-05-24T09:13:04Z</time>
      </trkpt>
      <trkpt lat="46.033723019063473" lon="9.299622494727373">
        <ele>330.35000000000002</ele>
        <time>2015-05-24T09:13:16Z</time>
      </trkpt>
      <trkpt lat="46.033831061795354" lon="9.299658201634884">
        <ele>327.94999999999999</ele>
        <time>2015-05-24T09:13:28Z</time>
      </trkpt>
      <trkpt lat="46.033941619098186" lon="9.299764400348067">
        <ele>326.99000000000001</ele>
        <time>2015-05-24T09:13:40Z</time>
      </trkpt>
      <trkpt lat="46.034023929387331" lon="9.299856433644891">
        <ele>326.5</ele>
        <time>2015-05-24T09:13:51Z</time>
      </trkpt>
      <trkpt lat="46.034111436456442" lon="9.2999267578125">
        <ele>326.01999999999998</ele>
        <time>2015-05-24T09:14:01Z</time>
      </trkpt>
      <trkpt lat="46.034193830564618" lon="9.299959363415837">
        <ele>324.10000000000002</ele>
        <time>2015-05-24T09:14:08Z</time>
      </trkpt>
      <trkpt lat="46.034318720921874" lon="9.300008062273264">
        <ele>321.69999999999999</ele>
        <time>2015-05-24T09:14:21Z</time>
      </trkpt>
      <trkpt lat="46.034371191635728" lon="9.300034046173096">
        <ele>320.74000000000001</ele>
        <time>2015-05-24T09:14:26Z</time>
      </trkpt>
      <trkpt lat="46.034482000395656" lon="9.300125325098634">
        <ele>317.85000000000002</ele>
        <time>2015-05-24T09:14:39Z</time>
      </trkpt>
      <trkpt lat="46.034516198560596" lon="9.300159858539701">
        <ele>317.37</ele>
        <time>2015-05-24T09:14:44Z</time>
      </trkpt>
      <trkpt lat="46.034619128331542" lon="9.300271673128009">
        <ele>315.44999999999999</ele>
        <time>2015-05-24T09:14:57Z</time>
      </trkpt>
      <trkpt lat="46.034696158021688" lon="9.300330681726337">
        <ele>314.00999999999999</ele>
        <time>2015-05-24T09:15:07Z</time>
      </trkpt>
      <trkpt lat="46.034783832728863" lon="9.300375776365399">
        <ele>311.60000000000002</ele>
        <time>2015-05-24T09:15:17Z</time>
      </trkpt>
      <trkpt lat="46.034891875460744" lon="9.300423888489604">
        <ele>308.72000000000003</ele>
        <time>2015-05-24T09:15:29Z</time>
      </trkpt>
      <trkpt lat="46.034980555996299" lon="9.300450040027499">
        <ele>306.31999999999999</ele>
        <time>2015-05-24T09:15:39Z</time>
      </trkpt>
      <trkpt lat="46.035096226260066" lon="9.300526566803455">
        <ele>304.38999999999999</ele>
        <time>2015-05-24T09:15:53Z</time>
      </trkpt>
      <trkpt lat="46.035130172967911" lon="9.300535451620817">
        <ele>303.91000000000003</ele>
        <time>2015-05-24T09:16:04Z</time>
      </trkpt>
      <trkpt lat="46.035199491307139" lon="9.300568476319313">
        <ele>302.94999999999999</ele>
        <time>2015-05-24T09:16:20Z</time>
      </trkpt>
      <trkpt lat="46.035287836566567" lon="9.300632011145353">
        <ele>301.99000000000001</ele>
        <time>2015-05-24T09:16:32Z</time>
      </trkpt>
      <trkpt lat="46.035355646163225" lon="9.300655396655202">
        <ele>301.02999999999997</ele>
        <time>2015-05-24T09:16:43Z</time>
      </trkpt>
      <trkpt lat="46.035421779379249" lon="9.300679704174399">
        <ele>300.06999999999999</ele>
        <time>2015-05-24T09:16:55Z</time>
      </trkpt>
      <trkpt lat="46.035443237051368" lon="9.300724547356367">
        <ele>299.58999999999997</ele>
        <time>2015-05-24T09:17:06Z</time>
      </trkpt>
      <trkpt lat="46.035443488508463" lon="9.300753800198436">
        <ele>300.06999999999999</ele>
        <time>2015-05-24T09:17:17Z</time>
      </trkpt>
      <trkpt lat="46.035479446873069" lon="9.300757572054863">
        <ele>300.06999999999999</ele>
        <time>2015-05-24T09:17:34Z</time>
      </trkpt>
      <trkpt lat="46.035504173487425" lon="9.300764445215464">
        <ele>299.11000000000001</ele>
        <time>2015-05-24T09:17:45Z</time>
      </trkpt>
      <trkpt lat="46.035535437986255" lon="9.30086636915803">
        <ele>296.69999999999999</ele>
        <time>2015-05-24T09:17:58Z</time>
      </trkpt>
      <trkpt lat="46.035539042204618" lon="9.300873745232821">
        <ele>296.22000000000003</ele>
        <time>2015-05-24T09:17:59Z</time>
      </trkpt>
      <trkpt lat="46.035654544830322" lon="9.300977680832148">
        <ele>293.81999999999999</ele>
        <time>2015-05-24T09:18:12Z</time>
      </trkpt>
      <trkpt lat="46.035735094919801" lon="9.301070803776383">
        <ele>293.33999999999997</ele>
        <time>2015-05-24T09:18:22Z</time>
      </trkpt>
      <trkpt lat="46.035879934206605" lon="9.301162250339985">
        <ele>293.33999999999997</ele>
        <time>2015-05-24T09:18:36Z</time>
      </trkpt>
      <trkpt lat="46.036027623340487" lon="9.301186809316278">
        <ele>292.38</ele>
        <time>2015-05-24T09:18:47Z</time>
      </trkpt>
      <trkpt lat="46.036173887550831" lon="9.301192425191402">
        <ele>291.42000000000002</ele>
        <time>2015-05-24T09:19:03Z</time>
      </trkpt>
      <trkpt lat="46.036314619705081" lon="9.301305832341313">
        <ele>289.49000000000001</ele>
        <time>2015-05-24T09:19:17Z</time>
      </trkpt>
      <trkpt lat="46.036436408758163" lon="9.301431560888887">
        <ele>287.08999999999997</ele>
        <time>2015-05-24T09:19:30Z</time>
      </trkpt>
      <trkpt lat="46.036556856706738" lon="9.301550332456827">
        <ele>286.61000000000001</ele>
        <time>2015-05-24T09:19:42Z</time>
      </trkpt>
      <trkpt lat="46.036643357947469" lon="9.301595846191049">
        <ele>287.08999999999997</ele>
        <time>2015-05-24T09:19:52Z</time>
      </trkpt>
      <trkpt lat="46.036797417327762" lon="9.301646472886205">
        <ele>287.56999999999999</ele>
        <time>2015-05-24T09:20:06Z</time>
      </trkpt>
      <trkpt lat="46.03683547116816" lon="9.301682515069842">
        <ele>287.08999999999997</ele>
        <time>2015-05-24T09:20:10Z</time>
      </trkpt>
      <trkpt lat="46.036942424252629" lon="9.301829366013408">
        <ele>286.61000000000001</ele>
        <time>2015-05-24T09:20:23Z</time>
      </trkpt>
      <trkpt lat="46.037060273811221" lon="9.302000608295202">
        <ele>287.08999999999997</ele>
        <time>2015-05-24T09:20:37Z</time>
      </trkpt>
      <trkpt lat="46.037121377885342" lon="9.302227674052119">
        <ele>286.13</ele>
        <time>2015-05-24T09:20:51Z</time>
      </trkpt>
      <trkpt lat="46.037209136411548" lon="9.30237184278667">
        <ele>285.17000000000002</ele>
        <time>2015-05-24T09:21:03Z</time>
      </trkpt>
      <trkpt lat="46.037261942401528" lon="9.302418865263462">
        <ele>284.69</ele>
        <time>2015-05-24T09:21:08Z</time>
      </trkpt>
      <trkpt lat="46.037431256845593" lon="9.302487093955278">
        <ele>284.69</ele>
        <time>2015-05-24T09:21:23Z</time>
      </trkpt>
      <trkpt lat="46.037579448893666" lon="9.30262103676796">
        <ele>284.20999999999998</ele>
        <time>2015-05-24T09:21:38Z</time>
      </trkpt>
      <trkpt lat="46.037638206034899" lon="9.302697144448757">
        <ele>284.20999999999998</ele>
        <time>2015-05-24T09:21:45Z</time>
      </trkpt>
      <trkpt lat="46.037708027288318" lon="9.302891185507178">
        <ele>283.73000000000002</ele>
        <time>2015-05-24T09:21:59Z</time>
      </trkpt>
      <trkpt lat="46.037775166332722" lon="9.303016411140561">
        <ele>283.73000000000002</ele>
        <time>2015-05-24T09:22:10Z</time>
      </trkpt>
      <trkpt lat="46.037788325920701" lon="9.303037617355585">
        <ele>283.73000000000002</ele>
        <time>2015-05-24T09:22:12Z</time>
      </trkpt>
      <trkpt lat="46.037903241813183" lon="9.303188491612673">
        <ele>283.73000000000002</ele>
        <time>2015-05-24T09:22:26Z</time>
      </trkpt>
      <trkpt lat="46.038006590679288" lon="9.303305000066757">
        <ele>283.73000000000002</ele>
        <time>2015-05-24T09:22:39Z</time>
      </trkpt>
      <trkpt lat="46.038035089150071" lon="9.303301060572267">
        <ele>283.73000000000002</ele>
        <time>2015-05-24T09:22:42Z</time>
      </trkpt>
      <trkpt lat="46.038051014766097" lon="9.303310113027692">
        <ele>277.95999999999998</ele>
        <time>2015-05-24T09:22:44Z</time>
      </trkpt>
      <trkpt lat="46.038060486316681" lon="9.303314220160246">
        <ele>277.95999999999998</ele>
        <time>2015-05-24T09:22:45Z</time>
      </trkpt>
      <trkpt lat="46.038136510178447" lon="9.303297372534871">
        <ele>276.51999999999998</ele>
        <time>2015-05-24T09:22:51Z</time>
      </trkpt>
      <trkpt lat="46.0382045712322" lon="9.303233418613672">
        <ele>274.58999999999997</ele>
        <time>2015-05-24T09:23:00Z</time>
      </trkpt>
      <trkpt lat="46.038218485191464" lon="9.303223108872771">
        <ele>273.14999999999998</ele>
        <time>2015-05-24T09:23:13Z</time>
      </trkpt>
      <trkpt lat="46.038224687799811" lon="9.303209027275443">
        <ele>273.14999999999998</ele>
        <time>2015-05-24T09:23:26Z</time>
      </trkpt>
      <trkpt lat="46.038385955616832" lon="9.303209781646729">
        <ele>272.19</ele>
        <time>2015-05-24T09:23:39Z</time>
      </trkpt>
      <trkpt lat="46.038461979478598" lon="9.303246326744556">
        <ele>270.75</ele>
        <time>2015-05-24T09:23:49Z</time>
      </trkpt>
      <trkpt lat="46.038492070510983" lon="9.303270969539881">
        <ele>271.23000000000002</ele>
        <time>2015-05-24T09:24:05Z</time>
      </trkpt>
      <trkpt lat="46.038496261462569" lon="9.303262084722519">
        <ele>271.23000000000002</ele>
        <time>2015-05-24T09:24:24Z</time>
      </trkpt>
      <trkpt lat="46.038486454635859" lon="9.303288403898478">
        <ele>271.23000000000002</ele>
        <time>2015-05-24T09:24:40Z</time>
      </trkpt>
      <trkpt lat="46.038502799347043" lon="9.303285973146558">
        <ele>270.26999999999998</ele>
        <time>2015-05-24T09:24:48Z</time>
      </trkpt>
      <trkpt lat="46.038516964763403" lon="9.303294187411666">
        <ele>269.79000000000002</ele>
        <time>2015-05-24T09:24:50Z</time>
      </trkpt>
      <trkpt lat="46.03862869553268" lon="9.30334179662168">
        <ele>266.42000000000002</ele>
        <time>2015-05-24T09:25:01Z</time>
      </trkpt>
      <trkpt lat="46.038699019700289" lon="9.303385047242045">
        <ele>264.01999999999998</ele>
        <time>2015-05-24T09:25:10Z</time>
      </trkpt>
      <trkpt lat="46.038837488740683" lon="9.303443552926183">
        <ele>260.64999999999998</ele>
        <time>2015-05-24T09:25:22Z</time>
      </trkpt>
      <trkpt lat="46.038880990818143" lon="9.303498035296798">
        <ele>259.69</ele>
        <time>2015-05-24T09:25:27Z</time>
      </trkpt>
      <trkpt lat="46.039057178422809" lon="9.303602641448379">
        <ele>258.25</ele>
        <time>2015-05-24T09:25:41Z</time>
      </trkpt>
      <trkpt lat="46.039220206439495" lon="9.303622590377927">
        <ele>258.25</ele>
        <time>2015-05-24T09:25:53Z</time>
      </trkpt>
      <trkpt lat="46.039322968572378" lon="9.303686209022999">
        <ele>259.20999999999998</ele>
        <time>2015-05-24T09:26:03Z</time>
      </trkpt>
      <trkpt lat="46.039357418194413" lon="9.303680676966906">
        <ele>259.69</ele>
        <time>2015-05-24T09:26:06Z</time>
      </trkpt>
      <trkpt lat="46.039433274418116" lon="9.30369752459228">
        <ele>260.17000000000002</ele>
        <time>2015-05-24T09:26:13Z</time>
      </trkpt>
      <trkpt lat="46.039591776207089" lon="9.303882848471403">
        <ele>261.62</ele>
        <time>2015-05-24T09:26:29Z</time>
      </trkpt>
      <trkpt lat="46.039696885272861" lon="9.304045792669058">
        <ele>263.06</ele>
        <time>2015-05-24T09:26:42Z</time>
      </trkpt>
      <trkpt lat="46.039812304079533" lon="9.304138412699103">
        <ele>263.54000000000002</ele>
        <time>2015-05-24T09:26:54Z</time>
      </trkpt>
      <trkpt lat="46.039970889687538" lon="9.30419540964067">
        <ele>264.01999999999998</ele>
        <time>2015-05-24T09:27:06Z</time>
      </trkpt>
      <trkpt lat="46.040115226060152" lon="9.304209155961871">
        <ele>263.06</ele>
        <time>2015-05-24T09:27:18Z</time>
      </trkpt>
      <trkpt lat="46.040231650695205" lon="9.304245617240667">
        <ele>259.69</ele>
        <time>2015-05-24T09:27:30Z</time>
      </trkpt>
      <trkpt lat="46.040314212441444" lon="9.304280234500766">
        <ele>257.29000000000002</ele>
        <time>2015-05-24T09:27:41Z</time>
      </trkpt>
      <trkpt lat="46.040325528010726" lon="9.304288448765874">
        <ele>257.76999999999998</ele>
        <time>2015-05-24T09:27:52Z</time>
      </trkpt>
      <trkpt lat="46.040307004004717" lon="9.304307475686073">
        <ele>257.76999999999998</ele>
        <time>2015-05-24T09:28:07Z</time>
      </trkpt>
      <trkpt lat="46.040332987904549" lon="9.30429657921195">
        <ele>257.29000000000002</ele>
        <time>2015-05-24T09:28:20Z</time>
      </trkpt>
      <trkpt lat="46.040330054238439" lon="9.304277049377561">
        <ele>257.29000000000002</ele>
        <time>2015-05-24T09:28:35Z</time>
      </trkpt>
      <trkpt lat="46.04035503230989" lon="9.304323233664036">
        <ele>255.84999999999999</ele>
        <time>2015-05-24T09:28:47Z</time>
      </trkpt>
      <trkpt lat="46.040386632084846" lon="9.304318623617292">
        <ele>255.37</ele>
        <time>2015-05-24T09:29:01Z</time>
      </trkpt>
      <trkpt lat="46.040440360084176" lon="9.30434150621295">
        <ele>253.44</ele>
        <time>2015-05-24T09:29:14Z</time>
      </trkpt>
      <trkpt lat="46.040443712845445" lon="9.304339662194252">
        <ele>253.44</ele>
        <time>2015-05-24T09:29:26Z</time>
      </trkpt>
      <trkpt lat="46.040460979565978" lon="9.304348630830646">
        <ele>253.44</ele>
        <time>2015-05-24T09:29:37Z</time>
      </trkpt>
      <trkpt lat="46.040463577955961" lon="9.304346619173884">
        <ele>253.44</ele>
        <time>2015-05-24T09:29:39Z</time>
      </trkpt>
      <trkpt lat="46.040480593219399" lon="9.304343517869711">
        <ele>253.93000000000001</ele>
        <time>2015-05-24T09:29:49Z</time>
      </trkpt>
      <trkpt lat="46.040469110012054" lon="9.304361958056688">
        <ele>253.93000000000001</ele>
        <time>2015-05-24T09:30:11Z</time>
      </trkpt>
      <trkpt lat="46.040457123890519" lon="9.304378051310778">
        <ele>253.93000000000001</ele>
        <time>2015-05-24T09:30:31Z</time>
      </trkpt>
      <trkpt lat="46.040477324277163" lon="9.304391546174884">
        <ele>254.41</ele>
        <time>2015-05-24T09:30:58Z</time>
      </trkpt>
      <trkpt lat="46.04055636562407" lon="9.304460696876049">
        <ele>255.37</ele>
        <time>2015-05-24T09:31:14Z</time>
      </trkpt>
      <trkpt lat="46.040562903508544" lon="9.304466648027301">
        <ele>254.88999999999999</ele>
        <time>2015-05-24T09:31:15Z</time>
      </trkpt>
      <trkpt lat="46.040685446932912" lon="9.304601764306426">
        <ele>255.84999999999999</ele>
        <time>2015-05-24T09:31:30Z</time>
      </trkpt>
      <trkpt lat="46.040792483836412" lon="9.304677452892065">
        <ele>256.32999999999998</ele>
        <time>2015-05-24T09:31:43Z</time>
      </trkpt>
      <trkpt lat="46.040949141606688" lon="9.30474660359323">
        <ele>257.29000000000002</ele>
        <time>2015-05-24T09:31:57Z</time>
      </trkpt>
      <trkpt lat="46.041069757193327" lon="9.304826483130455">
        <ele>258.25</ele>
        <time>2015-05-24T09:32:08Z</time>
      </trkpt>
      <trkpt lat="46.041203700006008" lon="9.304932598024607">
        <ele>259.20999999999998</ele>
        <time>2015-05-24T09:32:21Z</time>
      </trkpt>
      <trkpt lat="46.041298834607005" lon="9.305035108700395">
        <ele>259.69</ele>
        <time>2015-05-24T09:32:32Z</time>
      </trkpt>
      <trkpt lat="46.04136161506176" lon="9.305089507251978">
        <ele>259.20999999999998</ele>
        <time>2015-05-24T09:32:42Z</time>
      </trkpt>
      <trkpt lat="46.041440404951572" lon="9.305109707638621">
        <ele>257.29000000000002</ele>
        <time>2015-05-24T09:32:52Z</time>
      </trkpt>
      <trkpt lat="46.04157174937427" lon="9.305147845298052">
        <ele>253.93000000000001</ele>
        <time>2015-05-24T09:33:05Z</time>
      </trkpt>
      <trkpt lat="46.04162304662168" lon="9.305161507800221">
        <ele>253.93000000000001</ele>
        <time>2015-05-24T09:33:10Z</time>
      </trkpt>
      <trkpt lat="46.041702339425683" lon="9.305186402052641">
        <ele>252.96000000000001</ele>
        <time>2015-05-24T09:33:17Z</time>
      </trkpt>
      <trkpt lat="46.041850782930851" lon="9.305212469771504">
        <ele>252.47999999999999</ele>
        <time>2015-05-24T09:33:30Z</time>
      </trkpt>
      <trkpt lat="46.041999561712146" lon="9.305207105353475">
        <ele>252</ele>
        <time>2015-05-24T09:33:43Z</time>
      </trkpt>
      <trkpt lat="46.042193518951535" lon="9.305207775905728">
        <ele>251.52000000000001</ele>
        <time>2015-05-24T09:33:57Z</time>
      </trkpt>
      <trkpt lat="46.04222159832716" lon="9.305214649066329">
        <ele>251.03999999999999</ele>
        <time>2015-05-24T09:33:59Z</time>
      </trkpt>
      <trkpt lat="46.042274320498109" lon="9.30526259355247">
        <ele>250.56</ele>
        <time>2015-05-24T09:34:03Z</time>
      </trkpt>
      <trkpt lat="46.04228219948709" lon="9.305332582443953">
        <ele>250.56</ele>
        <time>2015-05-24T09:34:07Z</time>
      </trkpt>
      <trkpt lat="46.042283121496439" lon="9.305410869419575">
        <ele>251.52000000000001</ele>
        <time>2015-05-24T09:34:12Z</time>
      </trkpt>
      <trkpt lat="46.042304998263717" lon="9.305440289899707">
        <ele>250.08000000000001</ele>
        <time>2015-05-24T09:34:15Z</time>
      </trkpt>
      <trkpt lat="46.042377250269055" lon="9.305454287678003">
        <ele>249.59999999999999</ele>
        <time>2015-05-24T09:34:25Z</time>
      </trkpt>
      <trkpt lat="46.042485460639" lon="9.305348675698042">
        <ele>248.16</ele>
        <time>2015-05-24T09:34:36Z</time>
      </trkpt>
      <trkpt lat="46.042533405125141" lon="9.305252535268664">
        <ele>247.68000000000001</ele>
        <time>2015-05-24T09:34:46Z</time>
      </trkpt>
      <trkpt lat="46.042549246922135" lon="9.30532026104629">
        <ele>248.16</ele>
        <time>2015-05-24T09:34:57Z</time>
      </trkpt>
      <trkpt lat="46.042565423995256" lon="9.30533098988235">
        <ele>248.16</ele>
        <time>2015-05-24T09:35:18Z</time>
      </trkpt>
      <trkpt lat="46.042503397911787" lon="9.305360578000546">
        <ele>247.68000000000001</ele>
        <time>2015-05-24T09:35:42Z</time>
      </trkpt>
      <trkpt lat="46.042468193918467" lon="9.305402738973498">
        <ele>247.68000000000001</ele>
        <time>2015-05-24T09:35:59Z</time>
      </trkpt>
      <trkpt lat="46.042536506429315" lon="9.305306263267994">
        <ele>247.68000000000001</ele>
        <time>2015-05-24T09:36:21Z</time>
      </trkpt>
      <trkpt lat="46.042493507266045" lon="9.305253541097045">
        <ele>247.19999999999999</ele>
        <time>2015-05-24T09:36:31Z</time>
      </trkpt>
      <trkpt lat="46.042470876127481" lon="9.305294612422586">
        <ele>247.68000000000001</ele>
        <time>2015-05-24T09:36:34Z</time>
      </trkpt>
      <trkpt lat="46.042398205026984" lon="9.305420173332095">
        <ele>248.16</ele>
        <time>2015-05-24T09:36:46Z</time>
      </trkpt>
      <trkpt lat="46.042373310774565" lon="9.305463088676333">
        <ele>249.12</ele>
        <time>2015-05-24T09:36:56Z</time>
      </trkpt>
      <trkpt lat="46.042393008247018" lon="9.30543358437717">
        <ele>249.12</ele>
        <time>2015-05-24T09:37:09Z</time>
      </trkpt>
      <trkpt lat="46.042379848659039" lon="9.305429812520742">
        <ele>249.59999999999999</ele>
        <time>2015-05-24T09:37:16Z</time>
      </trkpt>
      <trkpt lat="46.042446149513125" lon="9.305389663204551">
        <ele>248.63999999999999</ele>
        <time>2015-05-24T09:37:32Z</time>
      </trkpt>
      <trkpt lat="46.042484454810619" lon="9.305277932435274">
        <ele>247.68000000000001</ele>
        <time>2015-05-24T09:37:43Z</time>
      </trkpt>
      <trkpt lat="46.042530052363873" lon="9.305229568853974">
        <ele>247.68000000000001</ele>
        <time>2015-05-24T09:37:51Z</time>
      </trkpt>
      <trkpt lat="46.042588977143168" lon="9.305286314338446">
        <ele>247.68000000000001</ele>
        <time>2015-05-24T09:37:59Z</time>
      </trkpt>
      <trkpt lat="46.042587133124471" lon="9.305294109508395">
        <ele>247.68000000000001</ele>
        <time>2015-05-24T09:38:09Z</time>
      </trkpt>
      <trkpt lat="46.042565172538161" lon="9.305311795324087">
        <ele>246.72</ele>
        <time>2015-05-24T09:38:27Z</time>
      </trkpt>
      <trkpt lat="46.042590821161866" lon="9.305297043174505">
        <ele>248.16</ele>
        <time>2015-05-24T09:38:41Z</time>
      </trkpt>
      <trkpt lat="46.042595934122801" lon="9.305218337103725">
        <ele>247.68000000000001</ele>
        <time>2015-05-24T09:38:51Z</time>
      </trkpt>
      <trkpt lat="46.042598783969879" lon="9.305242309346795">
        <ele>247.68000000000001</ele>
        <time>2015-05-24T09:39:07Z</time>
      </trkpt>
      <trkpt lat="46.042642202228308" lon="9.305260833352804">
        <ele>248.16</ele>
        <time>2015-05-24T09:39:12Z</time>
      </trkpt>
      <trkpt lat="46.042628204450011" lon="9.305268963798881">
        <ele>248.16</ele>
        <time>2015-05-24T09:39:23Z</time>
      </trkpt>
      <trkpt lat="46.042610686272383" lon="9.305262761190534">
        <ele>248.16</ele>
        <time>2015-05-24T09:39:26Z</time>
      </trkpt>
      <trkpt lat="46.042513623833656" lon="9.305186402052641">
        <ele>246.72</ele>
        <time>2015-05-24T09:39:39Z</time>
      </trkpt>
      <trkpt lat="46.042547486722469" lon="9.305158406496048">
        <ele>245.75</ele>
        <time>2015-05-24T09:39:51Z</time>
      </trkpt>
      <trkpt lat="46.042558634653687" lon="9.30512479506433">
        <ele>245.27000000000001</ele>
        <time>2015-05-24T09:40:01Z</time>
      </trkpt>
      <trkpt lat="46.042575566098094" lon="9.305129740387201">
        <ele>245.27000000000001</ele>
        <time>2015-05-24T09:40:18Z</time>
      </trkpt>
      <trkpt lat="46.042594509199262" lon="9.305156897753477">
        <ele>245.27000000000001</ele>
        <time>2015-05-24T09:40:33Z</time>
      </trkpt>
      <trkpt lat="46.042608758434653" lon="9.305221773684025">
        <ele>246.72</ele>
        <time>2015-05-24T09:40:44Z</time>
      </trkpt>
      <trkpt lat="46.042577745392919" lon="9.305273238569498">
        <ele>247.19999999999999</ele>
        <time>2015-05-24T09:40:56Z</time>
      </trkpt>
      <trkpt lat="46.042563244700432" lon="9.305253205820918">
        <ele>247.68000000000001</ele>
        <time>2015-05-24T09:41:12Z</time>
      </trkpt>
      <trkpt lat="46.042586797848344" lon="9.305263012647629">
        <ele>247.19999999999999</ele>
        <time>2015-05-24T09:41:25Z</time>
      </trkpt>
      <trkpt lat="46.042598113417625" lon="9.305282542482019">
        <ele>247.68000000000001</ele>
        <time>2015-05-24T09:41:36Z</time>
      </trkpt>
      <trkpt lat="46.042593671008945" lon="9.305273490026593">
        <ele>247.68000000000001</ele>
        <time>2015-05-24T09:41:48Z</time>
      </trkpt>
      <trkpt lat="46.042557712644339" lon="9.305245410650969">
        <ele>247.19999999999999</ele>
        <time>2015-05-24T09:41:57Z</time>
      </trkpt>
      <trkpt lat="46.042556371539831" lon="9.30522252805531">
        <ele>247.19999999999999</ele>
        <time>2015-05-24T09:42:11Z</time>
      </trkpt>
      <trkpt lat="46.042560562491417" lon="9.305237447842956">
        <ele>247.19999999999999</ele>
        <time>2015-05-24T09:42:23Z</time>
      </trkpt>
      <trkpt lat="46.042564585804939" lon="9.30521565489471">
        <ele>247.19999999999999</ele>
        <time>2015-05-24T09:42:38Z</time>
      </trkpt>
      <trkpt lat="46.042554527521133" lon="9.305185815319419">
        <ele>247.19999999999999</ele>
        <time>2015-05-24T09:42:55Z</time>
      </trkpt>
      <trkpt lat="46.042561735957861" lon="9.305144743993878">
        <ele>247.19999999999999</ele>
        <time>2015-05-24T09:43:13Z</time>
      </trkpt>
      <trkpt lat="46.042573470622301" lon="9.305172823369503">
        <ele>246.72</ele>
        <time>2015-05-24T09:43:28Z</time>
      </trkpt>
      <trkpt lat="46.042557209730148" lon="9.305194448679686">
        <ele>247.19999999999999</ele>
        <time>2015-05-24T09:43:41Z</time>
      </trkpt>
      <trkpt lat="46.04253776371479" lon="9.305167961865664">
        <ele>247.68000000000001</ele>
        <time>2015-05-24T09:43:53Z</time>
      </trkpt>
      <trkpt lat="46.042558802291751" lon="9.305154969915748">
        <ele>246.72</ele>
        <time>2015-05-24T09:44:06Z</time>
      </trkpt>
      <trkpt lat="46.042561233043671" lon="9.305148934945464">
        <ele>246.72</ele>
        <time>2015-05-24T09:44:14Z</time>
      </trkpt>
      <trkpt lat="46.042595850303769" lon="9.305120771750808">
        <ele>244.31</ele>
        <time>2015-05-24T09:44:23Z</time>
      </trkpt>
      <trkpt lat="46.042631976306438" lon="9.305149102583528">
        <ele>241.43000000000001</ele>
        <time>2015-05-24T09:44:35Z</time>
      </trkpt>
      <trkpt lat="46.042577745392919" lon="9.305080203339458">
        <ele>239.99000000000001</ele>
        <time>2015-05-24T09:44:46Z</time>
      </trkpt>
      <trkpt lat="46.042548408731818" lon="9.305005520582199">
        <ele>237.09999999999999</ele>
        <time>2015-05-24T09:44:56Z</time>
      </trkpt>
      <trkpt lat="46.042684698477387" lon="9.304933520033956">
        <ele>234.69999999999999</ele>
        <time>2015-05-24T09:45:07Z</time>
      </trkpt>
      <trkpt lat="46.04269701987505" lon="9.304901249706745">
        <ele>233.25999999999999</ele>
        <time>2015-05-24T09:45:18Z</time>
      </trkpt>
      <trkpt lat="46.042660139501095" lon="9.304919689893723">
        <ele>232.78</ele>
        <time>2015-05-24T09:45:41Z</time>
      </trkpt>
      <trkpt lat="46.042659888044" lon="9.304885240271688">
        <ele>232.78</ele>
        <time>2015-05-24T09:46:02Z</time>
      </trkpt>
      <trkpt lat="46.042744880542159" lon="9.304776694625616">
        <ele>229.41</ele>
        <time>2015-05-24T09:46:10Z</time>
      </trkpt>
      <trkpt lat="46.04274152778089" lon="9.304707543924451">
        <ele>226.53</ele>
        <time>2015-05-24T09:46:20Z</time>
      </trkpt>
      <trkpt lat="46.042674137279391" lon="9.304596986621618">
        <ele>224.12</ele>
        <time>2015-05-24T09:46:32Z</time>
      </trkpt>
      <trkpt lat="46.042585205286741" lon="9.3046566657722">
        <ele>224.12</ele>
        <time>2015-05-24T09:46:52Z</time>
      </trkpt>
      <trkpt lat="46.042568944394588" lon="9.304681224748492">
        <ele>224.61000000000001</ele>
        <time>2015-05-24T09:47:02Z</time>
      </trkpt>
      <trkpt lat="46.042590904980898" lon="9.304700754582882">
        <ele>224.61000000000001</ele>
        <time>2015-05-24T09:47:17Z</time>
      </trkpt>
      <trkpt lat="46.042582942172885" lon="9.304681811481714">
        <ele>224.12</ele>
        <time>2015-05-24T09:47:35Z</time>
      </trkpt>
      <trkpt lat="46.042578164488077" lon="9.304587263613939">
        <ele>224.12</ele>
        <time>2015-05-24T09:47:46Z</time>
      </trkpt>
      <trkpt lat="46.042590653523803" lon="9.304683823138475">
        <ele>224.12</ele>
        <time>2015-05-24T09:47:59Z</time>
      </trkpt>
      <trkpt lat="46.042573219165206" lon="9.30473729968071">
        <ele>224.61000000000001</ele>
        <time>2015-05-24T09:48:16Z</time>
      </trkpt>
      <trkpt lat="46.04254656471312" lon="9.304747274145484">
        <ele>224.61000000000001</ele>
        <time>2015-05-24T09:48:27Z</time>
      </trkpt>
      <trkpt lat="46.042514545843005" lon="9.304792368784547">
        <ele>226.53</ele>
        <time>2015-05-24T09:48:41Z</time>
      </trkpt>
      <trkpt lat="46.042522424831986" lon="9.304827991873026">
        <ele>227.00999999999999</ele>
        <time>2015-05-24T09:48:51Z</time>
      </trkpt>
      <trkpt lat="46.042477833107114" lon="9.304876523092389">
        <ele>227.97</ele>
        <time>2015-05-24T09:49:02Z</time>
      </trkpt>
      <trkpt lat="46.042443970218301" lon="9.304855149239302">
        <ele>227.97</ele>
        <time>2015-05-24T09:49:15Z</time>
      </trkpt>
      <trkpt lat="46.042414549738169" lon="9.304890520870686">
        <ele>227.97</ele>
        <time>2015-05-24T09:49:27Z</time>
      </trkpt>
      <trkpt lat="46.042382782325149" lon="9.304885910823941">
        <ele>228.93000000000001</ele>
        <time>2015-05-24T09:49:40Z</time>
      </trkpt>
      <trkpt lat="46.042417734861374" lon="9.304918851703405">
        <ele>228.44999999999999</ele>
        <time>2015-05-24T09:49:55Z</time>
      </trkpt>
      <trkpt lat="46.042437432333827" lon="9.304941231384873">
        <ele>228.93000000000001</ele>
        <time>2015-05-24T09:50:08Z</time>
      </trkpt>
      <trkpt lat="46.042433576658368" lon="9.30494693107903">
        <ele>228.93000000000001</ele>
        <time>2015-05-24T09:50:10Z</time>
      </trkpt>
      <trkpt lat="46.042397199198604" lon="9.305050782859325">
        <ele>228.93000000000001</ele>
        <time>2015-05-24T09:50:23Z</time>
      </trkpt>
      <trkpt lat="46.042336681857705" lon="9.305116832256317">
        <ele>228.44999999999999</ele>
        <time>2015-05-24T09:50:37Z</time>
      </trkpt>
      <trkpt lat="46.042292509227991" lon="9.305132757872343">
        <ele>228.93000000000001</ele>
        <time>2015-05-24T09:50:48Z</time>
      </trkpt>
      <trkpt lat="46.042266525328159" lon="9.305171146988869">
        <ele>228.93000000000001</ele>
        <time>2015-05-24T09:51:02Z</time>
      </trkpt>
      <trkpt lat="46.042284043505788" lon="9.305177098140121">
        <ele>228.93000000000001</ele>
        <time>2015-05-24T09:51:23Z</time>
      </trkpt>
      <trkpt lat="46.042295275256038" lon="9.305223952978849">
        <ele>228.93000000000001</ele>
        <time>2015-05-24T09:51:40Z</time>
      </trkpt>
      <trkpt lat="46.042321091517806" lon="9.305286230519414">
        <ele>229.41</ele>
        <time>2015-05-24T09:51:42Z</time>
      </trkpt>
      <trkpt lat="46.042002160102129" lon="9.305471805855632">
        <ele>229.41</ele>
        <time>2015-05-24T09:52:06Z</time>
      </trkpt>
      <trkpt lat="46.042292676866055" lon="9.30535688996315">
        <ele>228.44999999999999</ele>
        <time>2015-05-24T09:52:16Z</time>
      </trkpt>
      <trkpt lat="46.042389823123813" lon="9.305333588272333">
        <ele>228.93000000000001</ele>
        <time>2015-05-24T09:52:30Z</time>
      </trkpt>
      <trkpt lat="46.042392756789923" lon="9.305342053994536">
        <ele>229.41</ele>
        <time>2015-05-24T09:52:32Z</time>
      </trkpt>
      <trkpt lat="46.042439360171556" lon="9.305462837219238">
        <ele>229.41</ele>
        <time>2015-05-24T09:52:50Z</time>
      </trkpt>
      <trkpt lat="46.042409772053361" lon="9.305588146671653">
        <ele>228.93000000000001</ele>
        <time>2015-05-24T09:53:03Z</time>
      </trkpt>
      <trkpt lat="46.042423183098435" lon="9.305633492767811">
        <ele>228.93000000000001</ele>
        <time>2015-05-24T09:53:24Z</time>
      </trkpt>
      <trkpt lat="46.042430307716131" lon="9.305615806952119">
        <ele>229.41</ele>
        <time>2015-05-24T09:53:38Z</time>
      </trkpt>
      <trkpt lat="46.04240239597857" lon="9.305631648749113">
        <ele>229.41</ele>
        <time>2015-05-24T09:53:55Z</time>
      </trkpt>
      <trkpt lat="46.042376914992929" lon="9.305677162483335">
        <ele>229.41</ele>
        <time>2015-05-24T09:54:13Z</time>
      </trkpt>
      <trkpt lat="46.042318157851696" lon="9.30565545335412">
        <ele>229.88999999999999</ele>
        <time>2015-05-24T09:54:24Z</time>
      </trkpt>
      <trkpt lat="46.042264010757208" lon="9.305625446140766">
        <ele>229.41</ele>
        <time>2015-05-24T09:54:43Z</time>
      </trkpt>
      <trkpt lat="46.042260155081749" lon="9.305592505261302">
        <ele>229.88999999999999</ele>
        <time>2015-05-24T09:55:04Z</time>
      </trkpt>
      <trkpt lat="46.042292593047023" lon="9.305686550214887">
        <ele>229.88999999999999</ele>
        <time>2015-05-24T09:55:17Z</time>
      </trkpt>
      <trkpt lat="46.042264765128493" lon="9.305756622925401">
        <ele>229.88999999999999</ele>
        <time>2015-05-24T09:55:33Z</time>
      </trkpt>
      <trkpt lat="46.042250683531165" lon="9.305782774463296">
        <ele>229.41</ele>
        <time>2015-05-24T09:55:48Z</time>
      </trkpt>
      <trkpt lat="46.042231991887093" lon="9.30577514693141">
        <ele>229.41</ele>
        <time>2015-05-24T09:55:56Z</time>
      </trkpt>
      <trkpt lat="46.042212378233671" lon="9.305907916277647">
        <ele>230.84999999999999</ele>
        <time>2015-05-24T09:56:06Z</time>
      </trkpt>
      <trkpt lat="46.042240960523486" lon="9.305962398648262">
        <ele>231.33000000000001</ele>
        <time>2015-05-24T09:56:23Z</time>
      </trkpt>
      <trkpt lat="46.042222185060382" lon="9.30596767924726">
        <ele>232.30000000000001</ele>
        <time>2015-05-24T09:56:38Z</time>
      </trkpt>
      <trkpt lat="46.042106179520488" lon="9.305856954306364">
        <ele>232.30000000000001</ele>
        <time>2015-05-24T09:56:56Z</time>
      </trkpt>
      <trkpt lat="46.042052032426" lon="9.305724520236254">
        <ele>233.25999999999999</ele>
        <time>2015-05-24T09:57:06Z</time>
      </trkpt>
      <trkpt lat="46.042060246691108" lon="9.305710271000862">
        <ele>233.74000000000001</ele>
        <time>2015-05-24T09:57:09Z</time>
      </trkpt>
      <trkpt lat="46.042127469554543" lon="9.305716641247273">
        <ele>235.18000000000001</ele>
        <time>2015-05-24T09:57:19Z</time>
      </trkpt>
      <trkpt lat="46.04218790307641" lon="9.305756706744432">
        <ele>235.18000000000001</ele>
        <time>2015-05-24T09:57:36Z</time>
      </trkpt>
      <trkpt lat="46.042206427082419" lon="9.305768106132746">
        <ele>234.69999999999999</ele>
        <time>2015-05-24T09:57:49Z</time>
      </trkpt>
      <trkpt lat="46.042200140655041" lon="9.305758466944099">
        <ele>235.18000000000001</ele>
        <time>2015-05-24T09:58:02Z</time>
      </trkpt>
      <trkpt lat="46.042223526164889" lon="9.305774224922061">
        <ele>235.18000000000001</ele>
        <time>2015-05-24T09:58:17Z</time>
      </trkpt>
      <trkpt lat="46.042217826470733" lon="9.30576735176146">
        <ele>235.18000000000001</ele>
        <time>2015-05-24T09:58:25Z</time>
      </trkpt>
      <trkpt lat="46.042235512286425" lon="9.305769447237253">
        <ele>235.66</ele>
        <time>2015-05-24T09:58:27Z</time>
      </trkpt>
      <trkpt lat="46.042304327711463" lon="9.305750504136086">
        <ele>239.02000000000001</ele>
        <time>2015-05-24T09:58:39Z</time>
      </trkpt>
      <trkpt lat="46.04230273514986" lon="9.305843291804195">
        <ele>239.02000000000001</ele>
        <time>2015-05-24T09:58:48Z</time>
      </trkpt>
      <trkpt lat="46.042297706007957" lon="9.305988131090999">
        <ele>238.53999999999999</ele>
        <time>2015-05-24T09:59:00Z</time>
      </trkpt>
      <trkpt lat="46.042288402095437" lon="9.306000284850597">
        <ele>238.53999999999999</ele>
        <time>2015-05-24T09:59:01Z</time>
      </trkpt>
      <trkpt lat="46.042144652456045" lon="9.306073375046253">
        <ele>238.53999999999999</ele>
        <time>2015-05-24T09:59:14Z</time>
      </trkpt>
      <trkpt lat="46.042093439027667" lon="9.306090893223882">
        <ele>238.53999999999999</ele>
        <time>2015-05-24T09:59:19Z</time>
      </trkpt>
      <trkpt lat="46.041963854804635" lon="9.306089803576469">
        <ele>238.53999999999999</ele>
        <time>2015-05-24T09:59:31Z</time>
      </trkpt>
      <trkpt lat="46.041872156783938" lon="9.30599257349968">
        <ele>238.06</ele>
        <time>2015-05-24T09:59:47Z</time>
      </trkpt>
      <trkpt lat="46.041993359103799" lon="9.306084103882313">
        <ele>238.06</ele>
        <time>2015-05-24T10:00:03Z</time>
      </trkpt>
      <trkpt lat="46.042064102366567" lon="9.306155098602176">
        <ele>238.06</ele>
        <time>2015-05-24T10:00:17Z</time>
      </trkpt>
      <trkpt lat="46.042080447077751" lon="9.306161552667618">
        <ele>238.06</ele>
        <time>2015-05-24T10:00:37Z</time>
      </trkpt>
      <trkpt lat="46.04206477291882" lon="9.306211760267615">
        <ele>238.06</ele>
        <time>2015-05-24T10:00:55Z</time>
      </trkpt>
      <trkpt lat="46.042034681886435" lon="9.306249981746078">
        <ele>238.06</ele>
        <time>2015-05-24T10:01:05Z</time>
      </trkpt>
      <trkpt lat="46.042061084881425" lon="9.306245371699333">
        <ele>238.06</ele>
        <time>2015-05-24T10:01:23Z</time>
      </trkpt>
      <trkpt lat="46.042013224214315" lon="9.306171694770455">
        <ele>238.06</ele>
        <time>2015-05-24T10:01:41Z</time>
      </trkpt>
      <trkpt lat="46.042040046304464" lon="9.306196253746748">
        <ele>238.06</ele>
        <time>2015-05-24T10:01:52Z</time>
      </trkpt>
      <trkpt lat="46.042059408500791" lon="9.306184099987149">
        <ele>238.06</ele>
        <time>2015-05-24T10:01:56Z</time>
      </trkpt>
      <trkpt lat="46.042109532281756" lon="9.30614747107029">
        <ele>238.06</ele>
        <time>2015-05-24T10:02:07Z</time>
      </trkpt>
      <trkpt lat="46.042128978297114" lon="9.306110758334398">
        <ele>238.53999999999999</ele>
        <time>2015-05-24T10:02:12Z</time>
      </trkpt>
      <trkpt lat="46.042215060442686" lon="9.306069351732731">
        <ele>238.06</ele>
        <time>2015-05-24T10:02:19Z</time>
      </trkpt>
      <trkpt lat="46.042239367961884" lon="9.306052839383483">
        <ele>238.06</ele>
        <time>2015-05-24T10:02:30Z</time>
      </trkpt>
      <trkpt lat="46.042246660217643" lon="9.306023167446256">
        <ele>238.53999999999999</ele>
        <time>2015-05-24T10:02:35Z</time>
      </trkpt>
      <trkpt lat="46.042253533378243" lon="9.305992238223553">
        <ele>238.06</ele>
        <time>2015-05-24T10:02:38Z</time>
      </trkpt>
      <trkpt lat="46.042255964130163" lon="9.305966170504689">
        <ele>238.53999999999999</ele>
        <time>2015-05-24T10:02:40Z</time>
      </trkpt>
      <trkpt lat="46.042270297184587" lon="9.305750001221895">
        <ele>239.02000000000001</ele>
        <time>2015-05-24T10:02:53Z</time>
      </trkpt>
      <trkpt lat="46.042271386831999" lon="9.305713456124067">
        <ele>239.02000000000001</ele>
        <time>2015-05-24T10:03:06Z</time>
      </trkpt>
      <trkpt lat="46.042251605540514" lon="9.305715886875987">
        <ele>239.02000000000001</ele>
        <time>2015-05-24T10:03:19Z</time>
      </trkpt>
      <trkpt lat="46.042254623025656" lon="9.305662661790848">
        <ele>239.02000000000001</ele>
        <time>2015-05-24T10:03:27Z</time>
      </trkpt>
      <trkpt lat="46.042302902787924" lon="9.305632654577494">
        <ele>239.50999999999999</ele>
        <time>2015-05-24T10:03:31Z</time>
      </trkpt>
      <trkpt lat="46.042415387928486" lon="9.305574567988515">
        <ele>241.43000000000001</ele>
        <time>2015-05-24T10:03:41Z</time>
      </trkpt>
      <trkpt lat="46.042404072359204" lon="9.305512206628919">
        <ele>242.38999999999999</ele>
        <time>2015-05-24T10:03:47Z</time>
      </trkpt>
      <trkpt lat="46.042389068752527" lon="9.305494101718068">
        <ele>242.87</ele>
        <time>2015-05-24T10:03:49Z</time>
      </trkpt>
      <trkpt lat="46.042379345744848" lon="9.305422520264983">
        <ele>242.87</ele>
        <time>2015-05-24T10:04:02Z</time>
      </trkpt>
      <trkpt lat="46.042392337694764" lon="9.305439200252295">
        <ele>242.87</ele>
        <time>2015-05-24T10:04:04Z</time>
      </trkpt>
      <trkpt lat="46.0424077603966" lon="9.305460741743445">
        <ele>243.34999999999999</ele>
        <time>2015-05-24T10:04:06Z</time>
      </trkpt>
      <trkpt lat="46.042413963004947" lon="9.305597618222237">
        <ele>242.87</ele>
        <time>2015-05-24T10:04:15Z</time>
      </trkpt>
      <trkpt lat="46.042406754568219" lon="9.305629134178162">
        <ele>240.94999999999999</ele>
        <time>2015-05-24T10:04:17Z</time>
      </trkpt>
      <trkpt lat="46.042391918599606" lon="9.305675737559795">
        <ele>240.47</ele>
        <time>2015-05-24T10:04:22Z</time>
      </trkpt>
      <trkpt lat="46.042391750961542" lon="9.305693591013551">
        <ele>239.99000000000001</ele>
        <time>2015-05-24T10:04:23Z</time>
      </trkpt>
      <trkpt lat="46.042385045439005" lon="9.305706918239594">
        <ele>239.50999999999999</ele>
        <time>2015-05-24T10:04:24Z</time>
      </trkpt>
      <trkpt lat="46.042376160621643" lon="9.305718652904034">
        <ele>240.47</ele>
        <time>2015-05-24T10:04:25Z</time>
      </trkpt>
      <trkpt lat="46.042371215298772" lon="9.305731225758791">
        <ele>239.50999999999999</ele>
        <time>2015-05-24T10:04:26Z</time>
      </trkpt>
      <trkpt lat="46.042355960235" lon="9.305750587955117">
        <ele>239.02000000000001</ele>
        <time>2015-05-24T10:04:28Z</time>
      </trkpt>
      <trkpt lat="46.04234715923667" lon="9.305762741714716">
        <ele>239.02000000000001</ele>
        <time>2015-05-24T10:04:29Z</time>
      </trkpt>
      <trkpt lat="46.042339531704783" lon="9.305775314569473">
        <ele>238.53999999999999</ele>
        <time>2015-05-24T10:04:30Z</time>
      </trkpt>
      <trkpt lat="46.042315978556871" lon="9.305797442793846">
        <ele>239.02000000000001</ele>
        <time>2015-05-24T10:04:40Z</time>
      </trkpt>
      <trkpt lat="46.042341208085418" lon="9.305818565189838">
        <ele>238.53999999999999</ele>
        <time>2015-05-24T10:04:57Z</time>
      </trkpt>
      <trkpt lat="46.042343303561211" lon="9.305896516889334">
        <ele>235.66</ele>
        <time>2015-05-24T10:05:05Z</time>
      </trkpt>
      <trkpt lat="46.042296700179577" lon="9.305974049493671">
        <ele>232.30000000000001</ele>
        <time>2015-05-24T10:05:17Z</time>
      </trkpt>
      <trkpt lat="46.042296951636672" lon="9.305862905457616">
        <ele>229.88999999999999</ele>
        <time>2015-05-24T10:05:28Z</time>
      </trkpt>
      <trkpt lat="46.042277170345187" lon="9.305862654000521">
        <ele>229.88999999999999</ele>
        <time>2015-05-24T10:05:39Z</time>
      </trkpt>
      <trkpt lat="46.042294520884752" lon="9.305810770019889">
        <ele>229.88999999999999</ele>
        <time>2015-05-24T10:05:42Z</time>
      </trkpt>
      <trkpt lat="46.042314553633332" lon="9.305795850232244">
        <ele>229.41</ele>
        <time>2015-05-24T10:05:53Z</time>
      </trkpt>
      <trkpt lat="46.042215144261718" lon="9.305705577135086">
        <ele>229.41</ele>
        <time>2015-05-24T10:06:07Z</time>
      </trkpt>
      <trkpt lat="46.042270632460713" lon="9.305605078116059">
        <ele>228.93000000000001</ele>
        <time>2015-05-24T10:06:25Z</time>
      </trkpt>
      <trkpt lat="46.04227633215487" lon="9.30557725019753">
        <ele>228.93000000000001</ele>
        <time>2015-05-24T10:06:35Z</time>
      </trkpt>
      <trkpt lat="46.042357720434666" lon="9.305596025660634">
        <ele>228.93000000000001</ele>
        <time>2015-05-24T10:06:46Z</time>
      </trkpt>
      <trkpt lat="46.042417148128152" lon="9.305594768375158">
        <ele>228.93000000000001</ele>
        <time>2015-05-24T10:06:52Z</time>
      </trkpt>
      <trkpt lat="46.04235453531146" lon="9.305415982380509">
        <ele>228.44999999999999</ele>
        <time>2015-05-24T10:07:01Z</time>
      </trkpt>
      <trkpt lat="46.042309943586588" lon="9.305329397320747">
        <ele>228.44999999999999</ele>
        <time>2015-05-24T10:07:12Z</time>
      </trkpt>
      <trkpt lat="46.042251689359546" lon="9.305315734818578">
        <ele>228.44999999999999</ele>
        <time>2015-05-24T10:07:31Z</time>
      </trkpt>
      <trkpt lat="46.042240289971232" lon="9.305182965472341">
        <ele>227.97</ele>
        <time>2015-05-24T10:07:40Z</time>
      </trkpt>
      <trkpt lat="46.042241295799613" lon="9.305172823369503">
        <ele>228.44999999999999</ele>
        <time>2015-05-24T10:07:41Z</time>
      </trkpt>
      <trkpt lat="46.042345566675067" lon="9.305025134235621">
        <ele>227.97</ele>
        <time>2015-05-24T10:07:51Z</time>
      </trkpt>
      <trkpt lat="46.042389990761876" lon="9.304960509762168">
        <ele>228.44999999999999</ele>
        <time>2015-05-24T10:07:58Z</time>
      </trkpt>
      <trkpt lat="46.042382195591927" lon="9.304861938580871">
        <ele>228.44999999999999</ele>
        <time>2015-05-24T10:08:10Z</time>
      </trkpt>
      <trkpt lat="46.042409101501107" lon="9.304846683517098">
        <ele>227.97</ele>
        <time>2015-05-24T10:08:19Z</time>
      </trkpt>
      <trkpt lat="46.042446149513125" lon="9.304821202531457">
        <ele>227.49000000000001</ele>
        <time>2015-05-24T10:08:30Z</time>
      </trkpt>
      <trkpt lat="46.042489567771554" lon="9.304856825619936">
        <ele>227.97</ele>
        <time>2015-05-24T10:08:42Z</time>
      </trkpt>
      <trkpt lat="46.042489735409617" lon="9.304875433444977">
        <ele>227.49000000000001</ele>
        <time>2015-05-24T10:08:51Z</time>
      </trkpt>
      <trkpt lat="46.042472971603274" lon="9.304848192259669">
        <ele>227.49000000000001</ele>
        <time>2015-05-24T10:09:04Z</time>
      </trkpt>
      <trkpt lat="46.042480766773224" lon="9.304775353521109">
        <ele>226.05000000000001</ele>
        <time>2015-05-24T10:09:17Z</time>
      </trkpt>
      <trkpt lat="46.042524604126811" lon="9.304692707955837">
        <ele>224.12</ele>
        <time>2015-05-24T10:09:29Z</time>
      </trkpt>
      <trkpt lat="46.042510522529483" lon="9.304660269990563">
        <ele>223.63999999999999</ele>
        <time>2015-05-24T10:09:45Z</time>
      </trkpt>
      <trkpt lat="46.042486550286412" lon="9.304618192836642">
        <ele>224.12</ele>
        <time>2015-05-24T10:10:03Z</time>
      </trkpt>
      <trkpt lat="46.042497949674726" lon="9.304589526727796">
        <ele>223.63999999999999</ele>
        <time>2015-05-24T10:10:17Z</time>
      </trkpt>
      <trkpt lat="46.042525777593255" lon="9.304584916681051">
        <ele>223.63999999999999</ele>
        <time>2015-05-24T10:10:29Z</time>
      </trkpt>
      <trkpt lat="46.042604232206941" lon="9.304617941379547">
        <ele>223.63999999999999</ele>
        <time>2015-05-24T10:10:48Z</time>
      </trkpt>
      <trkpt lat="46.04264622554183" lon="9.304606625810266">
        <ele>223.16</ele>
        <time>2015-05-24T10:10:59Z</time>
      </trkpt>
      <trkpt lat="46.04267749004066" lon="9.304611319676042">
        <ele>223.16</ele>
        <time>2015-05-24T10:11:11Z</time>
      </trkpt>
      <trkpt lat="46.042699031531811" lon="9.30465079843998">
        <ele>224.61000000000001</ele>
        <time>2015-05-24T10:11:23Z</time>
      </trkpt>
      <trkpt lat="46.04268042370677" lon="9.304756578058004">
        <ele>226.05000000000001</ele>
        <time>2015-05-24T10:11:31Z</time>
      </trkpt>
      <trkpt lat="46.042649745941162" lon="9.304830087348819">
        <ele>228.93000000000001</ele>
        <time>2015-05-24T10:11:43Z</time>
      </trkpt>
      <trkpt lat="46.042641447857022" lon="9.304894125089049">
        <ele>230.84999999999999</ele>
        <time>2015-05-24T10:11:52Z</time>
      </trkpt>
      <trkpt lat="46.04257975704968" lon="9.304967382922769">
        <ele>233.74000000000001</ele>
        <time>2015-05-24T10:12:04Z</time>
      </trkpt>
      <trkpt lat="46.042513456195593" lon="9.305014656856656">
        <ele>236.13999999999999</ele>
        <time>2015-05-24T10:12:16Z</time>
      </trkpt>
      <trkpt lat="46.042633401229978" lon="9.305163184180856">
        <ele>240.47</ele>
        <time>2015-05-24T10:12:29Z</time>
      </trkpt>
      <trkpt lat="46.04262862354517" lon="9.30520199239254">
        <ele>239.99000000000001</ele>
        <time>2015-05-24T10:12:42Z</time>
      </trkpt>
      <trkpt lat="46.042534578591585" lon="9.305115323513746">
        <ele>243.34999999999999</ele>
        <time>2015-05-24T10:12:54Z</time>
      </trkpt>
      <trkpt lat="46.042511695995927" lon="9.305178187787533">
        <ele>244.78999999999999</ele>
        <time>2015-05-24T10:13:04Z</time>
      </trkpt>
      <trkpt lat="46.042515384033322" lon="9.305248009040952">
        <ele>245.75</ele>
        <time>2015-05-24T10:13:16Z</time>
      </trkpt>
      <trkpt lat="46.042533488944173" lon="9.305239291861653">
        <ele>245.75</ele>
        <time>2015-05-24T10:13:36Z</time>
      </trkpt>
      <trkpt lat="46.04256609454751" lon="9.30530559271574">
        <ele>246.72</ele>
        <time>2015-05-24T10:13:44Z</time>
      </trkpt>
      <trkpt lat="46.0425924975425" lon="9.305316992104054">
        <ele>246.22999999999999</ele>
        <time>2015-05-24T10:13:55Z</time>
      </trkpt>
      <trkpt lat="46.042588977143168" lon="9.30533736012876">
        <ele>246.72</ele>
        <time>2015-05-24T10:14:11Z</time>
      </trkpt>
      <trkpt lat="46.042566429823637" lon="9.305329816415906">
        <ele>246.72</ele>
        <time>2015-05-24T10:14:29Z</time>
      </trkpt>
      <trkpt lat="46.042566178366542" lon="9.305402236059308">
        <ele>248.63999999999999</ele>
        <time>2015-05-24T10:14:44Z</time>
      </trkpt>
      <trkpt lat="46.042552767321467" lon="9.305369211360812">
        <ele>249.59999999999999</ele>
        <time>2015-05-24T10:14:54Z</time>
      </trkpt>
      <trkpt lat="46.042589647695422" lon="9.305392345413566">
        <ele>249.59999999999999</ele>
        <time>2015-05-24T10:15:08Z</time>
      </trkpt>
      <trkpt lat="46.042575482279062" lon="9.305371139198542">
        <ele>249.59999999999999</ele>
        <time>2015-05-24T10:15:26Z</time>
      </trkpt>
      <trkpt lat="46.042531812563539" lon="9.305282374843955">
        <ele>249.12</ele>
        <time>2015-05-24T10:15:44Z</time>
      </trkpt>
      <trkpt lat="46.042575398460031" lon="9.30532461963594">
        <ele>249.12</ele>
        <time>2015-05-24T10:16:05Z</time>
      </trkpt>
      <trkpt lat="46.042578499764204" lon="9.30553081445396">
        <ele>250.08000000000001</ele>
        <time>2015-05-24T10:16:20Z</time>
      </trkpt>
      <trkpt lat="46.042580679059029" lon="9.305642377585173">
        <ele>252</ele>
        <time>2015-05-24T10:16:30Z</time>
      </trkpt>
      <trkpt lat="46.042569782584906" lon="9.305758969858289">
        <ele>254.41</ele>
        <time>2015-05-24T10:16:43Z</time>
      </trkpt>
      <trkpt lat="46.042525442317128" lon="9.305846896022558">
        <ele>256.81</ele>
        <time>2015-05-24T10:16:55Z</time>
      </trkpt>
      <trkpt lat="46.042552012950182" lon="9.305964158847928">
        <ele>258.73000000000002</ele>
        <time>2015-05-24T10:17:05Z</time>
      </trkpt>
      <trkpt lat="46.042604064568877" lon="9.306089216843247">
        <ele>260.64999999999998</ele>
        <time>2015-05-24T10:17:17Z</time>
      </trkpt>
      <trkpt lat="46.042639017105103" lon="9.306182004511356">
        <ele>262.10000000000002</ele>
        <time>2015-05-24T10:17:27Z</time>
      </trkpt>
      <trkpt lat="46.042650667950511" lon="9.306256268173456">
        <ele>263.06</ele>
        <time>2015-05-24T10:17:37Z</time>
      </trkpt>
      <trkpt lat="46.042629880830646" lon="9.306388786062598">
        <ele>264.01999999999998</ele>
        <time>2015-05-24T10:17:49Z</time>
      </trkpt>
      <trkpt lat="46.042612195014954" lon="9.306523902341723">
        <ele>265.45999999999998</ele>
        <time>2015-05-24T10:18:00Z</time>
      </trkpt>
      <trkpt lat="46.042613619938493" lon="9.306676955893636">
        <ele>266.89999999999998</ele>
        <time>2015-05-24T10:18:12Z</time>
      </trkpt>
      <trkpt lat="46.042636083438993" lon="9.306800840422511">
        <ele>268.35000000000002</ele>
        <time>2015-05-24T10:18:23Z</time>
      </trkpt>
      <trkpt lat="46.042666425928473" lon="9.306909469887614">
        <ele>270.26999999999998</ele>
        <time>2015-05-24T10:18:35Z</time>
      </trkpt>
      <trkpt lat="46.042678663507104" lon="9.307051543146372">
        <ele>272.19</ele>
        <time>2015-05-24T10:18:45Z</time>
      </trkpt>
      <trkpt lat="46.042677741497755" lon="9.307203674688935">
        <ele>273.14999999999998</ele>
        <time>2015-05-24T10:18:56Z</time>
      </trkpt>
      <trkpt lat="46.042709508910775" lon="9.307316327467561">
        <ele>275.56</ele>
        <time>2015-05-24T10:19:07Z</time>
      </trkpt>
      <trkpt lat="46.042758207768202" lon="9.307500142604113">
        <ele>277.48000000000002</ele>
        <time>2015-05-24T10:19:20Z</time>
      </trkpt>
      <trkpt lat="46.04278159327805" lon="9.307627296075225">
        <ele>279.88</ele>
        <time>2015-05-24T10:19:31Z</time>
      </trkpt>
      <trkpt lat="46.042803889140487" lon="9.307679012417793">
        <ele>280.83999999999997</ele>
        <time>2015-05-24T10:19:36Z</time>
      </trkpt>
      <trkpt lat="46.042809253558517" lon="9.307703152298927">
        <ele>280.83999999999997</ele>
        <time>2015-05-24T10:19:38Z</time>
      </trkpt>
      <trkpt lat="46.042830040678382" lon="9.307824354618788">
        <ele>282.76999999999998</ele>
        <time>2015-05-24T10:19:50Z</time>
      </trkpt>
      <trkpt lat="46.042844289913774" lon="9.307982688769698">
        <ele>285.17000000000002</ele>
        <time>2015-05-24T10:20:01Z</time>
      </trkpt>
      <trkpt lat="46.042864322662354" lon="9.308115039020777">
        <ele>286.61000000000001</ele>
        <time>2015-05-24T10:20:13Z</time>
      </trkpt>
      <trkpt lat="46.042849319055676" lon="9.308160049840808">
        <ele>287.08999999999997</ele>
        <time>2015-05-24T10:20:22Z</time>
      </trkpt>
      <trkpt lat="46.042844373732805" lon="9.30832089856267">
        <ele>289.00999999999999</ele>
        <time>2015-05-24T10:20:32Z</time>
      </trkpt>
      <trkpt lat="46.042846804484725" lon="9.308452075347304">
        <ele>288.52999999999997</ele>
        <time>2015-05-24T10:20:40Z</time>
      </trkpt>
      <trkpt lat="46.042848816141486" lon="9.308520136401057">
        <ele>289.00999999999999</ele>
        <time>2015-05-24T10:20:45Z</time>
      </trkpt>
      <trkpt lat="46.04284998960793" lon="9.308551652356982">
        <ele>289.49000000000001</ele>
        <time>2015-05-24T10:20:47Z</time>
      </trkpt>
      <trkpt lat="46.04285778477788" lon="9.308698419481516">
        <ele>290.94</ele>
        <time>2015-05-24T10:20:58Z</time>
      </trkpt>
      <trkpt lat="46.042854012921453" lon="9.308830685913563">
        <ele>292.38</ele>
        <time>2015-05-24T10:21:07Z</time>
      </trkpt>
      <trkpt lat="46.042848816141486" lon="9.308916013687849">
        <ele>291.89999999999998</ele>
        <time>2015-05-24T10:21:13Z</time>
      </trkpt>
      <trkpt lat="46.042801877483726" lon="9.309038557112217">
        <ele>295.25999999999999</ele>
        <time>2015-05-24T10:21:26Z</time>
      </trkpt>
      <trkpt lat="46.042766841128469" lon="9.309139559045434">
        <ele>297.67000000000002</ele>
        <time>2015-05-24T10:21:36Z</time>
      </trkpt>
      <trkpt lat="46.042760638520122" lon="9.309248775243759">
        <ele>300.06999999999999</ele>
        <time>2015-05-24T10:21:46Z</time>
      </trkpt>
      <trkpt lat="46.042755357921124" lon="9.309383220970631">
        <ele>302.47000000000003</ele>
        <time>2015-05-24T10:21:58Z</time>
      </trkpt>
      <trkpt lat="46.042703222483397" lon="9.309482211247087">
        <ele>304.88</ele>
        <time>2015-05-24T10:22:10Z</time>
      </trkpt>
      <trkpt lat="46.042659301310778" lon="9.309551613405347">
        <ele>306.80000000000001</ele>
        <time>2015-05-24T10:22:22Z</time>
      </trkpt>
      <trkpt lat="46.042653601616621" lon="9.309640042483807">
        <ele>310.16000000000003</ele>
        <time>2015-05-24T10:22:33Z</time>
      </trkpt>
      <trkpt lat="46.042625941336155" lon="9.309742217883468">
        <ele>312.08999999999997</ele>
        <time>2015-05-24T10:22:47Z</time>
      </trkpt>
      <trkpt lat="46.04260616004467" lon="9.309827797114849">
        <ele>315.44999999999999</ele>
        <time>2015-05-24T10:23:01Z</time>
      </trkpt>
      <trkpt lat="46.04262032546103" lon="9.309878256171942">
        <ele>318.32999999999998</ele>
        <time>2015-05-24T10:23:15Z</time>
      </trkpt>
      <trkpt lat="46.042586714029312" lon="9.310007756575942">
        <ele>320.74000000000001</ele>
        <time>2015-05-24T10:23:29Z</time>
      </trkpt>
      <trkpt lat="46.0425665974617" lon="9.310154188424349">
        <ele>323.62</ele>
        <time>2015-05-24T10:23:44Z</time>
      </trkpt>
      <trkpt lat="46.042548911646008" lon="9.310203390195966">
        <ele>326.5</ele>
        <time>2015-05-24T10:23:57Z</time>
      </trkpt>
      <trkpt lat="46.042608758434653" lon="9.310272876173258">
        <ele>327.94999999999999</ele>
        <time>2015-05-24T10:24:10Z</time>
      </trkpt>
      <trkpt lat="46.042630635201931" lon="9.310265583917499">
        <ele>327.47000000000003</ele>
        <time>2015-05-24T10:24:13Z</time>
      </trkpt>
      <trkpt lat="46.042762817814946" lon="9.310075398534536">
        <ele>326.01999999999998</ele>
        <time>2015-05-24T10:24:26Z</time>
      </trkpt>
      <trkpt lat="46.042885445058346" lon="9.30993877351284">
        <ele>326.5</ele>
        <time>2015-05-24T10:24:40Z</time>
      </trkpt>
      <trkpt lat="46.042882259935141" lon="9.309867946431041">
        <ele>326.01999999999998</ele>
        <time>2015-05-24T10:24:52Z</time>
      </trkpt>
      <trkpt lat="46.042886786162853" lon="9.309859313070774">
        <ele>326.01999999999998</ele>
        <time>2015-05-24T10:24:53Z</time>
      </trkpt>
      <trkpt lat="46.042939843609929" lon="9.30979996919632">
        <ele>325.54000000000002</ele>
        <time>2015-05-24T10:25:01Z</time>
      </trkpt>
      <trkpt lat="46.043001785874367" lon="9.309733416885138">
        <ele>326.5</ele>
        <time>2015-05-24T10:25:14Z</time>
      </trkpt>
      <trkpt lat="46.043083174154162" lon="9.309704331681132">
        <ele>326.99000000000001</ele>
        <time>2015-05-24T10:25:25Z</time>
      </trkpt>
      <trkpt lat="46.043163221329451" lon="9.309743475168943">
        <ele>327.47000000000003</ele>
        <time>2015-05-24T10:25:36Z</time>
      </trkpt>
      <trkpt lat="46.043194402009249" lon="9.309791084378958">
        <ele>326.99000000000001</ele>
        <time>2015-05-24T10:25:49Z</time>
      </trkpt>
      <trkpt lat="46.04319448582828" lon="9.309799717739224">
        <ele>327.47000000000003</ele>
        <time>2015-05-24T10:26:00Z</time>
      </trkpt>
      <trkpt lat="46.043297164142132" lon="9.309850679710507">
        <ele>328.43000000000001</ele>
        <time>2015-05-24T10:26:10Z</time>
      </trkpt>
      <trkpt lat="46.043326836079359" lon="9.309841627255082">
        <ele>329.38999999999999</ele>
        <time>2015-05-24T10:26:19Z</time>
      </trkpt>
      <trkpt lat="46.043348796665668" lon="9.309827126562595">
        <ele>329.87</ele>
        <time>2015-05-24T10:26:32Z</time>
      </trkpt>
      <trkpt lat="46.043381150811911" lon="9.309813380241394">
        <ele>330.82999999999998</ele>
        <time>2015-05-24T10:26:42Z</time>
      </trkpt>
      <trkpt lat="46.043410822749138" lon="9.309800220653415">
        <ele>331.31</ele>
        <time>2015-05-24T10:26:54Z</time>
      </trkpt>
      <trkpt lat="46.043426496908069" lon="9.3097491748631">
        <ele>332.26999999999998</ele>
        <time>2015-05-24T10:27:08Z</time>
      </trkpt>
      <trkpt lat="46.043449798598886" lon="9.309735596179962">
        <ele>332.26999999999998</ele>
        <time>2015-05-24T10:27:40Z</time>
      </trkpt>
      <trkpt lat="46.043434543535113" lon="9.30975160561502">
        <ele>332.75</ele>
        <time>2015-05-24T10:27:56Z</time>
      </trkpt>
      <trkpt lat="46.043406296521425" lon="9.309785133227706">
        <ele>332.75</ele>
        <time>2015-05-24T10:28:20Z</time>
      </trkpt>
      <trkpt lat="46.043421803042293" lon="9.309805920347571">
        <ele>333.23000000000002</ele>
        <time>2015-05-24T10:28:31Z</time>
      </trkpt>
      <trkpt lat="46.043396824970841" lon="9.309750767424703">
        <ele>332.75</ele>
        <time>2015-05-24T10:28:46Z</time>
      </trkpt>
      <trkpt lat="46.04341191239655" lon="9.309775913134217">
        <ele>332.26999999999998</ele>
        <time>2015-05-24T10:29:04Z</time>
      </trkpt>
      <trkpt lat="46.043449966236949" lon="9.309797622263432">
        <ele>333.23000000000002</ele>
        <time>2015-05-24T10:29:22Z</time>
      </trkpt>
      <trkpt lat="46.043490702286363" lon="9.309806423261762">
        <ele>336.12</ele>
        <time>2015-05-24T10:29:33Z</time>
      </trkpt>
      <trkpt lat="46.043614754453301" lon="9.309771889820695">
        <ele>338.51999999999998</ele>
        <time>2015-05-24T10:29:47Z</time>
      </trkpt>
      <trkpt lat="46.043713744729757" lon="9.309750264510512">
        <ele>341.41000000000003</ele>
        <time>2015-05-24T10:30:02Z</time>
      </trkpt>
      <trkpt lat="46.043804604560137" lon="9.309664182364941">
        <ele>343.32999999999998</ele>
        <time>2015-05-24T10:30:14Z</time>
      </trkpt>
      <trkpt lat="46.043901164084673" lon="9.309586230665445">
        <ele>345.25</ele>
        <time>2015-05-24T10:30:26Z</time>
      </trkpt>
      <trkpt lat="46.044002333655953" lon="9.309502746909857">
        <ele>346.69</ele>
        <time>2015-05-24T10:30:38Z</time>
      </trkpt>
      <trkpt lat="46.044057151302695" lon="9.309466201812029">
        <ele>346.69</ele>
        <time>2015-05-24T10:30:44Z</time>
      </trkpt>
      <trkpt lat="46.044179610908031" lon="9.309456394985318">
        <ele>347.64999999999998</ele>
        <time>2015-05-24T10:30:56Z</time>
      </trkpt>
      <trkpt lat="46.044313972815871" lon="9.309493945911527">
        <ele>349.10000000000002</ele>
        <time>2015-05-24T10:31:09Z</time>
      </trkpt>
      <trkpt lat="46.044333167374134" lon="9.309602743014693">
        <ele>350.06</ele>
        <time>2015-05-24T10:31:15Z</time>
      </trkpt>
      <trkpt lat="46.044349428266287" lon="9.30968371219933">
        <ele>350.06</ele>
        <time>2015-05-24T10:31:21Z</time>
      </trkpt>
      <trkpt lat="46.044472893700004" lon="9.309720257297158">
        <ele>351.98000000000002</ele>
        <time>2015-05-24T10:31:34Z</time>
      </trkpt>
      <trkpt lat="46.04460222646594" lon="9.309714809060097">
        <ele>355.33999999999997</ele>
        <time>2015-05-24T10:31:48Z</time>
      </trkpt>
      <trkpt lat="46.044684872031212" lon="9.309744900092483">
        <ele>357.75</ele>
        <time>2015-05-24T10:31:59Z</time>
      </trkpt>
      <trkpt lat="46.044774055480957" lon="9.30976577103138">
        <ele>361.11000000000001</ele>
        <time>2015-05-24T10:32:13Z</time>
      </trkpt>
      <trkpt lat="46.044854689389467" lon="9.30978873744607">
        <ele>363.51999999999998</ele>
        <time>2015-05-24T10:32:24Z</time>
      </trkpt>
      <trkpt lat="46.044941190630198" lon="9.309850176796317">
        <ele>364.48000000000002</ele>
        <time>2015-05-24T10:32:35Z</time>
      </trkpt>
      <trkpt lat="46.045039091259241" lon="9.309932654723525">
        <ele>366.88</ele>
        <time>2015-05-24T10:32:47Z</time>
      </trkpt>
      <trkpt lat="46.045166412368417" lon="9.310078667476773">
        <ele>369.27999999999997</ele>
        <time>2015-05-24T10:33:02Z</time>
      </trkpt>
      <trkpt lat="46.045213267207146" lon="9.310183357447386">
        <ele>370.73000000000002</ele>
        <time>2015-05-24T10:33:15Z</time>
      </trkpt>
      <trkpt lat="46.045304210856557" lon="9.310289891436696">
        <ele>372.64999999999998</ele>
        <time>2015-05-24T10:33:30Z</time>
      </trkpt>
      <trkpt lat="46.045400518923998" lon="9.310356695204973">
        <ele>373.13</ele>
        <time>2015-05-24T10:33:41Z</time>
      </trkpt>
      <trkpt lat="46.045517278835177" lon="9.310446884483099">
        <ele>371.69</ele>
        <time>2015-05-24T10:33:51Z</time>
      </trkpt>
      <trkpt lat="46.045650048181415" lon="9.310452332720161">
        <ele>372.17000000000002</ele>
        <time>2015-05-24T10:34:03Z</time>
      </trkpt>
      <trkpt lat="46.045731771737337" lon="9.310441520065069">
        <ele>373.13</ele>
        <time>2015-05-24T10:34:12Z</time>
      </trkpt>
      <trkpt lat="46.045853057876229" lon="9.310328112915158">
        <ele>375.52999999999997</ele>
        <time>2015-05-24T10:34:24Z</time>
      </trkpt>
      <trkpt lat="46.045934613794088" lon="9.310240019112825">
        <ele>376.00999999999999</ele>
        <time>2015-05-24T10:34:33Z</time>
      </trkpt>
      <trkpt lat="46.045974176377058" lon="9.310220824554563">
        <ele>375.52999999999997</ele>
        <time>2015-05-24T10:34:47Z</time>
      </trkpt>
      <trkpt lat="46.045967722311616" lon="9.310235911980271">
        <ele>375.05000000000001</ele>
        <time>2015-05-24T10:35:00Z</time>
      </trkpt>
      <trkpt lat="46.045985827222466" lon="9.310258375480771">
        <ele>374.56999999999999</ele>
        <time>2015-05-24T10:35:23Z</time>
      </trkpt>
      <trkpt lat="46.045987503603101" lon="9.310249071568251">
        <ele>375.52999999999997</ele>
        <time>2015-05-24T10:35:29Z</time>
      </trkpt>
      <trkpt lat="46.046012984588742" lon="9.310375554487109">
        <ele>376.00999999999999</ele>
        <time>2015-05-24T10:35:40Z</time>
      </trkpt>
      <trkpt lat="46.046009967103601" lon="9.310395671054721">
        <ele>376.00999999999999</ele>
        <time>2015-05-24T10:35:51Z</time>
      </trkpt>
      <trkpt lat="46.045970907434821" lon="9.310362478718162">
        <ele>375.52999999999997</ele>
        <time>2015-05-24T10:36:11Z</time>
      </trkpt>
      <trkpt lat="46.04604952968657" lon="9.310356443747878">
        <ele>375.52999999999997</ele>
        <time>2015-05-24T10:36:19Z</time>
      </trkpt>
      <trkpt lat="46.046058079227805" lon="9.310500277206302">
        <ele>376.00999999999999</ele>
        <time>2015-05-24T10:36:28Z</time>
      </trkpt>
      <trkpt lat="46.046061515808105" lon="9.310524920001626">
        <ele>376.00999999999999</ele>
        <time>2015-05-24T10:36:30Z</time>
      </trkpt>
      <trkpt lat="46.046075765043497" lon="9.310537492856383">
        <ele>376.00999999999999</ele>
        <time>2015-05-24T10:36:33Z</time>
      </trkpt>
      <trkpt lat="46.046061431989074" lon="9.310557944700122">
        <ele>375.05000000000001</ele>
        <time>2015-05-24T10:36:42Z</time>
      </trkpt>
      <trkpt lat="46.04606025852263" lon="9.310559201985598">
        <ele>375.05000000000001</ele>
        <time>2015-05-24T10:37:02Z</time>
      </trkpt>
      <trkpt lat="46.04605439119041" lon="9.310567416250706">
        <ele>374.56999999999999</ele>
        <time>2015-05-24T10:37:20Z</time>
      </trkpt>
      <trkpt lat="46.046030418947339" lon="9.310561129823327">
        <ele>374.56999999999999</ele>
        <time>2015-05-24T10:37:39Z</time>
      </trkpt>
      <trkpt lat="46.046013236045837" lon="9.310554005205631">
        <ele>374.56999999999999</ele>
        <time>2015-05-24T10:37:59Z</time>
      </trkpt>
      <trkpt lat="46.046031005680561" lon="9.310561800375581">
        <ele>374.56999999999999</ele>
        <time>2015-05-24T10:38:17Z</time>
      </trkpt>
      <trkpt lat="46.046022204682231" lon="9.31056909263134">
        <ele>374.56999999999999</ele>
        <time>2015-05-24T10:38:36Z</time>
      </trkpt>
      <trkpt lat="46.046023294329643" lon="9.310552077367902">
        <ele>375.05000000000001</ele>
        <time>2015-05-24T10:38:53Z</time>
      </trkpt>
      <trkpt lat="46.046032346785069" lon="9.310549898073077">
        <ele>374.56999999999999</ele>
        <time>2015-05-24T10:39:15Z</time>
      </trkpt>
      <trkpt lat="46.046043494716287" lon="9.310539672151208">
        <ele>374.08999999999997</ele>
        <time>2015-05-24T10:39:44Z</time>
      </trkpt>
      <trkpt lat="46.046048272401094" lon="9.31054855696857">
        <ele>374.56999999999999</ele>
        <time>2015-05-24T10:40:13Z</time>
      </trkpt>
      <trkpt lat="46.046051625162363" lon="9.310542102903128">
        <ele>374.56999999999999</ele>
        <time>2015-05-24T10:40:41Z</time>
      </trkpt>
      <trkpt lat="46.04605246335268" lon="9.310568422079086">
        <ele>375.05000000000001</ele>
        <time>2015-05-24T10:41:03Z</time>
      </trkpt>
      <trkpt lat="46.046047853305936" lon="9.310576720163226">
        <ele>375.05000000000001</ele>
        <time>2015-05-24T10:41:26Z</time>
      </trkpt>
      <trkpt lat="46.046035699546337" lon="9.31056959554553">
        <ele>375.05000000000001</ele>
        <time>2015-05-24T10:41:47Z</time>
      </trkpt>
      <trkpt lat="46.046036453917623" lon="9.310560878366232">
        <ele>375.52999999999997</ele>
        <time>2015-05-24T10:42:14Z</time>
      </trkpt>
      <trkpt lat="46.046027736738324" lon="9.310567751526833">
        <ele>376.00999999999999</ele>
        <time>2015-05-24T10:42:41Z</time>
      </trkpt>
      <trkpt lat="46.046056738123298" lon="9.310584599152207">
        <ele>376.00999999999999</ele>
        <time>2015-05-24T10:43:06Z</time>
      </trkpt>
      <trkpt lat="46.046047518029809" lon="9.310563392937183">
        <ele>376.00999999999999</ele>
        <time>2015-05-24T10:43:31Z</time>
      </trkpt>
      <trkpt lat="46.046048020943999" lon="9.310555681586266">
        <ele>376.00999999999999</ele>
        <time>2015-05-24T10:43:55Z</time>
      </trkpt>
      <trkpt lat="46.046032849699259" lon="9.310515867546201">
        <ele>376.49000000000001</ele>
        <time>2015-05-24T10:44:22Z</time>
      </trkpt>
      <trkpt lat="46.046033604070544" lon="9.310526177287102">
        <ele>376.00999999999999</ele>
        <time>2015-05-24T10:44:50Z</time>
      </trkpt>
      <trkpt lat="46.046017929911613" lon="9.310518801212311">
        <ele>376.00999999999999</ele>
        <time>2015-05-24T10:45:14Z</time>
      </trkpt>
      <trkpt lat="46.046000327914953" lon="9.310487452894449">
        <ele>376.49000000000001</ele>
        <time>2015-05-24T10:45:45Z</time>
      </trkpt>
      <trkpt lat="46.046035951003432" lon="9.310496672987938">
        <ele>376.49000000000001</ele>
        <time>2015-05-24T10:46:13Z</time>
      </trkpt>
      <trkpt lat="46.046029413118958" lon="9.310536403208971">
        <ele>376.97000000000003</ele>
        <time>2015-05-24T10:46:43Z</time>
      </trkpt>
      <trkpt lat="46.046020779758692" lon="9.310529781505466">
        <ele>376.97000000000003</ele>
        <time>2015-05-24T10:47:12Z</time>
      </trkpt>
      <trkpt lat="46.04601725935936" lon="9.31050019338727">
        <ele>376.97000000000003</ele>
        <time>2015-05-24T10:47:47Z</time>
      </trkpt>
      <trkpt lat="46.046024048700929" lon="9.310511844232678">
        <ele>376.97000000000003</ele>
        <time>2015-05-24T10:48:16Z</time>
      </trkpt>
      <trkpt lat="46.046033436432481" lon="9.310529278591275">
        <ele>377.44999999999999</ele>
        <time>2015-05-24T10:48:41Z</time>
      </trkpt>
      <trkpt lat="46.046098815277219" lon="9.310586778447032">
        <ele>377.44999999999999</ele>
        <time>2015-05-24T10:49:07Z</time>
      </trkpt>
      <trkpt lat="46.046094121411443" lon="9.310568002983928">
        <ele>377.44999999999999</ele>
        <time>2015-05-24T10:49:29Z</time>
      </trkpt>
      <trkpt lat="46.046010889112949" lon="9.310510586947203">
        <ele>377.44999999999999</ele>
        <time>2015-05-24T10:49:52Z</time>
      </trkpt>
      <trkpt lat="46.046025725081563" lon="9.310541599988937">
        <ele>377.44999999999999</ele>
        <time>2015-05-24T10:50:23Z</time>
      </trkpt>
      <trkpt lat="46.046046176925302" lon="9.310544701293111">
        <ele>377.44999999999999</ele>
        <time>2015-05-24T10:50:48Z</time>
      </trkpt>
      <trkpt lat="46.046053385362029" lon="9.310552831739187">
        <ele>377.44999999999999</ele>
        <time>2015-05-24T10:51:11Z</time>
      </trkpt>
      <trkpt lat="46.046028742566705" lon="9.310528272762895">
        <ele>377.44999999999999</ele>
        <time>2015-05-24T10:51:43Z</time>
      </trkpt>
      <trkpt lat="46.045999908819795" lon="9.310515113174915">
        <ele>377.44999999999999</ele>
        <time>2015-05-24T10:52:10Z</time>
      </trkpt>
      <trkpt lat="46.04598012752831" lon="9.310489045456052">
        <ele>377.94</ele>
        <time>2015-05-24T10:52:37Z</time>
      </trkpt>
      <trkpt lat="46.045997058972716" lon="9.310529278591275">
        <ele>377.44999999999999</ele>
        <time>2015-05-24T10:53:02Z</time>
      </trkpt>
      <trkpt lat="46.046037040650845" lon="9.310564985498786">
        <ele>377.94</ele>
        <time>2015-05-24T10:53:25Z</time>
      </trkpt>
      <trkpt lat="46.046027317643166" lon="9.310525339096785">
        <ele>377.94</ele>
        <time>2015-05-24T10:53:51Z</time>
      </trkpt>
      <trkpt lat="46.045986749231815" lon="9.31052559055388">
        <ele>377.94</ele>
        <time>2015-05-24T10:54:21Z</time>
      </trkpt>
      <trkpt lat="46.045959424227476" lon="9.310519136488438">
        <ele>377.94</ele>
        <time>2015-05-24T10:54:41Z</time>
      </trkpt>
      <trkpt lat="46.045918017625809" lon="9.310477394610643">
        <ele>378.42000000000002</ele>
        <time>2015-05-24T10:55:09Z</time>
      </trkpt>
      <trkpt lat="46.045947941020131" lon="9.310458619147539">
        <ele>378.42000000000002</ele>
        <time>2015-05-24T10:55:30Z</time>
      </trkpt>
      <trkpt lat="46.045991694554687" lon="9.310459373518825">
        <ele>378.42000000000002</ele>
        <time>2015-05-24T10:55:51Z</time>
      </trkpt>
      <trkpt lat="46.046048691496253" lon="9.310556184500456">
        <ele>378.42000000000002</ele>
        <time>2015-05-24T10:56:13Z</time>
      </trkpt>
      <trkpt lat="46.046047182753682" lon="9.310558782890439">
        <ele>378.42000000000002</ele>
        <time>2015-05-24T10:56:44Z</time>
      </trkpt>
      <trkpt lat="46.046039471402764" lon="9.310547718778253">
        <ele>377.94</ele>
        <time>2015-05-24T10:57:10Z</time>
      </trkpt>
      <trkpt lat="46.046064952388406" lon="9.310533469542861">
        <ele>378.42000000000002</ele>
        <time>2015-05-24T10:57:40Z</time>
      </trkpt>
      <trkpt lat="46.04607442393899" lon="9.310548724606633">
        <ele>378.42000000000002</ele>
        <time>2015-05-24T10:58:08Z</time>
      </trkpt>
      <trkpt lat="46.046051122248173" lon="9.310542605817318">
        <ele>378.89999999999998</ele>
        <time>2015-05-24T10:58:32Z</time>
      </trkpt>
      <trkpt lat="46.046036118641496" lon="9.310508575290442">
        <ele>378.42000000000002</ele>
        <time>2015-05-24T10:59:03Z</time>
      </trkpt>
      <trkpt lat="46.046045254915953" lon="9.310465324670076">
        <ele>378.42000000000002</ele>
        <time>2015-05-24T10:59:30Z</time>
      </trkpt>
      <trkpt lat="46.046045254915953" lon="9.310452248901129">
        <ele>378.42000000000002</ele>
        <time>2015-05-24T10:59:54Z</time>
      </trkpt>
      <trkpt lat="46.046045003458858" lon="9.310465911403298">
        <ele>378.42000000000002</ele>
        <time>2015-05-24T11:00:15Z</time>
      </trkpt>
      <trkpt lat="46.046053301542997" lon="9.310505138710141">
        <ele>378.42000000000002</ele>
        <time>2015-05-24T11:00:39Z</time>
      </trkpt>
      <trkpt lat="46.046046428382397" lon="9.310513688251376">
        <ele>378.89999999999998</ele>
        <time>2015-05-24T11:01:08Z</time>
      </trkpt>
      <trkpt lat="46.046020276844501" lon="9.310511844232678">
        <ele>379.38</ele>
        <time>2015-05-24T11:01:29Z</time>
      </trkpt>
      <trkpt lat="46.046028155833483" lon="9.310549311339855">
        <ele>378.89999999999998</ele>
        <time>2015-05-24T11:01:48Z</time>
      </trkpt>
      <trkpt lat="46.046016002073884" lon="9.310563309118152">
        <ele>378.89999999999998</ele>
        <time>2015-05-24T11:02:12Z</time>
      </trkpt>
      <trkpt lat="46.046033101156354" lon="9.310566913336515">
        <ele>378.89999999999998</ele>
        <time>2015-05-24T11:02:30Z</time>
      </trkpt>
      <trkpt lat="46.04607149027288" lon="9.310555178672075">
        <ele>379.38</ele>
        <time>2015-05-24T11:02:59Z</time>
      </trkpt>
      <trkpt lat="46.046052630990744" lon="9.31056959554553">
        <ele>379.38</ele>
        <time>2015-05-24T11:03:21Z</time>
      </trkpt>
      <trkpt lat="46.046035867184401" lon="9.310583174228668">
        <ele>378.89999999999998</ele>
        <time>2015-05-24T11:03:34Z</time>
      </trkpt>
      <trkpt lat="46.046055648475885" lon="9.310580575838685">
        <ele>378.89999999999998</ele>
        <time>2015-05-24T11:03:52Z</time>
      </trkpt>
      <trkpt lat="46.046092277392745" lon="9.310563895851374">
        <ele>378.89999999999998</ele>
        <time>2015-05-24T11:04:13Z</time>
      </trkpt>
      <trkpt lat="46.046105269342661" lon="9.310566242784262">
        <ele>378.89999999999998</ele>
        <time>2015-05-24T11:04:35Z</time>
      </trkpt>
      <trkpt lat="46.046070400625467" lon="9.310571188107133">
        <ele>378.89999999999998</ele>
        <time>2015-05-24T11:04:57Z</time>
      </trkpt>
      <trkpt lat="46.046046009287238" lon="9.310587532818317">
        <ele>378.42000000000002</ele>
        <time>2015-05-24T11:05:15Z</time>
      </trkpt>
      <trkpt lat="46.046036453917623" lon="9.31058032438159">
        <ele>378.42000000000002</ele>
        <time>2015-05-24T11:05:34Z</time>
      </trkpt>
      <trkpt lat="46.046092361211777" lon="9.310555178672075">
        <ele>378.42000000000002</ele>
        <time>2015-05-24T11:05:50Z</time>
      </trkpt>
      <trkpt lat="46.046080458909273" lon="9.310510503128171">
        <ele>378.42000000000002</ele>
        <time>2015-05-24T11:06:12Z</time>
      </trkpt>
      <trkpt lat="46.046103928238153" lon="9.31059692054987">
        <ele>378.42000000000002</ele>
        <time>2015-05-24T11:06:30Z</time>
      </trkpt>
      <trkpt lat="46.046091858297586" lon="9.310593819245696">
        <ele>378.42000000000002</ele>
        <time>2015-05-24T11:06:53Z</time>
      </trkpt>
      <trkpt lat="46.046078866347671" lon="9.310565823689103">
        <ele>378.89999999999998</ele>
        <time>2015-05-24T11:07:19Z</time>
      </trkpt>
      <trkpt lat="46.046064114198089" lon="9.310551322996616">
        <ele>378.42000000000002</ele>
        <time>2015-05-24T11:07:44Z</time>
      </trkpt>
      <trkpt lat="46.046058582141995" lon="9.310538247227669">
        <ele>378.42000000000002</ele>
        <time>2015-05-24T11:08:09Z</time>
      </trkpt>
      <trkpt lat="46.046121194958687" lon="9.310508575290442">
        <ele>378.42000000000002</ele>
        <time>2015-05-24T11:08:37Z</time>
      </trkpt>
      <trkpt lat="46.046103341504931" lon="9.310453925281763">
        <ele>378.42000000000002</ele>
        <time>2015-05-24T11:09:01Z</time>
      </trkpt>
      <trkpt lat="46.046032765880227" lon="9.310477646067739">
        <ele>378.42000000000002</ele>
        <time>2015-05-24T11:09:13Z</time>
      </trkpt>
      <trkpt lat="46.045976942405105" lon="9.310483932495117">
        <ele>378.42000000000002</ele>
        <time>2015-05-24T11:09:17Z</time>
      </trkpt>
      <trkpt lat="46.045852638781071" lon="9.310532882809639">
        <ele>378.42000000000002</ele>
        <time>2015-05-24T11:09:35Z</time>
      </trkpt>
      <trkpt lat="46.045855153352022" lon="9.310539085417986">
        <ele>378.89999999999998</ele>
        <time>2015-05-24T11:09:59Z</time>
      </trkpt>
      <trkpt lat="46.046070484444499" lon="9.310544952750206">
        <ele>378.89999999999998</ele>
        <time>2015-05-24T11:10:23Z</time>
      </trkpt>
      <trkpt lat="46.046116165816784" lon="9.310521651059389">
        <ele>378.89999999999998</ele>
        <time>2015-05-24T11:10:46Z</time>
      </trkpt>
      <trkpt lat="46.046052630990744" lon="9.310536403208971">
        <ele>379.38</ele>
        <time>2015-05-24T11:11:11Z</time>
      </trkpt>
      <trkpt lat="46.046012984588742" lon="9.310528775677085">
        <ele>379.38</ele>
        <time>2015-05-24T11:11:29Z</time>
      </trkpt>
      <trkpt lat="46.045975182205439" lon="9.31049776263535">
        <ele>379.38</ele>
        <time>2015-05-24T11:11:53Z</time>
      </trkpt>
      <trkpt lat="46.046032262966037" lon="9.310445375740528">
        <ele>378.89999999999998</ele>
        <time>2015-05-24T11:12:11Z</time>
      </trkpt>
      <trkpt lat="46.046085320413113" lon="9.310437915846705">
        <ele>379.38</ele>
        <time>2015-05-24T11:12:29Z</time>
      </trkpt>
      <trkpt lat="46.046092193573713" lon="9.310505725443363">
        <ele>379.38</ele>
        <time>2015-05-24T11:12:48Z</time>
      </trkpt>
      <trkpt lat="46.04604659602046" lon="9.310542773455381">
        <ele>379.38</ele>
        <time>2015-05-24T11:13:10Z</time>
      </trkpt>
      <trkpt lat="46.046104766428471" lon="9.310529110953212">
        <ele>379.38</ele>
        <time>2015-05-24T11:13:36Z</time>
      </trkpt>
      <trkpt lat="46.046079285442829" lon="9.310515532270074">
        <ele>379.38</ele>
        <time>2015-05-24T11:14:00Z</time>
      </trkpt>
      <trkpt lat="46.046067802235484" lon="9.31051972322166">
        <ele>379.38</ele>
        <time>2015-05-24T11:14:24Z</time>
      </trkpt>
      <trkpt lat="46.046012649312615" lon="9.310524920001626">
        <ele>378.89999999999998</ele>
        <time>2015-05-24T11:14:50Z</time>
      </trkpt>
      <trkpt lat="46.046029413118958" lon="9.310515616089106">
        <ele>379.38</ele>
        <time>2015-05-24T11:15:20Z</time>
      </trkpt>
      <trkpt lat="46.046011475846171" lon="9.310517376288772">
        <ele>379.38</ele>
        <time>2015-05-24T11:15:50Z</time>
      </trkpt>
      <trkpt lat="46.046005608513951" lon="9.310540845617652">
        <ele>379.38</ele>
        <time>2015-05-24T11:16:21Z</time>
      </trkpt>
      <trkpt lat="46.046048775315285" lon="9.31054369546473">
        <ele>379.86000000000001</ele>
        <time>2015-05-24T11:16:49Z</time>
      </trkpt>
      <trkpt lat="46.046116584911942" lon="9.310532296076417">
        <ele>379.86000000000001</ele>
        <time>2015-05-24T11:17:15Z</time>
      </trkpt>
      <trkpt lat="46.046131001785398" lon="9.310522321611643">
        <ele>379.86000000000001</ele>
        <time>2015-05-24T11:17:44Z</time>
      </trkpt>
      <trkpt lat="46.046175425872207" lon="9.310517879202962">
        <ele>379.38</ele>
        <time>2015-05-24T11:18:11Z</time>
      </trkpt>
      <trkpt lat="46.046227645128965" lon="9.31048359721899">
        <ele>379.86000000000001</ele>
        <time>2015-05-24T11:18:36Z</time>
      </trkpt>
      <trkpt lat="46.046113315969706" lon="9.310476640239358">
        <ele>381.30000000000001</ele>
        <time>2015-05-24T11:19:00Z</time>
      </trkpt>
      <trkpt lat="46.04604416526854" lon="9.310486698523164">
        <ele>379.86000000000001</ele>
        <time>2015-05-24T11:19:30Z</time>
      </trkpt>
      <trkpt lat="46.046103592962027" lon="9.310507653281093">
        <ele>380.33999999999997</ele>
        <time>2015-05-24T11:19:53Z</time>
      </trkpt>
      <trkpt lat="46.046102419495583" lon="9.310534643009305">
        <ele>380.33999999999997</ele>
        <time>2015-05-24T11:20:20Z</time>
      </trkpt>
      <trkpt lat="46.046070316806436" lon="9.310547132045031">
        <ele>380.33999999999997</ele>
        <time>2015-05-24T11:20:40Z</time>
      </trkpt>
      <trkpt lat="46.04602119885385" lon="9.310545120388269">
        <ele>380.33999999999997</ele>
        <time>2015-05-24T11:21:03Z</time>
      </trkpt>
      <trkpt lat="46.046082805842161" lon="9.310457194224">
        <ele>380.33999999999997</ele>
        <time>2015-05-24T11:21:27Z</time>
      </trkpt>
      <trkpt lat="46.046095211058855" lon="9.310415536165237">
        <ele>380.33999999999997</ele>
        <time>2015-05-24T11:21:57Z</time>
      </trkpt>
      <trkpt lat="46.046053050085902" lon="9.310416374355555">
        <ele>380.33999999999997</ele>
        <time>2015-05-24T11:22:20Z</time>
      </trkpt>
      <trkpt lat="46.046011559665203" lon="9.310527183115482">
        <ele>380.33999999999997</ele>
        <time>2015-05-24T11:22:45Z</time>
      </trkpt>
      <trkpt lat="46.046019522473216" lon="9.310541516169906">
        <ele>380.81999999999999</ele>
        <time>2015-05-24T11:23:13Z</time>
      </trkpt>
      <trkpt lat="46.046089259907603" lon="9.310523746535182">
        <ele>380.81999999999999</ele>
        <time>2015-05-24T11:23:35Z</time>
      </trkpt>
      <trkpt lat="46.046074256300926" lon="9.310536738485098">
        <ele>380.81999999999999</ele>
        <time>2015-05-24T11:23:57Z</time>
      </trkpt>
      <trkpt lat="46.046077525243163" lon="9.310556938871741">
        <ele>381.30000000000001</ele>
        <time>2015-05-24T11:24:06Z</time>
      </trkpt>
      <trkpt lat="46.046141730621457" lon="9.310608068481088">
        <ele>381.77999999999997</ele>
        <time>2015-05-24T11:24:19Z</time>
      </trkpt>
      <trkpt lat="46.046110633760691" lon="9.310730863362551">
        <ele>381.30000000000001</ele>
        <time>2015-05-24T11:24:30Z</time>
      </trkpt>
      <trkpt lat="46.046069646254182" lon="9.310831697657704">
        <ele>381.30000000000001</ele>
        <time>2015-05-24T11:24:41Z</time>
      </trkpt>
      <trkpt lat="46.046165116131306" lon="9.310908811166883">
        <ele>380.33999999999997</ele>
        <time>2015-05-24T11:24:55Z</time>
      </trkpt>
      <trkpt lat="46.046190513297915" lon="9.310902943834662">
        <ele>379.86000000000001</ele>
        <time>2015-05-24T11:25:06Z</time>
      </trkpt>
      <trkpt lat="46.04616628959775" lon="9.310901183634996">
        <ele>379.86000000000001</ele>
        <time>2015-05-24T11:25:08Z</time>
      </trkpt>
      <trkpt lat="46.046078111976385" lon="9.310854496434331">
        <ele>380.81999999999999</ele>
        <time>2015-05-24T11:25:19Z</time>
      </trkpt>
      <trkpt lat="46.046004854142666" lon="9.310887772589922">
        <ele>381.30000000000001</ele>
        <time>2015-05-24T11:25:29Z</time>
      </trkpt>
      <trkpt lat="46.045947605744004" lon="9.310982907190919">
        <ele>381.77999999999997</ele>
        <time>2015-05-24T11:25:40Z</time>
      </trkpt>
      <trkpt lat="46.045892704278231" lon="9.311120705679059">
        <ele>383.22000000000003</ele>
        <time>2015-05-24T11:25:51Z</time>
      </trkpt>
      <trkpt lat="46.045902259647846" lon="9.311106791719794">
        <ele>383.22000000000003</ele>
        <time>2015-05-24T11:26:00Z</time>
      </trkpt>
      <trkpt lat="46.045964118093252" lon="9.310929514467716">
        <ele>381.30000000000001</ele>
        <time>2015-05-24T11:26:13Z</time>
      </trkpt>
      <trkpt lat="46.046029161661863" lon="9.310809234157205">
        <ele>380.81999999999999</ele>
        <time>2015-05-24T11:26:25Z</time>
      </trkpt>
      <trkpt lat="46.046026395633817" lon="9.310788866132498">
        <ele>380.81999999999999</ele>
        <time>2015-05-24T11:26:35Z</time>
      </trkpt>
      <trkpt lat="46.045998902991414" lon="9.310793979093432">
        <ele>380.81999999999999</ele>
        <time>2015-05-24T11:26:56Z</time>
      </trkpt>
      <trkpt lat="46.045964704826474" lon="9.31085541844368">
        <ele>382.25999999999999</ele>
        <time>2015-05-24T11:27:05Z</time>
      </trkpt>
      <trkpt lat="46.045941570773721" lon="9.310988439247012">
        <ele>381.30000000000001</ele>
        <time>2015-05-24T11:27:18Z</time>
      </trkpt>
      <trkpt lat="46.045885998755693" lon="9.311136715114117">
        <ele>382.74000000000001</ele>
        <time>2015-05-24T11:27:30Z</time>
      </trkpt>
      <trkpt lat="46.045884992927313" lon="9.311221959069371">
        <ele>382.25999999999999</ele>
        <time>2015-05-24T11:27:41Z</time>
      </trkpt>
      <trkpt lat="46.045898236334324" lon="9.311253475025296">
        <ele>383.69999999999999</ele>
        <time>2015-05-24T11:27:44Z</time>
      </trkpt>
      <trkpt lat="46.045945761725307" lon="9.311302173882723">
        <ele>385.14999999999998</ele>
        <time>2015-05-24T11:27:53Z</time>
      </trkpt>
      <trkpt lat="46.045979289337993" lon="9.311392363160849">
        <ele>386.58999999999997</ele>
        <time>2015-05-24T11:28:05Z</time>
      </trkpt>
      <trkpt lat="46.045938385650516" lon="9.311379874125123">
        <ele>386.11000000000001</ele>
        <time>2015-05-24T11:28:21Z</time>
      </trkpt>
      <trkpt lat="46.046000579372048" lon="9.311497807502747">
        <ele>388.02999999999997</ele>
        <time>2015-05-24T11:28:31Z</time>
      </trkpt>
      <trkpt lat="46.046021115034819" lon="9.311550110578537">
        <ele>388.50999999999999</ele>
        <time>2015-05-24T11:28:36Z</time>
      </trkpt>
      <trkpt lat="46.046105436980724" lon="9.311638791114092">
        <ele>389.94999999999999</ele>
        <time>2015-05-24T11:28:47Z</time>
      </trkpt>
      <trkpt lat="46.046121697872877" lon="9.311732333153486">
        <ele>391.38999999999999</ele>
        <time>2015-05-24T11:28:58Z</time>
      </trkpt>
      <trkpt lat="46.046146005392075" lon="9.3117730692029">
        <ele>392.83999999999997</ele>
        <time>2015-05-24T11:29:02Z</time>
      </trkpt>
      <trkpt lat="46.046245833858848" lon="9.311869293451309">
        <ele>393.31999999999999</ele>
        <time>2015-05-24T11:29:14Z</time>
      </trkpt>
      <trkpt lat="46.046309201046824" lon="9.31194456294179">
        <ele>393.80000000000001</ele>
        <time>2015-05-24T11:29:25Z</time>
      </trkpt>
      <trkpt lat="46.046345997601748" lon="9.311966942623258">
        <ele>394.75999999999999</ele>
        <time>2015-05-24T11:29:36Z</time>
      </trkpt>
      <trkpt lat="46.046392349526286" lon="9.312072973698378">
        <ele>395.72000000000003</ele>
        <time>2015-05-24T11:29:46Z</time>
      </trkpt>
      <trkpt lat="46.046435600146651" lon="9.312209011986852">
        <ele>397.16000000000003</ele>
        <time>2015-05-24T11:29:57Z</time>
      </trkpt>
      <trkpt lat="46.046450436115265" lon="9.312262572348118">
        <ele>398.12</ele>
        <time>2015-05-24T11:30:02Z</time>
      </trkpt>
      <trkpt lat="46.046472648158669" lon="9.312377572059631">
        <ele>399.56999999999999</ele>
        <time>2015-05-24T11:30:13Z</time>
      </trkpt>
      <trkpt lat="46.04650148190558" lon="9.312511263415217">
        <ele>401.00999999999999</ele>
        <time>2015-05-24T11:30:25Z</time>
      </trkpt>
      <trkpt lat="46.046517826616764" lon="9.312613103538752">
        <ele>401.97000000000003</ele>
        <time>2015-05-24T11:30:35Z</time>
      </trkpt>
      <trkpt lat="46.046533500775695" lon="9.31272148154676">
        <ele>403.41000000000003</ele>
        <time>2015-05-24T11:30:46Z</time>
      </trkpt>
      <trkpt lat="46.046535009518266" lon="9.312731372192502">
        <ele>403.41000000000003</ele>
        <time>2015-05-24T11:30:47Z</time>
      </trkpt>
      <trkpt lat="46.04652444832027" lon="9.312839582562447">
        <ele>405.32999999999998</ele>
        <time>2015-05-24T11:30:57Z</time>
      </trkpt>
      <trkpt lat="46.04656208306551" lon="9.312947290018201">
        <ele>406.76999999999998</ele>
        <time>2015-05-24T11:31:09Z</time>
      </trkpt>
      <trkpt lat="46.0465884860605" lon="9.313006550073624">
        <ele>407.74000000000001</ele>
        <time>2015-05-24T11:31:20Z</time>
      </trkpt>
      <trkpt lat="46.046635927632451" lon="9.313071593642235">
        <ele>408.69999999999999</ele>
        <time>2015-05-24T11:31:30Z</time>
      </trkpt>
      <trkpt lat="46.046691415831447" lon="9.313173182308674">
        <ele>410.62</ele>
        <time>2015-05-24T11:31:43Z</time>
      </trkpt>
      <trkpt lat="46.046761237084866" lon="9.313271418213844">
        <ele>412.54000000000002</ele>
        <time>2015-05-24T11:31:57Z</time>
      </trkpt>
      <trkpt lat="46.046809097751975" lon="9.313343754038215">
        <ele>413.98000000000002</ele>
        <time>2015-05-24T11:32:07Z</time>
      </trkpt>
      <trkpt lat="46.046816892921925" lon="9.313345681875944">
        <ele>413.98000000000002</ele>
        <time>2015-05-24T11:32:08Z</time>
      </trkpt>
      <trkpt lat="46.046918649226427" lon="9.313423298299313">
        <ele>415.43000000000001</ele>
        <time>2015-05-24T11:32:22Z</time>
      </trkpt>
      <trkpt lat="46.046936335042119" lon="9.313457831740379">
        <ele>415.91000000000003</ele>
        <time>2015-05-24T11:32:34Z</time>
      </trkpt>
      <trkpt lat="46.046963995322585" lon="9.313469314947724">
        <ele>415.91000000000003</ele>
        <time>2015-05-24T11:32:44Z</time>
      </trkpt>
      <trkpt lat="46.046966509893537" lon="9.313497981056571">
        <ele>416.87</ele>
        <time>2015-05-24T11:32:56Z</time>
      </trkpt>
      <trkpt lat="46.046973718330264" lon="9.313547853380442">
        <ele>417.82999999999998</ele>
        <time>2015-05-24T11:33:08Z</time>
      </trkpt>
      <trkpt lat="46.046971958130598" lon="9.313559085130692">
        <ele>417.35000000000002</ele>
        <time>2015-05-24T11:33:25Z</time>
      </trkpt>
      <trkpt lat="46.047038175165653" lon="9.313622200861573">
        <ele>418.31</ele>
        <time>2015-05-24T11:33:36Z</time>
      </trkpt>
      <trkpt lat="46.047048736363649" lon="9.313625888898969">
        <ele>418.31</ele>
        <time>2015-05-24T11:33:47Z</time>
      </trkpt>
      <trkpt lat="46.047070194035769" lon="9.313693027943373">
        <ele>418.31</ele>
        <time>2015-05-24T11:33:55Z</time>
      </trkpt>
      <trkpt lat="46.04710740968585" lon="9.31384046562016">
        <ele>420.23000000000002</ele>
        <time>2015-05-24T11:34:06Z</time>
      </trkpt>
      <trkpt lat="46.047164658084512" lon="9.313982874155045">
        <ele>421.68000000000001</ele>
        <time>2015-05-24T11:34:19Z</time>
      </trkpt>
      <trkpt lat="46.047193072736263" lon="9.314107345417142">
        <ele>423.60000000000002</ele>
        <time>2015-05-24T11:34:30Z</time>
      </trkpt>
      <trkpt lat="46.047210590913892" lon="9.31423231959343">
        <ele>425.51999999999998</ele>
        <time>2015-05-24T11:34:42Z</time>
      </trkpt>
      <trkpt lat="46.047232551500201" lon="9.314407501369715">
        <ele>427.92000000000002</ele>
        <time>2015-05-24T11:34:58Z</time>
      </trkpt>
      <trkpt lat="46.047260211780667" lon="9.314560471102595">
        <ele>429.37</ele>
        <time>2015-05-24T11:35:11Z</time>
      </trkpt>
      <trkpt lat="46.047265324741602" lon="9.314598441123962">
        <ele>429.85000000000002</ele>
        <time>2015-05-24T11:35:14Z</time>
      </trkpt>
      <trkpt lat="46.047349898144603" lon="9.314758284017444">
        <ele>430.81</ele>
        <time>2015-05-24T11:35:25Z</time>
      </trkpt>
      <trkpt lat="46.04742893949151" lon="9.3149159476161">
        <ele>430.81</ele>
        <time>2015-05-24T11:35:36Z</time>
      </trkpt>
      <trkpt lat="46.047430615872145" lon="9.314936567097902">
        <ele>430.81</ele>
        <time>2015-05-24T11:35:37Z</time>
      </trkpt>
      <trkpt lat="46.047519380226731" lon="9.315064055845141">
        <ele>428.88999999999999</ele>
        <time>2015-05-24T11:35:48Z</time>
      </trkpt>
      <trkpt lat="46.047567408531904" lon="9.31503220461309">
        <ele>426.95999999999998</ele>
        <time>2015-05-24T11:35:59Z</time>
      </trkpt>
      <trkpt lat="46.047621723264456" lon="9.314955677837133">
        <ele>424.07999999999998</ele>
        <time>2015-05-24T11:36:10Z</time>
      </trkpt>
      <trkpt lat="46.047714343294501" lon="9.31489834561944">
        <ele>420.70999999999998</ele>
        <time>2015-05-24T11:36:20Z</time>
      </trkpt>
      <trkpt lat="46.047815177589655" lon="9.314822405576706">
        <ele>417.82999999999998</ele>
        <time>2015-05-24T11:36:31Z</time>
      </trkpt>
      <trkpt lat="46.047892374917865" lon="9.31472978554666">
        <ele>414.94999999999999</ele>
        <time>2015-05-24T11:36:42Z</time>
      </trkpt>
      <trkpt lat="46.047992873936892" lon="9.314696341753006">
        <ele>412.06</ele>
        <time>2015-05-24T11:36:55Z</time>
      </trkpt>
      <trkpt lat="46.04808515869081" lon="9.314701706171036">
        <ele>408.69999999999999</ele>
        <time>2015-05-24T11:37:05Z</time>
      </trkpt>
      <trkpt lat="46.04816428385675" lon="9.314671950414777">
        <ele>405.81</ele>
        <time>2015-05-24T11:37:13Z</time>
      </trkpt>
      <trkpt lat="46.048252210021019" lon="9.314638171344996">
        <ele>402.44999999999999</ele>
        <time>2015-05-24T11:37:23Z</time>
      </trkpt>
      <trkpt lat="46.048271404579282" lon="9.314598357304931">
        <ele>400.52999999999997</ele>
        <time>2015-05-24T11:37:28Z</time>
      </trkpt>
      <trkpt lat="46.048282971605659" lon="9.314569104462862">
        <ele>399.56999999999999</ele>
        <time>2015-05-24T11:37:37Z</time>
      </trkpt>
      <trkpt lat="46.048327311873436" lon="9.314565835520625">
        <ele>398.60000000000002</ele>
        <time>2015-05-24T11:37:49Z</time>
      </trkpt>
      <trkpt lat="46.048361761495471" lon="9.314545383676887">
        <ele>397.16000000000003</ele>
        <time>2015-05-24T11:37:58Z</time>
      </trkpt>
      <trkpt lat="46.048371652141213" lon="9.314538929611445">
        <ele>397.16000000000003</ele>
        <time>2015-05-24T11:38:00Z</time>
      </trkpt>
      <trkpt lat="46.048479024320841" lon="9.314558207988739">
        <ele>393.80000000000001</ele>
        <time>2015-05-24T11:38:10Z</time>
      </trkpt>
      <trkpt lat="46.048499727621675" lon="9.314571870490909">
        <ele>393.80000000000001</ele>
        <time>2015-05-24T11:38:14Z</time>
      </trkpt>
      <trkpt lat="46.048515820875764" lon="9.314567595720291">
        <ele>393.80000000000001</ele>
        <time>2015-05-24T11:38:16Z</time>
      </trkpt>
      <trkpt lat="46.048537865281105" lon="9.314589388668537">
        <ele>393.80000000000001</ele>
        <time>2015-05-24T11:38:18Z</time>
      </trkpt>
      <trkpt lat="46.048593018203974" lon="9.3146379198879">
        <ele>394.27999999999997</ele>
        <time>2015-05-24T11:38:29Z</time>
      </trkpt>
      <trkpt lat="46.04858941398561" lon="9.314595004543662">
        <ele>394.27999999999997</ele>
        <time>2015-05-24T11:38:39Z</time>
      </trkpt>
      <trkpt lat="46.048589749261737" lon="9.314626101404429">
        <ele>393.80000000000001</ele>
        <time>2015-05-24T11:38:49Z</time>
      </trkpt>
      <trkpt lat="46.048561921343207" lon="9.31457488797605">
        <ele>393.80000000000001</ele>
        <time>2015-05-24T11:38:59Z</time>
      </trkpt>
      <trkpt lat="46.048554964363575" lon="9.314539264887571">
        <ele>390.91000000000003</ele>
        <time>2015-05-24T11:39:02Z</time>
      </trkpt>
      <trkpt lat="46.04864708147943" lon="9.314563823863864">
        <ele>390.43000000000001</ele>
        <time>2015-05-24T11:39:12Z</time>
      </trkpt>
      <trkpt lat="46.048684967681766" lon="9.31459735147655">
        <ele>387.55000000000001</ele>
        <time>2015-05-24T11:39:18Z</time>
      </trkpt>
      <trkpt lat="46.048757303506136" lon="9.314592154696584">
        <ele>384.18000000000001</ele>
        <time>2015-05-24T11:39:30Z</time>
      </trkpt>
      <trkpt lat="46.048821089789271" lon="9.314678572118282">
        <ele>383.69999999999999</ele>
        <time>2015-05-24T11:39:44Z</time>
      </trkpt>
      <trkpt lat="46.048903483897448" lon="9.314750572666526">
        <ele>383.69999999999999</ele>
        <time>2015-05-24T11:39:52Z</time>
      </trkpt>
      <trkpt lat="46.049010772258043" lon="9.314793236553669">
        <ele>382.25999999999999</ele>
        <time>2015-05-24T11:40:04Z</time>
      </trkpt>
      <trkpt lat="46.049089645966887" lon="9.314764738082886">
        <ele>379.38</ele>
        <time>2015-05-24T11:40:15Z</time>
      </trkpt>
      <trkpt lat="46.049186708405614" lon="9.314773958176374">
        <ele>376.00999999999999</ele>
        <time>2015-05-24T11:40:28Z</time>
      </trkpt>
      <trkpt lat="46.049239262938499" lon="9.314817376434803">
        <ele>373.13</ele>
        <time>2015-05-24T11:40:39Z</time>
      </trkpt>
      <trkpt lat="46.049313526600599" lon="9.31483724154532">
        <ele>370.24000000000001</ele>
        <time>2015-05-24T11:40:53Z</time>
      </trkpt>
      <trkpt lat="46.049406565725803" lon="9.314865907654166">
        <ele>367.36000000000001</ele>
        <time>2015-05-24T11:41:05Z</time>
      </trkpt>
      <trkpt lat="46.049511758610606" lon="9.314917540177703">
        <ele>364</ele>
        <time>2015-05-24T11:41:18Z</time>
      </trkpt>
      <trkpt lat="46.04962483048439" lon="9.314935561269522">
        <ele>361.11000000000001</ele>
        <time>2015-05-24T11:41:33Z</time>
      </trkpt>
      <trkpt lat="46.049741925671697" lon="9.31494134478271">
        <ele>358.23000000000002</ele>
        <time>2015-05-24T11:41:45Z</time>
      </trkpt>
      <trkpt lat="46.049837647005916" lon="9.315029438585043">
        <ele>355.82999999999998</ele>
        <time>2015-05-24T11:41:56Z</time>
      </trkpt>
      <trkpt lat="46.049915347248316" lon="9.315091213211417">
        <ele>354.86000000000001</ele>
        <time>2015-05-24T11:42:06Z</time>
      </trkpt>
      <trkpt lat="46.049974439665675" lon="9.315081657841802">
        <ele>354.38</ele>
        <time>2015-05-24T11:42:14Z</time>
      </trkpt>
      <trkpt lat="46.050128331407905" lon="9.315074030309916">
        <ele>354.38</ele>
        <time>2015-05-24T11:42:28Z</time>
      </trkpt>
      <trkpt lat="46.050180131569505" lon="9.315136140212417">
        <ele>355.33999999999997</ele>
        <time>2015-05-24T11:42:40Z</time>
      </trkpt>
      <trkpt lat="46.050272500142455" lon="9.315227000042796">
        <ele>355.82999999999998</ele>
        <time>2015-05-24T11:42:51Z</time>
      </trkpt>
      <trkpt lat="46.050304351374507" lon="9.315264886245132">
        <ele>356.31</ele>
        <time>2015-05-24T11:42:56Z</time>
      </trkpt>
      <trkpt lat="46.050407951697707" lon="9.315375359728932">
        <ele>356.31</ele>
        <time>2015-05-24T11:43:09Z</time>
      </trkpt>
      <trkpt lat="46.050447095185518" lon="9.315397990867496">
        <ele>357.75</ele>
        <time>2015-05-24T11:43:14Z</time>
      </trkpt>
      <trkpt lat="46.050599562004209" lon="9.315464040264487">
        <ele>355.82999999999998</ele>
        <time>2015-05-24T11:43:29Z</time>
      </trkpt>
      <trkpt lat="46.050739791244268" lon="9.315540734678507">
        <ele>355.82999999999998</ele>
        <time>2015-05-24T11:43:42Z</time>
      </trkpt>
      <trkpt lat="46.050831070169806" lon="9.315515672788024">
        <ele>354.38</ele>
        <time>2015-05-24T11:43:54Z</time>
      </trkpt>
      <trkpt lat="46.05083123780787" lon="9.315503099933267">
        <ele>354.38</ele>
        <time>2015-05-24T11:43:55Z</time>
      </trkpt>
      <trkpt lat="46.050841379910707" lon="9.31537133641541">
        <ele>350.54000000000002</ele>
        <time>2015-05-24T11:44:06Z</time>
      </trkpt>
      <trkpt lat="46.050871554762125" lon="9.315312160179019">
        <ele>348.62</ele>
        <time>2015-05-24T11:44:13Z</time>
      </trkpt>
      <trkpt lat="46.050979010760784" lon="9.315337641164661">
        <ele>347.17000000000002</ele>
        <time>2015-05-24T11:44:22Z</time>
      </trkpt>
      <trkpt lat="46.051111193373799" lon="9.315381729975343">
        <ele>346.69</ele>
        <time>2015-05-24T11:44:34Z</time>
      </trkpt>
      <trkpt lat="46.051164669916034" lon="9.315341413021088">
        <ele>344.29000000000002</ele>
        <time>2015-05-24T11:44:46Z</time>
      </trkpt>
      <trkpt lat="46.05122066102922" lon="9.315363876521587">
        <ele>342.37</ele>
        <time>2015-05-24T11:44:54Z</time>
      </trkpt>
      <trkpt lat="46.051299450919032" lon="9.315541069954634">
        <ele>342.37</ele>
        <time>2015-05-24T11:45:07Z</time>
      </trkpt>
      <trkpt lat="46.051359884440899" lon="9.3156464304775">
        <ele>345.25</ele>
        <time>2015-05-24T11:45:16Z</time>
      </trkpt>
      <trkpt lat="46.051423586905003" lon="9.315759250894189">
        <ele>344.29000000000002</ele>
        <time>2015-05-24T11:45:26Z</time>
      </trkpt>
      <trkpt lat="46.051432806998491" lon="9.315911466255784">
        <ele>342.37</ele>
        <time>2015-05-24T11:45:37Z</time>
      </trkpt>
      <trkpt lat="46.051484774798155" lon="9.315951615571976">
        <ele>341.41000000000003</ele>
        <time>2015-05-24T11:45:43Z</time>
      </trkpt>
      <trkpt lat="46.051557026803493" lon="9.315959075465798">
        <ele>341.41000000000003</ele>
        <time>2015-05-24T11:45:49Z</time>
      </trkpt>
      <trkpt lat="46.051637409254909" lon="9.315863605588675">
        <ele>341.88999999999999</ele>
        <time>2015-05-24T11:45:58Z</time>
      </trkpt>
      <trkpt lat="46.051726089790463" lon="9.315805938094854">
        <ele>341.88999999999999</ele>
        <time>2015-05-24T11:46:07Z</time>
      </trkpt>
      <trkpt lat="46.051892219111323" lon="9.315830077975988">
        <ele>340.44</ele>
        <time>2015-05-24T11:46:22Z</time>
      </trkpt>
      <trkpt lat="46.052001686766744" lon="9.3157759308815">
        <ele>338.51999999999998</ele>
        <time>2015-05-24T11:46:33Z</time>
      </trkpt>
      <trkpt lat="46.052097911015153" lon="9.315696554258466">
        <ele>336.60000000000002</ele>
        <time>2015-05-24T11:46:44Z</time>
      </trkpt>
      <trkpt lat="46.052107131108642" lon="9.315688339993358">
        <ele>336.60000000000002</ele>
        <time>2015-05-24T11:46:45Z</time>
      </trkpt>
      <trkpt lat="46.052193297073245" lon="9.315590690821409">
        <ele>334.68000000000001</ele>
        <time>2015-05-24T11:46:56Z</time>
      </trkpt>
      <trkpt lat="46.052361270412803" lon="9.315594378858805">
        <ele>333.23000000000002</ele>
        <time>2015-05-24T11:47:10Z</time>
      </trkpt>
      <trkpt lat="46.052385326474905" lon="9.315569903701544">
        <ele>334.19999999999999</ele>
        <time>2015-05-24T11:47:20Z</time>
      </trkpt>
      <trkpt lat="46.052377196028829" lon="9.31555456481874">
        <ele>332.75</ele>
        <time>2015-05-24T11:47:34Z</time>
      </trkpt>
      <trkpt lat="46.052362276241183" lon="9.315537801012397">
        <ele>332.75</ele>
        <time>2015-05-24T11:47:48Z</time>
      </trkpt>
      <trkpt lat="46.052344003692269" lon="9.315523887053132">
        <ele>332.75</ele>
        <time>2015-05-24T11:48:09Z</time>
      </trkpt>
      <trkpt lat="46.052344003692269" lon="9.315540818497539">
        <ele>332.75</ele>
        <time>2015-05-24T11:48:24Z</time>
      </trkpt>
      <trkpt lat="46.052351715043187" lon="9.315541572868824">
        <ele>333.23000000000002</ele>
        <time>2015-05-24T11:48:37Z</time>
      </trkpt>
      <trkpt lat="46.052346602082253" lon="9.315575351938605">
        <ele>333.23000000000002</ele>
        <time>2015-05-24T11:48:58Z</time>
      </trkpt>
      <trkpt lat="46.052329754456878" lon="9.315514918416739">
        <ele>334.68000000000001</ele>
        <time>2015-05-24T11:49:18Z</time>
      </trkpt>
      <trkpt lat="46.052368897944689" lon="9.315523887053132">
        <ele>333.23000000000002</ele>
        <time>2015-05-24T11:49:35Z</time>
      </trkpt>
      <trkpt lat="46.052358085289598" lon="9.31552623398602">
        <ele>332.75</ele>
        <time>2015-05-24T11:49:53Z</time>
      </trkpt>
      <trkpt lat="46.052349954843521" lon="9.315533945336938">
        <ele>333.23000000000002</ele>
        <time>2015-05-24T11:50:08Z</time>
      </trkpt>
      <trkpt lat="46.052339896559715" lon="9.315533358603716">
        <ele>333.23000000000002</ele>
        <time>2015-05-24T11:50:35Z</time>
      </trkpt>
      <trkpt lat="46.052349200472236" lon="9.315520785748959">
        <ele>333.23000000000002</ele>
        <time>2015-05-24T11:50:56Z</time>
      </trkpt>
      <trkpt lat="46.052345260977745" lon="9.315527826547623">
        <ele>333.70999999999998</ele>
        <time>2015-05-24T11:51:12Z</time>
      </trkpt>
      <trkpt lat="46.052338974550366" lon="9.315511146560311">
        <ele>333.23000000000002</ele>
        <time>2015-05-24T11:51:32Z</time>
      </trkpt>
      <trkpt lat="46.052329419180751" lon="9.315479546785355">
        <ele>333.70999999999998</ele>
        <time>2015-05-24T11:52:00Z</time>
      </trkpt>
      <trkpt lat="46.052370322868228" lon="9.315435122698546">
        <ele>332.26999999999998</ele>
        <time>2015-05-24T11:52:12Z</time>
      </trkpt>
      <trkpt lat="46.052404940128326" lon="9.315470829606056">
        <ele>332.26999999999998</ele>
        <time>2015-05-24T11:52:28Z</time>
      </trkpt>
      <trkpt lat="46.052446430549026" lon="9.315442414954305">
        <ele>332.26999999999998</ele>
        <time>2015-05-24T11:52:45Z</time>
      </trkpt>
      <trkpt lat="46.052418602630496" lon="9.315471835434437">
        <ele>332.26999999999998</ele>
        <time>2015-05-24T11:53:04Z</time>
      </trkpt>
      <trkpt lat="46.05237920768559" lon="9.315539812669158">
        <ele>334.19999999999999</ele>
        <time>2015-05-24T11:53:15Z</time>
      </trkpt>
      <trkpt lat="46.052291532978415" lon="9.315559593960643">
        <ele>334.68000000000001</ele>
        <time>2015-05-24T11:53:25Z</time>
      </trkpt>
      <trkpt lat="46.052320534363389" lon="9.315585074946284">
        <ele>334.19999999999999</ele>
        <time>2015-05-24T11:53:39Z</time>
      </trkpt>
      <trkpt lat="46.052339896559715" lon="9.315540147945285">
        <ele>334.19999999999999</ele>
        <time>2015-05-24T11:53:51Z</time>
      </trkpt>
      <trkpt lat="46.052365712821484" lon="9.315542913973332">
        <ele>334.68000000000001</ele>
        <time>2015-05-24T11:54:02Z</time>
      </trkpt>
      <trkpt lat="46.052395803853869" lon="9.315533274784684">
        <ele>334.68000000000001</ele>
        <time>2015-05-24T11:54:12Z</time>
      </trkpt>
      <trkpt lat="46.052359594032168" lon="9.3155428301543">
        <ele>334.19999999999999</ele>
        <time>2015-05-24T11:54:26Z</time>
      </trkpt>
      <trkpt lat="46.052408460527658" lon="9.315487006679177">
        <ele>332.75</ele>
        <time>2015-05-24T11:54:39Z</time>
      </trkpt>
      <trkpt lat="46.052447436377406" lon="9.31539966724813">
        <ele>329.87</ele>
        <time>2015-05-24T11:54:51Z</time>
      </trkpt>
      <trkpt lat="46.052515665069222" lon="9.31530486792326">
        <ele>326.99000000000001</ele>
        <time>2015-05-24T11:55:04Z</time>
      </trkpt>
      <trkpt lat="46.052618427202106" lon="9.315263126045466">
        <ele>323.62</ele>
        <time>2015-05-24T11:55:15Z</time>
      </trkpt>
      <trkpt lat="46.052655139937997" lon="9.315216522663832">
        <ele>322.18000000000001</ele>
        <time>2015-05-24T11:55:20Z</time>
      </trkpt>
      <trkpt lat="46.052646255120635" lon="9.315148880705237">
        <ele>321.69999999999999</ele>
        <time>2015-05-24T11:55:24Z</time>
      </trkpt>
      <trkpt lat="46.052657067775726" lon="9.315135218203068">
        <ele>320.74000000000001</ele>
        <time>2015-05-24T11:55:35Z</time>
      </trkpt>
      <trkpt lat="46.05268414132297" lon="9.315178217366338">
        <ele>320.74000000000001</ele>
        <time>2015-05-24T11:55:49Z</time>
      </trkpt>
      <trkpt lat="46.052727056667209" lon="9.315089117735624">
        <ele>317.85000000000002</ele>
        <time>2015-05-24T11:56:01Z</time>
      </trkpt>
      <trkpt lat="46.052737785503268" lon="9.314989121630788">
        <ele>315.93000000000001</ele>
        <time>2015-05-24T11:56:14Z</time>
      </trkpt>
      <trkpt lat="46.052740216255188" lon="9.314939584583044">
        <ele>314.49000000000001</ele>
        <time>2015-05-24T11:56:25Z</time>
      </trkpt>
      <trkpt lat="46.052754884585738" lon="9.314817460253835">
        <ele>312.08999999999997</ele>
        <time>2015-05-24T11:56:35Z</time>
      </trkpt>
      <trkpt lat="46.052810875698924" lon="9.314821232110262">
        <ele>310.16000000000003</ele>
        <time>2015-05-24T11:56:44Z</time>
      </trkpt>
      <trkpt lat="46.052866447716951" lon="9.314880492165685">
        <ele>308.24000000000001</ele>
        <time>2015-05-24T11:56:53Z</time>
      </trkpt>
      <trkpt lat="46.052890168502927" lon="9.314802372828126">
        <ele>307.27999999999997</ele>
        <time>2015-05-24T11:57:04Z</time>
      </trkpt>
      <trkpt lat="46.052889414131641" lon="9.314789045602083">
        <ele>306.80000000000001</ele>
        <time>2015-05-24T11:57:05Z</time>
      </trkpt>
      <trkpt lat="46.052899304777384" lon="9.314738251268864">
        <ele>304.38999999999999</ele>
        <time>2015-05-24T11:57:15Z</time>
      </trkpt>
      <trkpt lat="46.052917409688234" lon="9.314621323719621">
        <ele>301.50999999999999</ele>
        <time>2015-05-24T11:57:25Z</time>
      </trkpt>
      <trkpt lat="46.052984548732638" lon="9.314512526616454">
        <ele>298.63</ele>
        <time>2015-05-24T11:57:38Z</time>
      </trkpt>
      <trkpt lat="46.053025536239147" lon="9.314468270167708">
        <ele>295.74000000000001</ele>
        <time>2015-05-24T11:57:50Z</time>
      </trkpt>
      <trkpt lat="46.053058728575706" lon="9.314429713413119">
        <ele>293.81999999999999</ele>
        <time>2015-05-24T11:58:02Z</time>
      </trkpt>
      <trkpt lat="46.053069457411766" lon="9.314420577138662">
        <ele>293.33999999999997</ele>
        <time>2015-05-24T11:58:13Z</time>
      </trkpt>
      <trkpt lat="46.053104661405087" lon="9.314467012882233">
        <ele>293.81999999999999</ele>
        <time>2015-05-24T11:58:25Z</time>
      </trkpt>
      <trkpt lat="46.053068032488227" lon="9.314515125006437">
        <ele>294.30000000000001</ele>
        <time>2015-05-24T11:58:41Z</time>
      </trkpt>
      <trkpt lat="46.053076749667525" lon="9.314515125006437">
        <ele>294.30000000000001</ele>
        <time>2015-05-24T11:58:54Z</time>
      </trkpt>
      <trkpt lat="46.053083119913936" lon="9.314532056450844">
        <ele>294.30000000000001</ele>
        <time>2015-05-24T11:59:03Z</time>
      </trkpt>
      <trkpt lat="46.053122933954" lon="9.314678404480219">
        <ele>293.33999999999997</ele>
        <time>2015-05-24T11:59:13Z</time>
      </trkpt>
      <trkpt lat="46.053147157654166" lon="9.314737245440483">
        <ele>294.77999999999997</ele>
        <time>2015-05-24T11:59:19Z</time>
      </trkpt>
      <trkpt lat="46.053183618932962" lon="9.314798098057509">
        <ele>295.74000000000001</ele>
        <time>2015-05-24T11:59:28Z</time>
      </trkpt>
      <trkpt lat="46.053343797102571" lon="9.314764486625791">
        <ele>296.69999999999999</ele>
        <time>2015-05-24T11:59:43Z</time>
      </trkpt>
      <trkpt lat="46.053415294736624" lon="9.314753422513604">
        <ele>296.69999999999999</ele>
        <time>2015-05-24T11:59:46Z</time>
      </trkpt>
      <trkpt lat="46.053502382710576" lon="9.314803965389729">
        <ele>296.69999999999999</ele>
        <time>2015-05-24T11:59:53Z</time>
      </trkpt>
      <trkpt lat="46.053653676062822" lon="9.314818717539311">
        <ele>296.22000000000003</ele>
        <time>2015-05-24T12:00:05Z</time>
      </trkpt>
      <trkpt lat="46.053749648854136" lon="9.314794912934303">
        <ele>299.11000000000001</ele>
        <time>2015-05-24T12:00:16Z</time>
      </trkpt>
      <trkpt lat="46.053796671330929" lon="9.314784184098244">
        <ele>299.58999999999997</ele>
        <time>2015-05-24T12:00:21Z</time>
      </trkpt>
      <trkpt lat="46.053912676870823" lon="9.314782759174705">
        <ele>300.55000000000001</ele>
        <time>2015-05-24T12:00:31Z</time>
      </trkpt>
      <trkpt lat="46.054050642997026" lon="9.314854256808758">
        <ele>301.02999999999997</ele>
        <time>2015-05-24T12:00:44Z</time>
      </trkpt>
      <trkpt lat="46.054204283282161" lon="9.314872780814767">
        <ele>301.02999999999997</ele>
        <time>2015-05-24T12:00:57Z</time>
      </trkpt>
      <trkpt lat="46.054399078711867" lon="9.31491494178772">
        <ele>302.47000000000003</ele>
        <time>2015-05-24T12:01:11Z</time>
      </trkpt>
      <trkpt lat="46.054525142535567" lon="9.314946625381708">
        <ele>303.43000000000001</ele>
        <time>2015-05-24T12:01:23Z</time>
      </trkpt>
      <trkpt lat="46.05454484000802" lon="9.314985768869519">
        <ele>302.94999999999999</ele>
        <time>2015-05-24T12:01:37Z</time>
      </trkpt>
      <trkpt lat="46.054548444226384" lon="9.315001275390387">
        <ele>303.43000000000001</ele>
        <time>2015-05-24T12:01:46Z</time>
      </trkpt>
      <trkpt lat="46.054670987650752" lon="9.315122477710247">
        <ele>305.36000000000001</ele>
        <time>2015-05-24T12:02:00Z</time>
      </trkpt>
      <trkpt lat="46.054758997634053" lon="9.315226580947638">
        <ele>306.31999999999999</ele>
        <time>2015-05-24T12:02:11Z</time>
      </trkpt>
      <trkpt lat="46.054761093109846" lon="9.315268490463495">
        <ele>306.80000000000001</ele>
        <time>2015-05-24T12:02:14Z</time>
      </trkpt>
      <trkpt lat="46.054813731461763" lon="9.315452892333269">
        <ele>310.16000000000003</ele>
        <time>2015-05-24T12:02:27Z</time>
      </trkpt>
      <trkpt lat="46.05494549497962" lon="9.315446689724922">
        <ele>311.60000000000002</ele>
        <time>2015-05-24T12:02:38Z</time>
      </trkpt>
      <trkpt lat="46.055035348981619" lon="9.315462615340948">
        <ele>313.52999999999997</ele>
        <time>2015-05-24T12:02:48Z</time>
      </trkpt>
      <trkpt lat="46.055135680362582" lon="9.31548516266048">
        <ele>314.97000000000003</ele>
        <time>2015-05-24T12:03:03Z</time>
      </trkpt>
      <trkpt lat="46.05518295429647" lon="9.315459011122584">
        <ele>317.37</ele>
        <time>2015-05-24T12:03:12Z</time>
      </trkpt>
      <trkpt lat="46.055274400860071" lon="9.315475439652801">
        <ele>318.81</ele>
        <time>2015-05-24T12:03:24Z</time>
      </trkpt>
      <trkpt lat="46.05528948828578" lon="9.315496226772666">
        <ele>320.25999999999999</ele>
        <time>2015-05-24T12:03:27Z</time>
      </trkpt>
      <trkpt lat="46.055305916815996" lon="9.315499076619744">
        <ele>320.74000000000001</ele>
        <time>2015-05-24T12:03:31Z</time>
      </trkpt>
      <trkpt lat="46.05530608445406" lon="9.315511314198375">
        <ele>320.74000000000001</ele>
        <time>2015-05-24T12:03:40Z</time>
      </trkpt>
      <trkpt lat="46.055305665358901" lon="9.315555989742279">
        <ele>319.77999999999997</ele>
        <time>2015-05-24T12:04:09Z</time>
      </trkpt>
      <trkpt lat="46.055267695337534" lon="9.31548222899437">
        <ele>320.25999999999999</ele>
        <time>2015-05-24T12:04:37Z</time>
      </trkpt>
      <trkpt lat="46.055261492729187" lon="9.315477451309562">
        <ele>320.25999999999999</ele>
        <time>2015-05-24T12:04:52Z</time>
      </trkpt>
      <trkpt lat="46.055258056148887" lon="9.31546370498836">
        <ele>321.22000000000003</ele>
        <time>2015-05-24T12:04:58Z</time>
      </trkpt>
      <trkpt lat="46.055297283455729" lon="9.315459597855806">
        <ele>321.69999999999999</ele>
        <time>2015-05-24T12:05:03Z</time>
      </trkpt>
      <trkpt lat="46.055468106642365" lon="9.315503183752298">
        <ele>324.10000000000002</ele>
        <time>2015-05-24T12:05:17Z</time>
      </trkpt>
      <trkpt lat="46.055508088320494" lon="9.31552816182375">
        <ele>325.06</ele>
        <time>2015-05-24T12:05:23Z</time>
      </trkpt>
      <trkpt lat="46.055667093023658" lon="9.315557079389691">
        <ele>327.94999999999999</ele>
        <time>2015-05-24T12:05:36Z</time>
      </trkpt>
      <trkpt lat="46.055730124935508" lon="9.315588008612394">
        <ele>328.91000000000003</ele>
        <time>2015-05-24T12:05:41Z</time>
      </trkpt>
      <trkpt lat="46.05584504082799" lon="9.315658332780004">
        <ele>330.82999999999998</ele>
        <time>2015-05-24T12:05:51Z</time>
      </trkpt>
      <trkpt lat="46.055884100496769" lon="9.315658332780004">
        <ele>331.31</ele>
        <time>2015-05-24T12:05:54Z</time>
      </trkpt>
      <trkpt lat="46.055951490998268" lon="9.315643748268485">
        <ele>332.26999999999998</ele>
        <time>2015-05-24T12:06:02Z</time>
      </trkpt>
      <trkpt lat="46.055944366380572" lon="9.315572082996368">
        <ele>332.26999999999998</ele>
        <time>2015-05-24T12:06:13Z</time>
      </trkpt>
      <trkpt lat="46.055941600352526" lon="9.315574010834098">
        <ele>332.26999999999998</ele>
        <time>2015-05-24T12:06:30Z</time>
      </trkpt>
      <trkpt lat="46.055975966155529" lon="9.315613321959972">
        <ele>333.23000000000002</ele>
        <time>2015-05-24T12:06:38Z</time>
      </trkpt>
      <trkpt lat="46.05608744546771" lon="9.315595384687185">
        <ele>334.68000000000001</ele>
        <time>2015-05-24T12:06:50Z</time>
      </trkpt>
      <trkpt lat="46.056192051619291" lon="9.315567640587688">
        <ele>336.60000000000002</ele>
        <time>2015-05-24T12:07:01Z</time>
      </trkpt>
      <trkpt lat="46.056251563131809" lon="9.315563784912229">
        <ele>338.04000000000002</ele>
        <time>2015-05-24T12:07:12Z</time>
      </trkpt>
      <trkpt lat="46.056379470974207" lon="9.315557330846787">
        <ele>339.48000000000002</ele>
        <time>2015-05-24T12:07:25Z</time>
      </trkpt>
      <trkpt lat="46.05647292919457" lon="9.315616087988019">
        <ele>341.41000000000003</ele>
        <time>2015-05-24T12:07:37Z</time>
      </trkpt>
      <trkpt lat="46.05653646402061" lon="9.315714323893189">
        <ele>343.32999999999998</ele>
        <time>2015-05-24T12:07:48Z</time>
      </trkpt>
      <trkpt lat="46.056585414335132" lon="9.315779451280832">
        <ele>344.29000000000002</ele>
        <time>2015-05-24T12:07:54Z</time>
      </trkpt>
      <trkpt lat="46.056687338277698" lon="9.315847847610712">
        <ele>346.20999999999998</ele>
        <time>2015-05-24T12:08:06Z</time>
      </trkpt>
      <trkpt lat="46.05671726167202" lon="9.31583208963275">
        <ele>346.20999999999998</ele>
        <time>2015-05-24T12:08:10Z</time>
      </trkpt>
      <trkpt lat="46.056839721277356" lon="9.315746175125241">
        <ele>346.69</ele>
        <time>2015-05-24T12:08:23Z</time>
      </trkpt>
      <trkpt lat="46.056908285245299" lon="9.315707702189684">
        <ele>345.73000000000002</ele>
        <time>2015-05-24T12:08:30Z</time>
      </trkpt>
      <trkpt lat="46.057023871690035" lon="9.315715162083507">
        <ele>343.81</ele>
        <time>2015-05-24T12:08:42Z</time>
      </trkpt>
      <trkpt lat="46.057037031278014" lon="9.315732847899199">
        <ele>343.32999999999998</ele>
        <time>2015-05-24T12:08:44Z</time>
      </trkpt>
      <trkpt lat="46.057134345173836" lon="9.315886739641428">
        <ele>341.41000000000003</ele>
        <time>2015-05-24T12:08:58Z</time>
      </trkpt>
      <trkpt lat="46.057155635207891" lon="9.315892439335585">
        <ele>341.41000000000003</ele>
        <time>2015-05-24T12:09:00Z</time>
      </trkpt>
      <trkpt lat="46.057176003232598" lon="9.315871903672814">
        <ele>341.88999999999999</ele>
        <time>2015-05-24T12:09:10Z</time>
      </trkpt>
      <trkpt lat="46.057173237204552" lon="9.315856229513884">
        <ele>341.88999999999999</ele>
        <time>2015-05-24T12:09:32Z</time>
      </trkpt>
      <trkpt lat="46.057186899706721" lon="9.315864527598023">
        <ele>341.88999999999999</ele>
        <time>2015-05-24T12:09:56Z</time>
      </trkpt>
      <trkpt lat="46.05717851780355" lon="9.315865617245436">
        <ele>341.88999999999999</ele>
        <time>2015-05-24T12:10:12Z</time>
      </trkpt>
      <trkpt lat="46.057206513360143" lon="9.31585606187582">
        <ele>341.88999999999999</ele>
        <time>2015-05-24T12:10:27Z</time>
      </trkpt>
      <trkpt lat="46.057230569422245" lon="9.315836532041431">
        <ele>341.88999999999999</ele>
        <time>2015-05-24T12:10:42Z</time>
      </trkpt>
      <trkpt lat="46.057249512523413" lon="9.315806860104203">
        <ele>342.37</ele>
        <time>2015-05-24T12:10:46Z</time>
      </trkpt>
      <trkpt lat="46.057297708466649" lon="9.315687417984009">
        <ele>341.88999999999999</ele>
        <time>2015-05-24T12:10:57Z</time>
      </trkpt>
      <trkpt lat="46.057390663772821" lon="9.315616004168987">
        <ele>340.92000000000002</ele>
        <time>2015-05-24T12:11:09Z</time>
      </trkpt>
      <trkpt lat="46.057463670149446" lon="9.315621620044112">
        <ele>341.41000000000003</ele>
        <time>2015-05-24T12:11:17Z</time>
      </trkpt>
      <trkpt lat="46.05763834901154" lon="9.315559761598706">
        <ele>341.88999999999999</ele>
        <time>2015-05-24T12:11:33Z</time>
      </trkpt>
      <trkpt lat="46.05778100900352" lon="9.315473427996039">
        <ele>342.37</ele>
        <time>2015-05-24T12:11:47Z</time>
      </trkpt>
      <trkpt lat="46.057894499972463" lon="9.315419783815742">
        <ele>342.85000000000002</ele>
        <time>2015-05-24T12:11:59Z</time>
      </trkpt>
      <trkpt lat="46.058035818859935" lon="9.315432859584689">
        <ele>344.29000000000002</ele>
        <time>2015-05-24T12:12:12Z</time>
      </trkpt>
      <trkpt lat="46.058080997318029" lon="9.315424561500549">
        <ele>344.29000000000002</ele>
        <time>2015-05-24T12:12:20Z</time>
      </trkpt>
      <trkpt lat="46.058198511600494" lon="9.31537033058703">
        <ele>344.76999999999998</ele>
        <time>2015-05-24T12:12:31Z</time>
      </trkpt>
      <trkpt lat="46.058287778869271" lon="9.315200932323933">
        <ele>345.73000000000002</ele>
        <time>2015-05-24T12:12:42Z</time>
      </trkpt>
      <trkpt lat="46.058379560709" lon="9.315123651176691">
        <ele>349.10000000000002</ele>
        <time>2015-05-24T12:12:55Z</time>
      </trkpt>
      <trkpt lat="46.0584382340312" lon="9.315055506303906">
        <ele>351.01999999999998</ele>
        <time>2015-05-24T12:13:08Z</time>
      </trkpt>
      <trkpt lat="46.058510150760412" lon="9.315028600394726">
        <ele>353.42000000000002</ele>
        <time>2015-05-24T12:13:20Z</time>
      </trkpt>
      <trkpt lat="46.058572931215167" lon="9.315021811053157">
        <ele>354.86000000000001</ele>
        <time>2015-05-24T12:13:30Z</time>
      </trkpt>
      <trkpt lat="46.058645853772759" lon="9.315021894872189">
        <ele>356.79000000000002</ele>
        <time>2015-05-24T12:13:42Z</time>
      </trkpt>
      <trkpt lat="46.05872162617743" lon="9.315020553767681">
        <ele>358.70999999999998</ele>
        <time>2015-05-24T12:13:54Z</time>
      </trkpt>
      <trkpt lat="46.058778036385775" lon="9.314988618716598">
        <ele>360.63</ele>
        <time>2015-05-24T12:14:07Z</time>
      </trkpt>
      <trkpt lat="46.058894880115986" lon="9.315002197399736">
        <ele>361.58999999999997</ele>
        <time>2015-05-24T12:14:20Z</time>
      </trkpt>
      <trkpt lat="46.058982806280255" lon="9.315071096643806">
        <ele>363.04000000000002</ele>
        <time>2015-05-24T12:14:33Z</time>
      </trkpt>
      <trkpt lat="46.059058411046863" lon="9.315131027251482">
        <ele>364.48000000000002</ele>
        <time>2015-05-24T12:14:46Z</time>
      </trkpt>
      <trkpt lat="46.059169974178076" lon="9.315147958695889">
        <ele>365.92000000000002</ele>
        <time>2015-05-24T12:15:01Z</time>
      </trkpt>
      <trkpt lat="46.059196796268225" lon="9.315155502408743">
        <ele>365.92000000000002</ele>
        <time>2015-05-24T12:15:04Z</time>
      </trkpt>
      <trkpt lat="46.059292433783412" lon="9.315216606482863">
        <ele>366.88</ele>
        <time>2015-05-24T12:15:16Z</time>
      </trkpt>
      <trkpt lat="46.059306599199772" lon="9.315234962850809">
        <ele>366.88</ele>
        <time>2015-05-24T12:15:18Z</time>
      </trkpt>
      <trkpt lat="46.059362674131989" lon="9.315351219847798">
        <ele>366.39999999999998</ele>
        <time>2015-05-24T12:15:29Z</time>
      </trkpt>
      <trkpt lat="46.059344317764044" lon="9.315498992800713">
        <ele>366.39999999999998</ele>
        <time>2015-05-24T12:15:41Z</time>
      </trkpt>
      <trkpt lat="46.059346664696932" lon="9.315610891208053">
        <ele>366.39999999999998</ele>
        <time>2015-05-24T12:15:49Z</time>
      </trkpt>
      <trkpt lat="46.059362841770053" lon="9.315639724954963">
        <ele>366.39999999999998</ele>
        <time>2015-05-24T12:15:51Z</time>
      </trkpt>
      <trkpt lat="46.059441715478897" lon="9.31578665971756">
        <ele>365.92000000000002</ele>
        <time>2015-05-24T12:16:02Z</time>
      </trkpt>
      <trkpt lat="46.059506423771381" lon="9.315871233120561">
        <ele>364.48000000000002</ele>
        <time>2015-05-24T12:16:11Z</time>
      </trkpt>
      <trkpt lat="46.059548249468207" lon="9.315983885899186">
        <ele>363.04000000000002</ele>
        <time>2015-05-24T12:16:20Z</time>
      </trkpt>
      <trkpt lat="46.059578759595752" lon="9.31607105769217">
        <ele>362.55000000000001</ele>
        <time>2015-05-24T12:16:27Z</time>
      </trkpt>
      <trkpt lat="46.059656459838152" lon="9.316235845908523">
        <ele>360.63</ele>
        <time>2015-05-24T12:16:40Z</time>
      </trkpt>
      <trkpt lat="46.059659644961357" lon="9.316312121227384">
        <ele>360.14999999999998</ele>
        <time>2015-05-24T12:16:50Z</time>
      </trkpt>
      <trkpt lat="46.059688730165362" lon="9.316249592229724">
        <ele>361.11000000000001</ele>
        <time>2015-05-24T12:17:00Z</time>
      </trkpt>
      <trkpt lat="46.059687808156013" lon="9.316233498975635">
        <ele>361.58999999999997</ele>
        <time>2015-05-24T12:17:02Z</time>
      </trkpt>
      <trkpt lat="46.05973600409925" lon="9.316110871732235">
        <ele>363.51999999999998</ele>
        <time>2015-05-24T12:17:14Z</time>
      </trkpt>
      <trkpt lat="46.059817811474204" lon="9.315982377156615">
        <ele>365.44</ele>
        <time>2015-05-24T12:17:26Z</time>
      </trkpt>
      <trkpt lat="46.059885621070862" lon="9.315876932814717">
        <ele>368.31999999999999</ele>
        <time>2015-05-24T12:17:35Z</time>
      </trkpt>
      <trkpt lat="46.059935241937637" lon="9.315750952810049">
        <ele>367.83999999999997</ele>
        <time>2015-05-24T12:17:47Z</time>
      </trkpt>
      <trkpt lat="46.059937002137303" lon="9.315734021365643">
        <ele>368.31999999999999</ele>
        <time>2015-05-24T12:17:48Z</time>
      </trkpt>
      <trkpt lat="46.059976313263178" lon="9.315586499869824">
        <ele>367.83999999999997</ele>
        <time>2015-05-24T12:17:59Z</time>
      </trkpt>
      <trkpt lat="46.060074968263507" lon="9.315478792414069">
        <ele>367.83999999999997</ele>
        <time>2015-05-24T12:18:10Z</time>
      </trkpt>
      <trkpt lat="46.060115704312921" lon="9.315417520701885">
        <ele>368.31999999999999</ele>
        <time>2015-05-24T12:18:16Z</time>
      </trkpt>
      <trkpt lat="46.060250988230109" lon="9.315315512940288">
        <ele>367.36000000000001</ele>
        <time>2015-05-24T12:18:29Z</time>
      </trkpt>
      <trkpt lat="46.060309996828437" lon="9.315274860709906">
        <ele>367.36000000000001</ele>
        <time>2015-05-24T12:18:33Z</time>
      </trkpt>
      <trkpt lat="46.060412926599383" lon="9.315171428024769">
        <ele>368.31999999999999</ele>
        <time>2015-05-24T12:18:44Z</time>
      </trkpt>
      <trkpt lat="46.060493560507894" lon="9.315073946490884">
        <ele>368.80000000000001</ele>
        <time>2015-05-24T12:18:55Z</time>
      </trkpt>
      <trkpt lat="46.060558604076505" lon="9.314991133287549">
        <ele>369.75999999999999</ele>
        <time>2015-05-24T12:19:05Z</time>
      </trkpt>
      <trkpt lat="46.060619791969657" lon="9.314911505207419">
        <ele>370.73000000000002</ele>
        <time>2015-05-24T12:19:15Z</time>
      </trkpt>
      <trkpt lat="46.060670334845781" lon="9.314849898219109">
        <ele>372.64999999999998</ele>
        <time>2015-05-24T12:19:24Z</time>
      </trkpt>
      <trkpt lat="46.060705622658134" lon="9.314763899892569">
        <ele>373.61000000000001</ele>
        <time>2015-05-24T12:19:33Z</time>
      </trkpt>
      <trkpt lat="46.060757003724575" lon="9.314683517441154">
        <ele>375.52999999999997</ele>
        <time>2015-05-24T12:19:43Z</time>
      </trkpt>
      <trkpt lat="46.060812827199697" lon="9.314620736986399">
        <ele>376.49000000000001</ele>
        <time>2015-05-24T12:19:52Z</time>
      </trkpt>
      <trkpt lat="46.060889689251781" lon="9.314541192725301">
        <ele>376.97000000000003</ele>
        <time>2015-05-24T12:20:04Z</time>
      </trkpt>
      <trkpt lat="46.060895388945937" lon="9.314532727003098">
        <ele>376.97000000000003</ele>
        <time>2015-05-24T12:20:05Z</time>
      </trkpt>
      <trkpt lat="46.060973675921559" lon="9.314495930448175">
        <ele>376.49000000000001</ele>
        <time>2015-05-24T12:20:17Z</time>
      </trkpt>
      <trkpt lat="46.061066463589668" lon="9.314466426149011">
        <ele>375.05000000000001</ele>
        <time>2015-05-24T12:20:29Z</time>
      </trkpt>
      <trkpt lat="46.061157491058111" lon="9.31441705673933">
        <ele>375.05000000000001</ele>
        <time>2015-05-24T12:20:40Z</time>
      </trkpt>
      <trkpt lat="46.061225133016706" lon="9.314336255192757">
        <ele>374.56999999999999</ele>
        <time>2015-05-24T12:20:50Z</time>
      </trkpt>
      <trkpt lat="46.061298055574298" lon="9.314223937690258">
        <ele>374.56999999999999</ele>
        <time>2015-05-24T12:21:00Z</time>
      </trkpt>
      <trkpt lat="46.061331918463111" lon="9.314175825566053">
        <ele>374.08999999999997</ele>
        <time>2015-05-24T12:21:04Z</time>
      </trkpt>
      <trkpt lat="46.061359578743577" lon="9.314132742583752">
        <ele>373.61000000000001</ele>
        <time>2015-05-24T12:21:12Z</time>
      </trkpt>
      <trkpt lat="46.06143937446177" lon="9.314065687358379">
        <ele>373.13</ele>
        <time>2015-05-24T12:21:22Z</time>
      </trkpt>
      <trkpt lat="46.061519421637058" lon="9.314071554690599">
        <ele>372.17000000000002</ele>
        <time>2015-05-24T12:21:34Z</time>
      </trkpt>
      <trkpt lat="46.061543058604002" lon="9.314071722328663">
        <ele>372.17000000000002</ele>
        <time>2015-05-24T12:21:36Z</time>
      </trkpt>
      <trkpt lat="46.061590164899826" lon="9.314064430072904">
        <ele>371.20999999999998</ele>
        <time>2015-05-24T12:21:40Z</time>
      </trkpt>
      <trkpt lat="46.061719078570604" lon="9.314036937430501">
        <ele>368.80000000000001</ele>
        <time>2015-05-24T12:21:52Z</time>
      </trkpt>
      <trkpt lat="46.061838436871767" lon="9.314007014036179">
        <ele>368.80000000000001</ele>
        <time>2015-05-24T12:22:03Z</time>
      </trkpt>
      <trkpt lat="46.061864588409662" lon="9.313993100076914">
        <ele>368.80000000000001</ele>
        <time>2015-05-24T12:22:05Z</time>
      </trkpt>
      <trkpt lat="46.061919322237372" lon="9.31393182836473">
        <ele>368.80000000000001</ele>
        <time>2015-05-24T12:22:12Z</time>
      </trkpt>
      <trkpt lat="46.061987299472094" lon="9.313867622986436">
        <ele>369.75999999999999</ele>
        <time>2015-05-24T12:22:19Z</time>
      </trkpt>
      <trkpt lat="46.062020575627685" lon="9.313856139779091">
        <ele>370.24000000000001</ele>
        <time>2015-05-24T12:22:23Z</time>
      </trkpt>
      <trkpt lat="46.062137586995959" lon="9.313804926350713">
        <ele>369.27999999999997</ele>
        <time>2015-05-24T12:22:35Z</time>
      </trkpt>
      <trkpt lat="46.062195086851716" lon="9.313777266070247">
        <ele>367.83999999999997</ele>
        <time>2015-05-24T12:22:44Z</time>
      </trkpt>
      <trkpt lat="46.062266416847706" lon="9.313737703487277">
        <ele>365.44</ele>
        <time>2015-05-24T12:22:55Z</time>
      </trkpt>
      <trkpt lat="46.06228862889111" lon="9.313669223338366">
        <ele>363.51999999999998</ele>
        <time>2015-05-24T12:23:07Z</time>
      </trkpt>
      <trkpt lat="46.062348978593946" lon="9.313608705997467">
        <ele>360.63</ele>
        <time>2015-05-24T12:23:20Z</time>
      </trkpt>
      <trkpt lat="46.062368676066399" lon="9.313556822016835">
        <ele>358.70999999999998</ele>
        <time>2015-05-24T12:23:31Z</time>
      </trkpt>
      <trkpt lat="46.06243615038693" lon="9.313519522547722">
        <ele>356.31</ele>
        <time>2015-05-24T12:23:41Z</time>
      </trkpt>
      <trkpt lat="46.062495075166225" lon="9.313457412645221">
        <ele>355.33999999999997</ele>
        <time>2015-05-24T12:23:50Z</time>
      </trkpt>
      <trkpt lat="46.062522986903787" lon="9.313437547534704">
        <ele>354.86000000000001</ele>
        <time>2015-05-24T12:23:53Z</time>
      </trkpt>
      <trkpt lat="46.062558107078075" lon="9.313403517007828">
        <ele>353.89999999999998</ele>
        <time>2015-05-24T12:23:57Z</time>
      </trkpt>
      <trkpt lat="46.06258325278759" lon="9.31336747482419">
        <ele>353.42000000000002</ele>
        <time>2015-05-24T12:24:00Z</time>
      </trkpt>
      <trkpt lat="46.062611499801278" lon="9.313345095142722">
        <ele>353.42000000000002</ele>
        <time>2015-05-24T12:24:03Z</time>
      </trkpt>
      <trkpt lat="46.062647625803947" lon="9.313283152878285">
        <ele>352.45999999999998</ele>
        <time>2015-05-24T12:24:15Z</time>
      </trkpt>
      <trkpt lat="46.062647039070725" lon="9.31329027749598">
        <ele>352.45999999999998</ele>
        <time>2015-05-24T12:24:19Z</time>
      </trkpt>
      <trkpt lat="46.062779808416963" lon="9.313234370201826">
        <ele>351.5</ele>
        <time>2015-05-24T12:24:30Z</time>
      </trkpt>
      <trkpt lat="46.062849629670382" lon="9.313197573646903">
        <ele>350.54000000000002</ele>
        <time>2015-05-24T12:24:36Z</time>
      </trkpt>
      <trkpt lat="46.062980806455016" lon="9.313264796510339">
        <ele>350.06</ele>
        <time>2015-05-24T12:24:48Z</time>
      </trkpt>
      <trkpt lat="46.06298977509141" lon="9.313265634700656">
        <ele>350.06</ele>
        <time>2015-05-24T12:24:52Z</time>
      </trkpt>
      <trkpt lat="46.063042664900422" lon="9.313236214220524">
        <ele>349.57999999999998</ele>
        <time>2015-05-24T12:24:58Z</time>
      </trkpt>
      <trkpt lat="46.063135201111436" lon="9.313202938064933">
        <ele>347.64999999999998</ele>
        <time>2015-05-24T12:25:07Z</time>
      </trkpt>
      <trkpt lat="46.063205609098077" lon="9.313150383532047">
        <ele>347.17000000000002</ele>
        <time>2015-05-24T12:25:19Z</time>
      </trkpt>
      <trkpt lat="46.063229832798243" lon="9.313118867576122">
        <ele>344.76999999999998</ele>
        <time>2015-05-24T12:25:24Z</time>
      </trkpt>
      <trkpt lat="46.063291188329458" lon="9.313065810129046">
        <ele>343.32999999999998</ele>
        <time>2015-05-24T12:25:35Z</time>
      </trkpt>
      <trkpt lat="46.063346173614264" lon="9.313006130978465">
        <ele>339.95999999999998</ele>
        <time>2015-05-24T12:25:49Z</time>
      </trkpt>
      <trkpt lat="46.063432674854994" lon="9.312961874529719">
        <ele>337.56</ele>
        <time>2015-05-24T12:26:01Z</time>
      </trkpt>
      <trkpt lat="46.063502077013254" lon="9.312945948913693">
        <ele>335.63999999999999</ele>
        <time>2015-05-24T12:26:11Z</time>
      </trkpt>
      <trkpt lat="46.063624368980527" lon="9.312961790710688">
        <ele>334.68000000000001</ele>
        <time>2015-05-24T12:26:23Z</time>
      </trkpt>
      <trkpt lat="46.06372662819922" lon="9.31299950927496">
        <ele>335.16000000000003</ele>
        <time>2015-05-24T12:26:35Z</time>
      </trkpt>
      <trkpt lat="46.0638243611902" lon="9.312986936420202">
        <ele>335.63999999999999</ele>
        <time>2015-05-24T12:26:48Z</time>
      </trkpt>
      <trkpt lat="46.063929470255971" lon="9.312924742698669">
        <ele>332.75</ele>
        <time>2015-05-24T12:27:03Z</time>
      </trkpt>
      <trkpt lat="46.064001554623246" lon="9.312857100740075">
        <ele>329.87</ele>
        <time>2015-05-24T12:27:18Z</time>
      </trkpt>
      <trkpt lat="46.064062491059303" lon="9.3128109164536">
        <ele>327.47000000000003</ele>
        <time>2015-05-24T12:27:30Z</time>
      </trkpt>
      <trkpt lat="46.06413415633142" lon="9.312824662774801">
        <ele>325.54000000000002</ele>
        <time>2015-05-24T12:27:38Z</time>
      </trkpt>
      <trkpt lat="46.064244126901031" lon="9.312776047736406">
        <ele>325.54000000000002</ele>
        <time>2015-05-24T12:27:50Z</time>
      </trkpt>
      <trkpt lat="46.064325431361794" lon="9.312723074108362">
        <ele>323.62</ele>
        <time>2015-05-24T12:28:07Z</time>
      </trkpt>
      <trkpt lat="46.064272625371814" lon="9.312683511525393">
        <ele>321.69999999999999</ele>
        <time>2015-05-24T12:28:18Z</time>
      </trkpt>
      <trkpt lat="46.064352924004197" lon="9.312610672786832">
        <ele>318.81</ele>
        <time>2015-05-24T12:28:30Z</time>
      </trkpt>
      <trkpt lat="46.064439676702023" lon="9.312549568712711">
        <ele>315.93000000000001</ele>
        <time>2015-05-24T12:28:44Z</time>
      </trkpt>
      <trkpt lat="46.06450748629868" lon="9.312488632276654">
        <ele>313.52999999999997</ele>
        <time>2015-05-24T12:28:57Z</time>
      </trkpt>
      <trkpt lat="46.06458174996078" lon="9.312408585101366">
        <ele>311.12</ele>
        <time>2015-05-24T12:29:09Z</time>
      </trkpt>
      <trkpt lat="46.064644111320376" lon="9.312310852110386">
        <ele>307.75999999999999</ele>
        <time>2015-05-24T12:29:22Z</time>
      </trkpt>
      <trkpt lat="46.064711418002844" lon="9.312223847955465">
        <ele>304.88</ele>
        <time>2015-05-24T12:29:35Z</time>
      </trkpt>
      <trkpt lat="46.06478207744658" lon="9.312137849628925">
        <ele>302.47000000000003</ele>
        <time>2015-05-24T12:29:47Z</time>
      </trkpt>
      <trkpt lat="46.064817449077964" lon="9.312079595401883">
        <ele>300.55000000000001</ele>
        <time>2015-05-24T12:29:57Z</time>
      </trkpt>
      <trkpt lat="46.064856257289648" lon="9.312051013112068">
        <ele>299.58999999999997</ele>
        <time>2015-05-24T12:30:07Z</time>
      </trkpt>
      <trkpt lat="46.064866734668612" lon="9.312028046697378">
        <ele>299.11000000000001</ele>
        <time>2015-05-24T12:30:18Z</time>
      </trkpt>
      <trkpt lat="46.064866902306676" lon="9.312003571540117">
        <ele>299.11000000000001</ele>
        <time>2015-05-24T12:30:34Z</time>
      </trkpt>
      <trkpt lat="46.064912080764771" lon="9.311998458579183">
        <ele>298.14999999999998</ele>
        <time>2015-05-24T12:30:48Z</time>
      </trkpt>
      <trkpt lat="46.064950386062264" lon="9.312001224607229">
        <ele>297.67000000000002</ele>
        <time>2015-05-24T12:31:04Z</time>
      </trkpt>
      <trkpt lat="46.064963545650244" lon="9.311962332576513">
        <ele>296.69999999999999</ele>
        <time>2015-05-24T12:31:21Z</time>
      </trkpt>
      <trkpt lat="46.065025487914681" lon="9.311905251815915">
        <ele>293.81999999999999</ele>
        <time>2015-05-24T12:31:32Z</time>
      </trkpt>
      <trkpt lat="46.065078964456916" lon="9.311865018680692">
        <ele>291.42000000000002</ele>
        <time>2015-05-24T12:31:40Z</time>
      </trkpt>
      <trkpt lat="46.065172590315342" lon="9.311784971505404">
        <ele>290.45999999999998</ele>
        <time>2015-05-24T12:31:52Z</time>
      </trkpt>
      <trkpt lat="46.065265294164419" lon="9.311725459992886">
        <ele>289.49000000000001</ele>
        <time>2015-05-24T12:32:02Z</time>
      </trkpt>
      <trkpt lat="46.065363362431526" lon="9.311639461666346">
        <ele>289.00999999999999</ele>
        <time>2015-05-24T12:32:13Z</time>
      </trkpt>
      <trkpt lat="46.065443409606814" lon="9.311567293480039">
        <ele>288.05000000000001</ele>
        <time>2015-05-24T12:32:25Z</time>
      </trkpt>
      <trkpt lat="46.065529491752386" lon="9.31152630597353">
        <ele>288.05000000000001</ele>
        <time>2015-05-24T12:32:35Z</time>
      </trkpt>
      <trkpt lat="46.065603252500296" lon="9.311443157494068">
        <ele>288.05000000000001</ele>
        <time>2015-05-24T12:32:47Z</time>
      </trkpt>
      <trkpt lat="46.065669972449541" lon="9.311367133632302">
        <ele>286.13</ele>
        <time>2015-05-24T12:32:59Z</time>
      </trkpt>
      <trkpt lat="46.065742392092943" lon="9.311278034001589">
        <ele>284.20999999999998</ele>
        <time>2015-05-24T12:33:12Z</time>
      </trkpt>
      <trkpt lat="46.065760832279921" lon="9.311257163062692">
        <ele>283.73000000000002</ele>
        <time>2015-05-24T12:33:15Z</time>
      </trkpt>
      <trkpt lat="46.065862840041518" lon="9.311164207756519">
        <ele>283.25</ele>
        <time>2015-05-24T12:33:28Z</time>
      </trkpt>
      <trkpt lat="46.065953364595771" lon="9.311091536656022">
        <ele>281.80000000000001</ele>
        <time>2015-05-24T12:33:40Z</time>
      </trkpt>
      <trkpt lat="46.066051935777068" lon="9.311000006273389">
        <ele>279.88</ele>
        <time>2015-05-24T12:33:52Z</time>
      </trkpt>
      <trkpt lat="46.066169952973723" lon="9.310944266617298">
        <ele>281.80000000000001</ele>
        <time>2015-05-24T12:34:04Z</time>
      </trkpt>
      <trkpt lat="46.066223848611116" lon="9.310888443142176">
        <ele>281.80000000000001</ele>
        <time>2015-05-24T12:34:14Z</time>
      </trkpt>
      <trkpt lat="46.066283360123634" lon="9.310804456472397">
        <ele>278.92000000000002</ele>
        <time>2015-05-24T12:34:26Z</time>
      </trkpt>
      <trkpt lat="46.066365670412779" lon="9.310724074020982">
        <ele>276.51999999999998</ele>
        <time>2015-05-24T12:34:38Z</time>
      </trkpt>
      <trkpt lat="46.066473377868533" lon="9.310650313273072">
        <ele>275.56</ele>
        <time>2015-05-24T12:34:51Z</time>
      </trkpt>
      <trkpt lat="46.066482095047832" lon="9.310643943026662">
        <ele>275.06999999999999</ele>
        <time>2015-05-24T12:34:52Z</time>
      </trkpt>
      <trkpt lat="46.066580582410097" lon="9.310569847002626">
        <ele>274.11000000000001</ele>
        <time>2015-05-24T12:35:06Z</time>
      </trkpt>
      <trkpt lat="46.066685942932963" lon="9.310526177287102">
        <ele>270.75</ele>
        <time>2015-05-24T12:35:20Z</time>
      </trkpt>
      <trkpt lat="46.066797254607081" lon="9.310509162023664">
        <ele>268.35000000000002</ele>
        <time>2015-05-24T12:35:34Z</time>
      </trkpt>
      <trkpt lat="46.066814688965678" lon="9.310443783178926">
        <ele>266.42000000000002</ele>
        <time>2015-05-24T12:35:46Z</time>
      </trkpt>
      <trkpt lat="46.066746627911925" lon="9.310390222817659">
        <ele>263.06</ele>
        <time>2015-05-24T12:35:59Z</time>
      </trkpt>
      <trkpt lat="46.066789291799068" lon="9.310267930850387">
        <ele>260.64999999999998</ele>
        <time>2015-05-24T12:36:12Z</time>
      </trkpt>
      <trkpt lat="46.066836146637797" lon="9.310201797634363">
        <ele>258.25</ele>
        <time>2015-05-24T12:36:22Z</time>
      </trkpt>
      <trkpt lat="46.066929772496223" lon="9.310110015794635">
        <ele>256.32999999999998</ele>
        <time>2015-05-24T12:36:34Z</time>
      </trkpt>
      <trkpt lat="46.067032283172011" lon="9.310085624456406">
        <ele>254.41</ele>
        <time>2015-05-24T12:36:46Z</time>
      </trkpt>
      <trkpt lat="46.067135967314243" lon="9.310028711333871">
        <ele>252</ele>
        <time>2015-05-24T12:36:59Z</time>
      </trkpt>
      <trkpt lat="46.067223642021418" lon="9.310030555352569">
        <ele>248.63999999999999</ele>
        <time>2015-05-24T12:37:11Z</time>
      </trkpt>
      <trkpt lat="46.067312322556973" lon="9.310132479295135">
        <ele>246.72</ele>
        <time>2015-05-24T12:37:23Z</time>
      </trkpt>
      <trkpt lat="46.067368062213063" lon="9.310188554227352">
        <ele>244.78999999999999</ele>
        <time>2015-05-24T12:37:35Z</time>
      </trkpt>
      <trkpt lat="46.067434782162309" lon="9.310208670794964">
        <ele>242.87</ele>
        <time>2015-05-24T12:37:43Z</time>
      </trkpt>
      <trkpt lat="46.067531006410718" lon="9.310272624716163">
        <ele>240.94999999999999</ele>
        <time>2015-05-24T12:37:57Z</time>
      </trkpt>
      <trkpt lat="46.067557577043772" lon="9.310312606394291">
        <ele>240.47</ele>
        <time>2015-05-24T12:38:06Z</time>
      </trkpt>
      <trkpt lat="46.067618513479829" lon="9.310363736003637">
        <ele>239.50999999999999</ele>
        <time>2015-05-24T12:38:17Z</time>
      </trkpt>
      <trkpt lat="46.067638713866472" lon="9.310383768752217">
        <ele>239.02000000000001</ele>
        <time>2015-05-24T12:38:33Z</time>
      </trkpt>
      <trkpt lat="46.067679030820727" lon="9.310384187847376">
        <ele>239.50999999999999</ele>
        <time>2015-05-24T12:38:53Z</time>
      </trkpt>
      <trkpt lat="46.06768992729485" lon="9.310363736003637">
        <ele>238.53999999999999</ele>
        <time>2015-05-24T12:38:56Z</time>
      </trkpt>
      <trkpt lat="46.067644245922565" lon="9.310268014669418">
        <ele>238.53999999999999</ele>
        <time>2015-05-24T12:39:05Z</time>
      </trkpt>
      <trkpt lat="46.067632427439094" lon="9.310271199792624">
        <ele>237.58000000000001</ele>
        <time>2015-05-24T12:39:09Z</time>
      </trkpt>
      <trkpt lat="46.06759705580771" lon="9.310190230607987">
        <ele>236.13999999999999</ele>
        <time>2015-05-24T12:39:14Z</time>
      </trkpt>
      <trkpt lat="46.067552212625742" lon="9.310067938640714">
        <ele>233.25999999999999</ele>
        <time>2015-05-24T12:39:24Z</time>
      </trkpt>
      <trkpt lat="46.067608874291182" lon="9.3099754024297">
        <ele>230.37</ele>
        <time>2015-05-24T12:39:36Z</time>
      </trkpt>
      <trkpt lat="46.067584566771984" lon="9.309945311397314">
        <ele>228.44999999999999</ele>
        <time>2015-05-24T12:39:47Z</time>
      </trkpt>
      <trkpt lat="46.067561935633421" lon="9.309941120445728">
        <ele>226.53</ele>
        <time>2015-05-24T12:39:52Z</time>
      </trkpt>
      <trkpt lat="46.067513404414058" lon="9.30987473577261">
        <ele>225.09</ele>
        <time>2015-05-24T12:40:04Z</time>
      </trkpt>
      <trkpt lat="46.067511141300201" lon="9.309796281158924">
        <ele>223.16</ele>
        <time>2015-05-24T12:40:14Z</time>
      </trkpt>
      <trkpt lat="46.067528827115893" lon="9.309730567038059">
        <ele>220.28</ele>
        <time>2015-05-24T12:40:25Z</time>
      </trkpt>
      <trkpt lat="46.06758682988584" lon="9.30972377769649">
        <ele>217.40000000000001</ele>
        <time>2015-05-24T12:40:35Z</time>
      </trkpt>
      <trkpt lat="46.067621698603034" lon="9.309711121022701">
        <ele>215.94999999999999</ele>
        <time>2015-05-24T12:40:43Z</time>
      </trkpt>
      <trkpt lat="46.067679952830076" lon="9.309687567874789">
        <ele>216.43000000000001</ele>
        <time>2015-05-24T12:40:53Z</time>
      </trkpt>
      <trkpt lat="46.067735441029072" lon="9.309708857908845">
        <ele>215.94999999999999</ele>
        <time>2015-05-24T12:41:05Z</time>
      </trkpt>
      <trkpt lat="46.067771483212709" lon="9.309705756604672">
        <ele>216.43000000000001</ele>
        <time>2015-05-24T12:41:15Z</time>
      </trkpt>
      <trkpt lat="46.067767459899187" lon="9.30970374494791">
        <ele>215.94999999999999</ele>
        <time>2015-05-24T12:41:31Z</time>
      </trkpt>
      <trkpt lat="46.067851614207029" lon="9.309698883444071">
        <ele>215.94999999999999</ele>
        <time>2015-05-24T12:41:41Z</time>
      </trkpt>
      <trkpt lat="46.067896876484156" lon="9.309698715806007">
        <ele>215.94999999999999</ele>
        <time>2015-05-24T12:41:46Z</time>
      </trkpt>
      <trkpt lat="46.06790442019701" lon="9.309755796566606">
        <ele>216.43000000000001</ele>
        <time>2015-05-24T12:41:57Z</time>
      </trkpt>
      <trkpt lat="46.067906096577644" lon="9.309742888435721">
        <ele>215.94999999999999</ele>
        <time>2015-05-24T12:42:07Z</time>
      </trkpt>
      <trkpt lat="46.067914059385657" lon="9.309730567038059">
        <ele>215.94999999999999</ele>
        <time>2015-05-24T12:42:22Z</time>
      </trkpt>
      <trkpt lat="46.067895786836743" lon="9.309727130457759">
        <ele>215.94999999999999</ele>
        <time>2015-05-24T12:42:36Z</time>
      </trkpt>
      <trkpt lat="46.067898217588663" lon="9.309721682220697">
        <ele>215.94999999999999</ele>
        <time>2015-05-24T12:42:49Z</time>
      </trkpt>
      <trkpt lat="46.06790978461504" lon="9.309701900929213">
        <ele>215.94999999999999</ele>
        <time>2015-05-24T12:43:06Z</time>
      </trkpt>
      <trkpt lat="46.067911041900516" lon="9.30967977270484">
        <ele>215.94999999999999</ele>
        <time>2015-05-24T12:43:20Z</time>
      </trkpt>
      <trkpt lat="46.06790685094893" lon="9.309681197628379">
        <ele>215.94999999999999</ele>
        <time>2015-05-24T12:43:39Z</time>
      </trkpt>
      <trkpt lat="46.067943731322885" lon="9.309672899544239">
        <ele>215.94999999999999</ele>
        <time>2015-05-24T12:43:57Z</time>
      </trkpt>
      <trkpt lat="46.067970637232065" lon="9.309671726077795">
        <ele>215.94999999999999</ele>
        <time>2015-05-24T12:44:00Z</time>
      </trkpt>
      <trkpt lat="46.068098377436399" lon="9.309684801846743">
        <ele>216.43000000000001</ele>
        <time>2015-05-24T12:44:14Z</time>
      </trkpt>
      <trkpt lat="46.068192590028048" lon="9.309701398015022">
        <ele>215.94999999999999</ele>
        <time>2015-05-24T12:44:25Z</time>
      </trkpt>
      <trkpt lat="46.068311529234052" lon="9.309699302539229">
        <ele>215.94999999999999</ele>
        <time>2015-05-24T12:44:36Z</time>
      </trkpt>
      <trkpt lat="46.068422337993979" lon="9.309707684442401">
        <ele>215.94999999999999</ele>
        <time>2015-05-24T12:44:48Z</time>
      </trkpt>
      <trkpt lat="46.068419404327869" lon="9.309707852080464">
        <ele>216.43000000000001</ele>
        <time>2015-05-24T12:44:56Z</time>
      </trkpt>
      <trkpt lat="46.068500960245728" lon="9.309689747169614">
        <ele>215.94999999999999</ele>
        <time>2015-05-24T12:45:09Z</time>
      </trkpt>
      <trkpt lat="46.06856650672853" lon="9.309690166264772">
        <ele>215.94999999999999</ele>
        <time>2015-05-24T12:45:19Z</time>
      </trkpt>
      <trkpt lat="46.068676561117172" lon="9.309767698869109">
        <ele>215.94999999999999</ele>
        <time>2015-05-24T12:45:31Z</time>
      </trkpt>
      <trkpt lat="46.06879323720932" lon="9.309763927012682">
        <ele>215.94999999999999</ele>
        <time>2015-05-24T12:45:42Z</time>
      </trkpt>
      <trkpt lat="46.068843528628349" lon="9.309781696647406">
        <ele>215.94999999999999</ele>
        <time>2015-05-24T12:45:47Z</time>
      </trkpt>
      <trkpt lat="46.068993480876088" lon="9.309794185683131">
        <ele>215.94999999999999</ele>
        <time>2015-05-24T12:46:01Z</time>
      </trkpt>
      <trkpt lat="46.069074869155884" lon="9.309728806838393">
        <ele>215.94999999999999</ele>
        <time>2015-05-24T12:46:13Z</time>
      </trkpt>
      <trkpt lat="46.069196909666061" lon="9.309699889272451">
        <ele>215.94999999999999</ele>
        <time>2015-05-24T12:46:25Z</time>
      </trkpt>
      <trkpt lat="46.069281315430999" lon="9.309627469629049">
        <ele>215.94999999999999</ele>
        <time>2015-05-24T12:46:36Z</time>
      </trkpt>
      <trkpt lat="46.069443253800273" lon="9.309555888175964">
        <ele>215.94999999999999</ele>
        <time>2015-05-24T12:46:51Z</time>
      </trkpt>
      <trkpt lat="46.069561019539833" lon="9.309509620070458">
        <ele>215.94999999999999</ele>
        <time>2015-05-24T12:47:02Z</time>
      </trkpt>
      <trkpt lat="46.06968691572547" lon="9.309440301731229">
        <ele>216.43000000000001</ele>
        <time>2015-05-24T12:47:14Z</time>
      </trkpt>
      <trkpt lat="46.069812895730138" lon="9.309373078867793">
        <ele>215.94999999999999</ele>
        <time>2015-05-24T12:47:26Z</time>
      </trkpt>
      <trkpt lat="46.069931080564857" lon="9.309277189895511">
        <ele>215.94999999999999</ele>
        <time>2015-05-24T12:47:39Z</time>
      </trkpt>
      <trkpt lat="46.070030238479376" lon="9.309211643412709">
        <ele>216.43000000000001</ele>
        <time>2015-05-24T12:47:50Z</time>
      </trkpt>
      <trkpt lat="46.070051863789558" lon="9.309211140498519">
        <ele>216.43000000000001</ele>
        <time>2015-05-24T12:48:01Z</time>
      </trkpt>
      <trkpt lat="46.070055970922112" lon="9.30920921266079">
        <ele>216.43000000000001</ele>
        <time>2015-05-24T12:48:06Z</time>
      </trkpt>
      <trkpt lat="46.07008027844131" lon="9.309183480218053">
        <ele>216.91</ele>
        <time>2015-05-24T12:48:09Z</time>
      </trkpt>
      <trkpt lat="46.07018874026835" lon="9.309129165485501">
        <ele>216.43000000000001</ele>
        <time>2015-05-24T12:48:21Z</time>
      </trkpt>
      <trkpt lat="46.07033341191709" lon="9.309013327583671">
        <ele>216.43000000000001</ele>
        <time>2015-05-24T12:48:34Z</time>
      </trkpt>
      <trkpt lat="46.070371717214584" lon="9.308978961780667">
        <ele>216.91</ele>
        <time>2015-05-24T12:48:45Z</time>
      </trkpt>
      <trkpt lat="46.070453273132443" lon="9.308955995365977">
        <ele>216.43000000000001</ele>
        <time>2015-05-24T12:48:56Z</time>
      </trkpt>
      <trkpt lat="46.070555029436946" lon="9.30891115218401">
        <ele>216.91</ele>
        <time>2015-05-24T12:49:05Z</time>
      </trkpt>
      <trkpt lat="46.070694169029593" lon="9.308849629014731">
        <ele>217.40000000000001</ele>
        <time>2015-05-24T12:49:19Z</time>
      </trkpt>
      <trkpt lat="46.070697857066989" lon="9.308835212141275">
        <ele>216.91</ele>
        <time>2015-05-24T12:49:21Z</time>
      </trkpt>
      <trkpt lat="46.070903968065977" lon="9.308762960135937">
        <ele>217.88</ele>
        <time>2015-05-24T12:49:37Z</time>
      </trkpt>
      <trkpt lat="46.071066744625568" lon="9.308691965416074">
        <ele>218.36000000000001</ele>
        <time>2015-05-24T12:49:51Z</time>
      </trkpt>
      <trkpt lat="46.071167411282659" lon="9.308645613491535">
        <ele>218.36000000000001</ele>
        <time>2015-05-24T12:50:01Z</time>
      </trkpt>
      <trkpt lat="46.071285596117377" lon="9.308603703975678">
        <ele>219.31999999999999</ele>
        <time>2015-05-24T12:50:11Z</time>
      </trkpt>
      <trkpt lat="46.071382239460945" lon="9.30854469537735">
        <ele>218.84</ele>
        <time>2015-05-24T12:50:21Z</time>
      </trkpt>
      <trkpt lat="46.071492545306683" lon="9.308515274897218">
        <ele>218.84</ele>
        <time>2015-05-24T12:50:31Z</time>
      </trkpt>
      <trkpt lat="46.071612909436226" lon="9.308481412008405">
        <ele>219.31999999999999</ele>
        <time>2015-05-24T12:50:41Z</time>
      </trkpt>
      <trkpt lat="46.07173134572804" lon="9.308449812233448">
        <ele>219.80000000000001</ele>
        <time>2015-05-24T12:50:53Z</time>
      </trkpt>
      <trkpt lat="46.071857996284962" lon="9.308407986536622">
        <ele>219.80000000000001</ele>
        <time>2015-05-24T12:51:04Z</time>
      </trkpt>
      <trkpt lat="46.071990597993135" lon="9.308357276022434">
        <ele>219.80000000000001</ele>
        <time>2015-05-24T12:51:16Z</time>
      </trkpt>
      <trkpt lat="46.072095958516002" lon="9.3083072360605">
        <ele>219.80000000000001</ele>
        <time>2015-05-24T12:51:27Z</time>
      </trkpt>
      <trkpt lat="46.072218418121338" lon="9.308248227462173">
        <ele>221.24000000000001</ele>
        <time>2015-05-24T12:51:39Z</time>
      </trkpt>
      <trkpt lat="46.072362335398793" lon="9.308178657665849">
        <ele>221.72</ele>
        <time>2015-05-24T12:51:51Z</time>
      </trkpt>
      <trkpt lat="46.072497284039855" lon="9.308118894696236">
        <ele>222.19999999999999</ele>
        <time>2015-05-24T12:52:04Z</time>
      </trkpt>
      <trkpt lat="46.07262996956706" lon="9.308058880269527">
        <ele>221.72</ele>
        <time>2015-05-24T12:52:17Z</time>
      </trkpt>
      <trkpt lat="46.072653355076909" lon="9.308081092312932">
        <ele>222.19999999999999</ele>
        <time>2015-05-24T12:52:27Z</time>
      </trkpt>
      <trkpt lat="46.072622425854206" lon="9.308115122839809">
        <ele>222.19999999999999</ele>
        <time>2015-05-24T12:52:42Z</time>
      </trkpt>
      <trkpt lat="46.072629550471902" lon="9.308086121454835">
        <ele>222.19999999999999</ele>
        <time>2015-05-24T12:52:54Z</time>
      </trkpt>
      <trkpt lat="46.072656791657209" lon="9.308067345991731">
        <ele>222.19999999999999</ele>
        <time>2015-05-24T12:53:02Z</time>
      </trkpt>
      <trkpt lat="46.072646481916308" lon="9.308087714016438">
        <ele>222.19999999999999</ele>
        <time>2015-05-24T12:53:12Z</time>
      </trkpt>
      <trkpt lat="46.072688642889261" lon="9.308059634640813">
        <ele>222.19999999999999</ele>
        <time>2015-05-24T12:53:26Z</time>
      </trkpt>
      <trkpt lat="46.072685541585088" lon="9.308005655184388">
        <ele>222.19999999999999</ele>
        <time>2015-05-24T12:53:48Z</time>
      </trkpt>
      <trkpt lat="46.072695599868894" lon="9.308005403727293">
        <ele>222.19999999999999</ele>
        <time>2015-05-24T12:53:49Z</time>
      </trkpt>
      <trkpt lat="46.072741029784083" lon="9.307990316301584">
        <ele>222.19999999999999</ele>
        <time>2015-05-24T12:53:59Z</time>
      </trkpt>
      <trkpt lat="46.072709849104285" lon="9.307994339615107">
        <ele>222.19999999999999</ele>
        <time>2015-05-24T12:54:17Z</time>
      </trkpt>
      <trkpt lat="46.072678584605455" lon="9.307983107864857">
        <ele>222.68000000000001</ele>
        <time>2015-05-24T12:54:27Z</time>
      </trkpt>
      <trkpt lat="46.072681434452534" lon="9.307965757325292">
        <ele>222.68000000000001</ele>
        <time>2015-05-24T12:54:37Z</time>
      </trkpt>
      <trkpt lat="46.072714123874903" lon="9.307946227490902">
        <ele>222.19999999999999</ele>
        <time>2015-05-24T12:54:46Z</time>
      </trkpt>
      <trkpt lat="46.072733486071229" lon="9.308002050966024">
        <ele>222.68000000000001</ele>
        <time>2015-05-24T12:55:05Z</time>
      </trkpt>
      <trkpt lat="46.072715129703283" lon="9.307924937456846">
        <ele>222.68000000000001</ele>
        <time>2015-05-24T12:55:29Z</time>
      </trkpt>
      <trkpt lat="46.072700042277575" lon="9.307917142286897">
        <ele>222.68000000000001</ele>
        <time>2015-05-24T12:55:40Z</time>
      </trkpt>
      <trkpt lat="46.072683613747358" lon="9.307939605787396">
        <ele>222.68000000000001</ele>
        <time>2015-05-24T12:55:56Z</time>
      </trkpt>
      <trkpt lat="46.072711776942015" lon="9.307921500876546">
        <ele>222.68000000000001</ele>
        <time>2015-05-24T12:56:13Z</time>
      </trkpt>
      <trkpt lat="46.072752932086587" lon="9.307913454249501">
        <ele>222.68000000000001</ele>
        <time>2015-05-24T12:56:17Z</time>
      </trkpt>
      <trkpt lat="46.072881929576397" lon="9.307867521420121">
        <ele>222.68000000000001</ele>
        <time>2015-05-24T12:56:30Z</time>
      </trkpt>
      <trkpt lat="46.073015201836824" lon="9.30783181451261">
        <ele>223.63999999999999</ele>
        <time>2015-05-24T12:56:43Z</time>
      </trkpt>
      <trkpt lat="46.073113018646836" lon="9.307802896946669">
        <ele>224.12</ele>
        <time>2015-05-24T12:56:54Z</time>
      </trkpt>
      <trkpt lat="46.073172530159354" lon="9.307750593870878">
        <ele>224.12</ele>
        <time>2015-05-24T12:57:00Z</time>
      </trkpt>
      <trkpt lat="46.073340000584722" lon="9.307699967175722">
        <ele>224.61000000000001</ele>
        <time>2015-05-24T12:57:15Z</time>
      </trkpt>
      <trkpt lat="46.073399595916271" lon="9.307643389329314">
        <ele>225.09</ele>
        <time>2015-05-24T12:57:21Z</time>
      </trkpt>
      <trkpt lat="46.073587434366345" lon="9.307618159800768">
        <ele>225.09</ele>
        <time>2015-05-24T12:57:34Z</time>
      </trkpt>
      <trkpt lat="46.073742667213082" lon="9.307611621916294">
        <ele>225.56999999999999</ele>
        <time>2015-05-24T12:57:46Z</time>
      </trkpt>
      <trkpt lat="46.07386713847518" lon="9.307601395994425">
        <ele>227.00999999999999</ele>
        <time>2015-05-24T12:57:58Z</time>
      </trkpt>
      <trkpt lat="46.073904437944293" lon="9.307596953585744">
        <ele>226.05000000000001</ele>
        <time>2015-05-24T12:58:02Z</time>
      </trkpt>
      <trkpt lat="46.074045840650797" lon="9.307618411257863">
        <ele>226.05000000000001</ele>
        <time>2015-05-24T12:58:16Z</time>
      </trkpt>
      <trkpt lat="46.074205012992024" lon="9.307673731818795">
        <ele>226.53</ele>
        <time>2015-05-24T12:58:28Z</time>
      </trkpt>
      <trkpt lat="46.074369549751282" lon="9.307749755680561">
        <ele>227.00999999999999</ele>
        <time>2015-05-24T12:58:42Z</time>
      </trkpt>
      <trkpt lat="46.074502067640424" lon="9.307758053764701">
        <ele>227.49000000000001</ele>
        <time>2015-05-24T12:58:53Z</time>
      </trkpt>
      <trkpt lat="46.074596280232072" lon="9.307743553072214">
        <ele>227.49000000000001</ele>
        <time>2015-05-24T12:59:04Z</time>
      </trkpt>
      <trkpt lat="46.074663419276476" lon="9.307736093178392">
        <ele>227.97</ele>
        <time>2015-05-24T12:59:11Z</time>
      </trkpt>
      <trkpt lat="46.074791494756937" lon="9.307766770943999">
        <ele>227.97</ele>
        <time>2015-05-24T12:59:24Z</time>
      </trkpt>
      <trkpt lat="46.074848240241408" lon="9.307765429839492">
        <ele>227.97</ele>
        <time>2015-05-24T12:59:30Z</time>
      </trkpt>
      <trkpt lat="46.074962988495827" lon="9.307760903611779">
        <ele>228.44999999999999</ele>
        <time>2015-05-24T12:59:42Z</time>
      </trkpt>
      <trkpt lat="46.074984529986978" lon="9.307751683518291">
        <ele>228.93000000000001</ele>
        <time>2015-05-24T12:59:45Z</time>
      </trkpt>
      <trkpt lat="46.07507404871285" lon="9.307774398475885">
        <ele>228.93000000000001</ele>
        <time>2015-05-24T12:59:56Z</time>
      </trkpt>
      <trkpt lat="46.075109587982297" lon="9.307822091504931">
        <ele>228.93000000000001</ele>
        <time>2015-05-24T12:59:58Z</time>
      </trkpt>
      <trkpt lat="46.075163148343563" lon="9.30793340317905">
        <ele>228.93000000000001</ele>
        <time>2015-05-24T13:00:10Z</time>
      </trkpt>
      <trkpt lat="46.075186198577285" lon="9.307924183085561">
        <ele>229.41</ele>
        <time>2015-05-24T13:00:31Z</time>
      </trkpt>
      <trkpt lat="46.075174463912845" lon="9.307891326025128">
        <ele>229.41</ele>
        <time>2015-05-24T13:00:38Z</time>
      </trkpt>
      <trkpt lat="46.075280578806996" lon="9.307850673794746">
        <ele>229.41</ele>
        <time>2015-05-24T13:00:48Z</time>
      </trkpt>
      <trkpt lat="46.075284350663424" lon="9.307842794805765">
        <ele>229.41</ele>
        <time>2015-05-24T13:00:49Z</time>
      </trkpt>
      <trkpt lat="46.075293906033039" lon="9.307761574164033">
        <ele>229.41</ele>
        <time>2015-05-24T13:00:55Z</time>
      </trkpt>
      <trkpt lat="46.075351657345891" lon="9.307741709053516">
        <ele>229.88999999999999</ele>
        <time>2015-05-24T13:01:06Z</time>
      </trkpt>
      <trkpt lat="46.075418125838041" lon="9.307678258046508">
        <ele>229.88999999999999</ele>
        <time>2015-05-24T13:01:18Z</time>
      </trkpt>
      <trkpt lat="46.075488785281777" lon="9.307661075145006">
        <ele>230.37</ele>
        <time>2015-05-24T13:01:27Z</time>
      </trkpt>
      <trkpt lat="46.075600013136864" lon="9.307604832574725">
        <ele>229.41</ele>
        <time>2015-05-24T13:01:38Z</time>
      </trkpt>
      <trkpt lat="46.075648292899132" lon="9.307617824524641">
        <ele>228.93000000000001</ele>
        <time>2015-05-24T13:01:47Z</time>
      </trkpt>
      <trkpt lat="46.075665140524507" lon="9.307595193386078">
        <ele>228.93000000000001</ele>
        <time>2015-05-24T13:01:50Z</time>
      </trkpt>
      <trkpt lat="46.075757090002298" lon="9.307511877268553">
        <ele>229.88999999999999</ele>
        <time>2015-05-24T13:02:03Z</time>
      </trkpt>
      <trkpt lat="46.075857756659389" lon="9.307489162310958">
        <ele>230.37</ele>
        <time>2015-05-24T13:02:13Z</time>
      </trkpt>
      <trkpt lat="46.076008295640349" lon="9.307464184239507">
        <ele>230.84999999999999</ele>
        <time>2015-05-24T13:02:25Z</time>
      </trkpt>
      <trkpt lat="46.07615489512682" lon="9.3074472527951">
        <ele>231.81</ele>
        <time>2015-05-24T13:02:38Z</time>
      </trkpt>
      <trkpt lat="46.076334016397595" lon="9.307486061006784">
        <ele>232.30000000000001</ele>
        <time>2015-05-24T13:02:51Z</time>
      </trkpt>
      <trkpt lat="46.0763786919415" lon="9.307419257238507">
        <ele>232.78</ele>
        <time>2015-05-24T13:02:55Z</time>
      </trkpt>
      <trkpt lat="46.076384726911783" lon="9.307318925857544">
        <ele>232.78</ele>
        <time>2015-05-24T13:02:59Z</time>
      </trkpt>
      <trkpt lat="46.076388079673052" lon="9.307262850925326">
        <ele>232.78</ele>
        <time>2015-05-24T13:03:01Z</time>
      </trkpt>
      <trkpt lat="46.076401574537158" lon="9.307239716872573">
        <ele>232.30000000000001</ele>
        <time>2015-05-24T13:03:03Z</time>
      </trkpt>
      <trkpt lat="46.076411632820964" lon="9.307190347462893">
        <ele>231.81</ele>
        <time>2015-05-24T13:03:06Z</time>
      </trkpt>
      <trkpt lat="46.076422445476055" lon="9.307054644450545">
        <ele>231.33000000000001</ele>
        <time>2015-05-24T13:03:14Z</time>
      </trkpt>
      <trkpt lat="46.076405011117458" lon="9.30682422593236">
        <ele>230.37</ele>
        <time>2015-05-24T13:03:30Z</time>
      </trkpt>
      <trkpt lat="46.076455721631646" lon="9.306681649759412">
        <ele>230.37</ele>
        <time>2015-05-24T13:03:39Z</time>
      </trkpt>
      <trkpt lat="46.076452033594251" lon="9.306515688076615">
        <ele>229.88999999999999</ele>
        <time>2015-05-24T13:03:50Z</time>
      </trkpt>
      <trkpt lat="46.076481873169541" lon="9.306307230144739">
        <ele>228.93000000000001</ele>
        <time>2015-05-24T13:04:03Z</time>
      </trkpt>
      <trkpt lat="46.076490925624967" lon="9.306247550994158">
        <ele>228.93000000000001</ele>
        <time>2015-05-24T13:04:07Z</time>
      </trkpt>
      <trkpt lat="46.076508024707437" lon="9.306020652875304">
        <ele>227.49000000000001</ele>
        <time>2015-05-24T13:04:21Z</time>
      </trkpt>
      <trkpt lat="46.076529314741492" lon="9.305862989276648">
        <ele>227.00999999999999</ele>
        <time>2015-05-24T13:04:31Z</time>
      </trkpt>
      <trkpt lat="46.076575415208936" lon="9.305659476667643">
        <ele>226.53</ele>
        <time>2015-05-24T13:04:45Z</time>
      </trkpt>
      <trkpt lat="46.076593436300755" lon="9.305630978196859">
        <ele>226.53</ele>
        <time>2015-05-24T13:04:47Z</time>
      </trkpt>
      <trkpt lat="46.076608523726463" lon="9.305570963770151">
        <ele>226.53</ele>
        <time>2015-05-24T13:04:50Z</time>
      </trkpt>
      <trkpt lat="46.076636519283056" lon="9.305455964058638">
        <ele>226.05000000000001</ele>
        <time>2015-05-24T13:05:02Z</time>
      </trkpt>
      <trkpt lat="46.076572900637984" lon="9.305443139746785">
        <ele>226.05000000000001</ele>
        <time>2015-05-24T13:05:08Z</time>
      </trkpt>
      <trkpt lat="46.076527889817953" lon="9.305384550243616">
        <ele>226.53</ele>
        <time>2015-05-24T13:05:12Z</time>
      </trkpt>
      <trkpt lat="46.076546749100089" lon="9.305156897753477">
        <ele>226.05000000000001</ele>
        <time>2015-05-24T13:05:25Z</time>
      </trkpt>
      <trkpt lat="46.076589664444327" lon="9.304900243878365">
        <ele>225.09</ele>
        <time>2015-05-24T13:05:39Z</time>
      </trkpt>
      <trkpt lat="46.076597878709435" lon="9.304837631061673">
        <ele>225.09</ele>
        <time>2015-05-24T13:05:49Z</time>
      </trkpt>
      <trkpt lat="46.076611038297415" lon="9.304769234731793">
        <ele>224.61000000000001</ele>
        <time>2015-05-24T13:05:55Z</time>
      </trkpt>
      <trkpt lat="46.076598297804594" lon="9.304691450670362">
        <ele>224.61000000000001</ele>
        <time>2015-05-24T13:06:04Z</time>
      </trkpt>
      <trkpt lat="46.076623778790236" lon="9.304577624425292">
        <ele>224.12</ele>
        <time>2015-05-24T13:06:12Z</time>
      </trkpt>
      <trkpt lat="46.076680356636643" lon="9.304537978023291">
        <ele>223.63999999999999</ele>
        <time>2015-05-24T13:06:18Z</time>
      </trkpt>
      <trkpt lat="46.076711202040315" lon="9.304529009386897">
        <ele>224.12</ele>
        <time>2015-05-24T13:06:26Z</time>
      </trkpt>
      <trkpt lat="46.076710280030966" lon="9.304404286667705">
        <ele>224.12</ele>
        <time>2015-05-24T13:06:35Z</time>
      </trkpt>
      <trkpt lat="46.076691588386893" lon="9.304393557831645">
        <ele>224.12</ele>
        <time>2015-05-24T13:06:36Z</time>
      </trkpt>
      <trkpt lat="46.076621012762189" lon="9.304333543404937">
        <ele>224.12</ele>
        <time>2015-05-24T13:06:44Z</time>
      </trkpt>
      <trkpt lat="46.076641464605927" lon="9.304158529266715">
        <ele>223.16</ele>
        <time>2015-05-24T13:06:56Z</time>
      </trkpt>
      <trkpt lat="46.076651774346828" lon="9.303994998335838">
        <ele>222.19999999999999</ele>
        <time>2015-05-24T13:07:05Z</time>
      </trkpt>
      <trkpt lat="46.076653366908431" lon="9.303775308653712">
        <ele>221.72</ele>
        <time>2015-05-24T13:07:18Z</time>
      </trkpt>
      <trkpt lat="46.076676668599248" lon="9.303640862926841">
        <ele>221.72</ele>
        <time>2015-05-24T13:07:26Z</time>
      </trkpt>
      <trkpt lat="46.076677842065692" lon="9.303589230403304">
        <ele>221.72</ele>
        <time>2015-05-24T13:07:29Z</time>
      </trkpt>
      <trkpt lat="46.076682368293405" lon="9.30345076136291">
        <ele>221.72</ele>
        <time>2015-05-24T13:07:38Z</time>
      </trkpt>
      <trkpt lat="46.076666107401252" lon="9.303358728066087">
        <ele>221.24000000000001</ele>
        <time>2015-05-24T13:07:46Z</time>
      </trkpt>
      <trkpt lat="46.07664649374783" lon="9.30328999646008">
        <ele>220.75999999999999</ele>
        <time>2015-05-24T13:07:58Z</time>
      </trkpt>
      <trkpt lat="46.076644146814942" lon="9.303267700597644">
        <ele>221.24000000000001</ele>
        <time>2015-05-24T13:08:10Z</time>
      </trkpt>
      <trkpt lat="46.076626377180219" lon="9.303259905427694">
        <ele>221.24000000000001</ele>
        <time>2015-05-24T13:08:18Z</time>
      </trkpt>
      <trkpt lat="46.076614055782557" lon="9.303265353664756">
        <ele>221.24000000000001</ele>
        <time>2015-05-24T13:08:20Z</time>
      </trkpt>
      <trkpt lat="46.07656829059124" lon="9.303311537951231">
        <ele>220.75999999999999</ele>
        <time>2015-05-24T13:08:28Z</time>
      </trkpt>
      <trkpt lat="46.076491428539157" lon="9.303277255967259">
        <ele>221.24000000000001</ele>
        <time>2015-05-24T13:08:36Z</time>
      </trkpt>
      <trkpt lat="46.076442645862699" lon="9.303272562101483">
        <ele>221.72</ele>
        <time>2015-05-24T13:08:40Z</time>
      </trkpt>
      <trkpt lat="46.076426971703768" lon="9.303284296765924">
        <ele>221.24000000000001</ele>
        <time>2015-05-24T13:08:51Z</time>
      </trkpt>
      <trkpt lat="46.076422026380897" lon="9.303277339786291">
        <ele>221.24000000000001</ele>
        <time>2015-05-24T13:09:08Z</time>
      </trkpt>
      <trkpt lat="46.076339045539498" lon="9.303281279280782">
        <ele>221.24000000000001</ele>
        <time>2015-05-24T13:09:16Z</time>
      </trkpt>
      <trkpt lat="46.076178280636668" lon="9.303266946226358">
        <ele>220.75999999999999</ele>
        <time>2015-05-24T13:09:30Z</time>
      </trkpt>
      <trkpt lat="46.076020617038012" lon="9.303278345614672">
        <ele>220.75999999999999</ele>
        <time>2015-05-24T13:09:43Z</time>
      </trkpt>
      <trkpt lat="46.075861947610974" lon="9.303245823830366">
        <ele>220.28</ele>
        <time>2015-05-24T13:09:57Z</time>
      </trkpt>
      <trkpt lat="46.075741834938526" lon="9.303197292611003">
        <ele>220.28</ele>
        <time>2015-05-24T13:10:09Z</time>
      </trkpt>
      <trkpt lat="46.075607473030686" lon="9.303206596523523">
        <ele>220.28</ele>
        <time>2015-05-24T13:10:23Z</time>
      </trkpt>
      <trkpt lat="46.075430950149894" lon="9.303170805796981">
        <ele>220.28</ele>
        <time>2015-05-24T13:10:38Z</time>
      </trkpt>
      <trkpt lat="46.075379820540547" lon="9.303140044212341">
        <ele>219.80000000000001</ele>
        <time>2015-05-24T13:10:43Z</time>
      </trkpt>
      <trkpt lat="46.075339168310165" lon="9.303150353953242">
        <ele>220.28</ele>
        <time>2015-05-24T13:10:48Z</time>
      </trkpt>
      <trkpt lat="46.075159963220358" lon="9.303101236000657">
        <ele>220.28</ele>
        <time>2015-05-24T13:11:04Z</time>
      </trkpt>
      <trkpt lat="46.075135404244065" lon="9.303112216293812">
        <ele>220.75999999999999</ele>
        <time>2015-05-24T13:11:07Z</time>
      </trkpt>
      <trkpt lat="46.075030546635389" lon="9.303055303171277">
        <ele>221.24000000000001</ele>
        <time>2015-05-24T13:11:18Z</time>
      </trkpt>
      <trkpt lat="46.074994085356593" lon="9.302990427240729">
        <ele>220.75999999999999</ele>
        <time>2015-05-24T13:11:30Z</time>
      </trkpt>
      <trkpt lat="46.075047310441732" lon="9.303059745579958">
        <ele>220.28</ele>
        <time>2015-05-24T13:11:41Z</time>
      </trkpt>
      <trkpt lat="46.075064409524202" lon="9.303064355626702">
        <ele>220.28</ele>
        <time>2015-05-24T13:11:54Z</time>
      </trkpt>
      <trkpt lat="46.075091902166605" lon="9.303061170503497">
        <ele>220.28</ele>
        <time>2015-05-24T13:12:04Z</time>
      </trkpt>
      <trkpt lat="46.075170943513513" lon="9.303065361455083">
        <ele>220.28</ele>
        <time>2015-05-24T13:12:14Z</time>
      </trkpt>
      <trkpt lat="46.075203465297818" lon="9.303076760843396">
        <ele>220.28</ele>
        <time>2015-05-24T13:12:22Z</time>
      </trkpt>
      <trkpt lat="46.075318548828363" lon="9.303100733086467">
        <ele>219.80000000000001</ele>
        <time>2015-05-24T13:12:34Z</time>
      </trkpt>
      <trkpt lat="46.075444696471095" lon="9.303143816068769">
        <ele>219.80000000000001</ele>
        <time>2015-05-24T13:12:46Z</time>
      </trkpt>
      <trkpt lat="46.075603617355227" lon="9.30319813080132">
        <ele>219.31999999999999</ele>
        <time>2015-05-24T13:13:01Z</time>
      </trkpt>
      <trkpt lat="46.075743427500129" lon="9.303221013396978">
        <ele>219.80000000000001</ele>
        <time>2015-05-24T13:13:13Z</time>
      </trkpt>
      <trkpt lat="46.075783912092447" lon="9.303237358108163">
        <ele>219.80000000000001</ele>
        <time>2015-05-24T13:13:17Z</time>
      </trkpt>
      <trkpt lat="46.075943587347865" lon="9.303271137177944">
        <ele>219.80000000000001</ele>
        <time>2015-05-24T13:13:31Z</time>
      </trkpt>
      <trkpt lat="46.076076105237007" lon="9.303284212946892">
        <ele>220.28</ele>
        <time>2015-05-24T13:13:44Z</time>
      </trkpt>
      <trkpt lat="46.076088426634669" lon="9.303280189633369">
        <ele>220.28</ele>
        <time>2015-05-24T13:13:55Z</time>
      </trkpt>
      <trkpt lat="46.076154811307788" lon="9.303265269845724">
        <ele>220.75999999999999</ele>
        <time>2015-05-24T13:14:05Z</time>
      </trkpt>
      <trkpt lat="46.076161852106452" lon="9.303265772759914">
        <ele>220.75999999999999</ele>
        <time>2015-05-24T13:14:06Z</time>
      </trkpt>
      <trkpt lat="46.076176101341844" lon="9.303268874064088">
        <ele>220.75999999999999</ele>
        <time>2015-05-24T13:14:07Z</time>
      </trkpt>
      <trkpt lat="46.076343487948179" lon="9.303294019773603">
        <ele>220.28</ele>
        <time>2015-05-24T13:14:20Z</time>
      </trkpt>
      <trkpt lat="46.076520094648004" lon="9.303344981744885">
        <ele>220.75999999999999</ele>
        <time>2015-05-24T13:14:36Z</time>
      </trkpt>
      <trkpt lat="46.076618833467364" lon="9.303349256515503">
        <ele>221.72</ele>
        <time>2015-05-24T13:14:47Z</time>
      </trkpt>
      <trkpt lat="46.076652193441987" lon="9.303294690325856">
        <ele>221.24000000000001</ele>
        <time>2015-05-24T13:14:56Z</time>
      </trkpt>
      <trkpt lat="46.0766567196697" lon="9.30328412912786">
        <ele>221.24000000000001</ele>
        <time>2015-05-24T13:14:57Z</time>
      </trkpt>
      <trkpt lat="46.076672729104757" lon="9.303051196038723">
        <ele>220.75999999999999</ele>
        <time>2015-05-24T13:15:12Z</time>
      </trkpt>
      <trkpt lat="46.076699132099748" lon="9.302812227979302">
        <ele>220.28</ele>
        <time>2015-05-24T13:15:28Z</time>
      </trkpt>
      <trkpt lat="46.07673148624599" lon="9.302569320425391">
        <ele>219.80000000000001</ele>
        <time>2015-05-24T13:15:43Z</time>
      </trkpt>
      <trkpt lat="46.076780185103416" lon="9.302305961027741">
        <ele>219.31999999999999</ele>
        <time>2015-05-24T13:16:00Z</time>
      </trkpt>
      <trkpt lat="46.076776077970862" lon="9.302080571651459">
        <ele>218.84</ele>
        <time>2015-05-24T13:16:14Z</time>
      </trkpt>
      <trkpt lat="46.076704245060682" lon="9.302033549174666">
        <ele>218.36000000000001</ele>
        <time>2015-05-24T13:16:19Z</time>
      </trkpt>
      <trkpt lat="46.07648765668273" lon="9.301936235278845">
        <ele>217.40000000000001</ele>
        <time>2015-05-24T13:16:36Z</time>
      </trkpt>
      <trkpt lat="46.076353043317795" lon="9.301847303286195">
        <ele>217.40000000000001</ele>
        <time>2015-05-24T13:16:49Z</time>
      </trkpt>
      <trkpt lat="46.076218849048018" lon="9.301805142313242">
        <ele>217.40000000000001</ele>
        <time>2015-05-24T13:17:01Z</time>
      </trkpt>
      <trkpt lat="46.076042074710131" lon="9.301717299968004">
        <ele>217.40000000000001</ele>
        <time>2015-05-24T13:17:16Z</time>
      </trkpt>
      <trkpt lat="46.075895056128502" lon="9.301618812605739">
        <ele>217.40000000000001</ele>
        <time>2015-05-24T13:17:29Z</time>
      </trkpt>
      <trkpt lat="46.075763627886772" lon="9.301548069342971">
        <ele>217.88</ele>
        <time>2015-05-24T13:17:41Z</time>
      </trkpt>
      <trkpt lat="46.075601857155561" lon="9.301470704376698">
        <ele>217.40000000000001</ele>
        <time>2015-05-24T13:17:55Z</time>
      </trkpt>
      <trkpt lat="46.075443606823683" lon="9.301385544240475">
        <ele>217.40000000000001</ele>
        <time>2015-05-24T13:18:10Z</time>
      </trkpt>
      <trkpt lat="46.075305640697479" lon="9.301298540085554">
        <ele>217.88</ele>
        <time>2015-05-24T13:18:21Z</time>
      </trkpt>
      <trkpt lat="46.07513171620667" lon="9.301216145977378">
        <ele>217.88</ele>
        <time>2015-05-24T13:18:36Z</time>
      </trkpt>
      <trkpt lat="46.074987212195992" lon="9.301159735769033">
        <ele>218.36000000000001</ele>
        <time>2015-05-24T13:18:48Z</time>
      </trkpt>
      <trkpt lat="46.07485762797296" lon="9.301078096032143">
        <ele>218.84</ele>
        <time>2015-05-24T13:19:01Z</time>
      </trkpt>
      <trkpt lat="46.074754782021046" lon="9.301020679995418">
        <ele>218.36000000000001</ele>
        <time>2015-05-24T13:19:11Z</time>
      </trkpt>
      <trkpt lat="46.074581779539585" lon="9.300913894549012">
        <ele>217.88</ele>
        <time>2015-05-24T13:19:26Z</time>
      </trkpt>
      <trkpt lat="46.07440022751689" lon="9.300814317539334">
        <ele>218.84</ele>
        <time>2015-05-24T13:19:42Z</time>
      </trkpt>
      <trkpt lat="46.074210545048118" lon="9.300711806863546">
        <ele>218.36000000000001</ele>
        <time>2015-05-24T13:19:57Z</time>
      </trkpt>
      <trkpt lat="46.074000746011734" lon="9.30062061175704">
        <ele>218.36000000000001</ele>
        <time>2015-05-24T13:20:14Z</time>
      </trkpt>
      <trkpt lat="46.0739731695503" lon="9.300607703626156">
        <ele>217.40000000000001</ele>
        <time>2015-05-24T13:20:16Z</time>
      </trkpt>
      <trkpt lat="46.073812153190374" lon="9.300667550414801">
        <ele>217.40000000000001</ele>
        <time>2015-05-24T13:20:32Z</time>
      </trkpt>
      <trkpt lat="46.073755407705903" lon="9.300825297832489">
        <ele>218.84</ele>
        <time>2015-05-24T13:20:45Z</time>
      </trkpt>
      <trkpt lat="46.073752054944634" lon="9.300838457420468">
        <ele>218.36000000000001</ele>
        <time>2015-05-24T13:20:47Z</time>
      </trkpt>
      <trkpt lat="46.073740739375353" lon="9.300853628665209">
        <ele>218.84</ele>
        <time>2015-05-24T13:20:49Z</time>
      </trkpt>
      <trkpt lat="46.073727998882532" lon="9.300897885113955">
        <ele>218.84</ele>
        <time>2015-05-24T13:20:53Z</time>
      </trkpt>
      <trkpt lat="46.07377091422677" lon="9.300969298928976">
        <ele>218.36000000000001</ele>
        <time>2015-05-24T13:21:05Z</time>
      </trkpt>
      <trkpt lat="46.073752725496888" lon="9.300977094098926">
        <ele>217.88</ele>
        <time>2015-05-24T13:21:12Z</time>
      </trkpt>
      <trkpt lat="46.073731267824769" lon="9.300979860126972">
        <ele>217.40000000000001</ele>
        <time>2015-05-24T13:21:41Z</time>
      </trkpt>
      <trkpt lat="46.073734201490879" lon="9.300966365262866">
        <ele>218.84</ele>
        <time>2015-05-24T13:21:59Z</time>
      </trkpt>
      <trkpt lat="46.073737302795053" lon="9.300939962267876">
        <ele>217.88</ele>
        <time>2015-05-24T13:22:17Z</time>
      </trkpt>
    </trkseg>
  </trk>

</gpx>